[[{"header":{"parameterUnit":"m.s-1","parameterCategory":1,"la1":30.6,"la2":28.766,"lo1":-90.7593,"lo2":-88.6598,"dy":0.0162,"dx":0.0183,"nx":116,"ny":114,"refTime":"2024-07-05T00:00:00:Z","depth":0,"parameterNumber":2,"parameterNumberName":"U-component_of_WINDS"},"data":[0.0,0.0,0.0,0.0,0.0,0.0,0.0,0.0,0.0,0.0,0.0,0.0,0.0,0.0,0.0,0.0,0.0,0.0,0.0,0.0,0.0,0.0,0.0,0.0,0.0,0.0,0.0,0.0,0.0,0.0,0.0,0.0,0.0,0.0,0.0,0.0,0.0,0.0,0.0,0.0,0.0,0.0,0.0,0.0,0.0,0.0,0.0,0.0,0.0,0.0,0.0,0.0,0.0,0.0,0.0,0.0,0.0,0.0,0.0,0.0,0.0,0.0,0.0,0.0,0.0,0.0,0.0,0.0,0.0,0.0,0.0,0.0,0.0,0.0,0.0,0.0,0.0,0.0,0.0,0.0,0.0,0.0,0.0,0.0,0.0,0.0,0.0,0.0,0.0,0.0,0.0,0.0,0.0,0.0,0.0,0.0,0.0,0.0,0.0,0.0,0.0,0.0,0.0,0.0,0.0,0.0,0.0,0.0,0.0,0.0,0.0,0.0,0.0,0.0,0.0,0.0,0.0,0.0,0.0,0.0,0.0,0.0,0.0,0.0,0.0,0.0,0.0,0.0,0.0,0.0,0.0,0.0,0.0,0.0,0.0,0.0,0.0,0.0,0.0,0.0,0.0,0.0,0.0,0.0,0.0,0.0,0.0,0.0,0.0,0.0,0.0,0.0,0.0,0.0,0.0,0.0,0.0,0.0,0.0,0.0,0.0,0.0,0.0,0.0,0.0,0.0,0.0,0.0,0.0,0.0,0.0,0.0,0.0,0.0,0.0,0.0,0.0,0.0,0.0,0.0,0.0,0.0,0.0,0.0,0.0,0.0,0.0,0.0,0.0,0.0,0.0,0.0,0.0,0.0,0.0,0.0,0.0,0.0,0.0,0.0,0.0,0.0,0.0,0.0,0.0,0.0,0.0,0.0,0.0,0.0,0.0,0.0,0.0,0.0,0.0,0.0,0.0,0.0,0.0,0.0,0.0,0.0,0.0,0.0,0.0,0.0,0.0,0.0,0.0,0.0,0.0,0.0,0.0,0.0,0.0,0.0,0.0,0.0,0.0,0.0,0.0,0.0,0.0,0.0,0.0,0.0,0.0,0.0,0.0,0.0,0.0,0.0,0.0,0.0,0.0,0.0,0.0,0.0,0.0,0.0,0.0,0.0,0.0,0.0,0.0,0.0,0.0,0.0,0.0,0.0,0.0,0.0,0.0,0.0,0.0,0.0,0.0,0.0,0.0,0.0,0.0,0.0,0.0,0.0,0.0,0.0,0.0,0.0,0.0,0.0,0.0,0.0,0.0,0.0,0.0,0.0,0.0,0.0,0.0,0.0,0.0,0.0,0.0,0.0,0.0,0.0,0.0,0.0,0.0,0.0,0.0,0.0,0.0,0.0,0.0,0.0,0.0,0.0,0.0,0.0,0.0,0.0,0.0,0.0,0.0,0.0,0.0,0.0,0.0,0.0,0.0,0.0,0.0,0.0,0.0,0.0,0.0,0.0,0.0,0.0,0.0,0.0,0.0,0.0,0.0,0.0,0.0,0.0,0.0,0.0,0.0,0.0,0.0,0.0,0.0,0.0,0.0,0.0,0.0,0.0,0.0,0.0,0.0,0.0,0.0,0.0,0.0,0.0,0.0,0.0,0.0,0.0,0.0,0.0,0.0,0.0,0.0,0.0,0.0,0.0,0.0,0.0,0.0,0.0,0.0,0.0,0.0,0.0,0.0,0.0,0.0,0.0,0.0,0.0,0.0,0.0,0.0,0.0,0.0,0.0,0.0,0.0,0.0,0.0,0.0,0.0,0.0,0.0,0.0,0.0,0.0,0.0,0.0,0.0,0.0,0.0,0.0,0.0,0.0,0.0,0.0,0.0,0.0,0.0,0.0,0.0,0.0,0.0,0.0,0.0,0.0,0.0,0.0,0.0,0.0,0.0,0.0,0.0,0.0,0.0,0.0,0.0,0.0,0.0,0.0,0.0,0.0,0.0,0.0,0.0,0.0,0.0,0.0,0.0,0.0,0.0,0.0,0.0,0.0,0.0,0.0,0.0,0.0,0.0,0.0,0.0,0.0,0.0,0.0,0.0,0.0,0.0,0.0,0.0,0.0,0.0,0.0,0.0,0.0,0.0,0.0,0.0,0.0,0.0,0.0,0.0,0.0,0.0,0.0,0.0,0.0,0.0,0.0,0.0,0.0,0.0,0.0,0.0,0.0,0.0,0.0,0.0,0.0,0.0,0.0,0.0,0.0,0.0,0.0,0.0,0.0,0.0,0.0,0.0,0.0,0.0,0.0,0.0,0.0,0.0,0.0,0.0,0.0,0.0,0.0,0.0,0.0,0.0,0.0,0.0,0.0,0.0,0.0,0.0,0.0,0.0,0.0,0.0,0.0,0.0,0.0,0.0,0.0,0.0,0.0,0.0,0.0,0.0,0.0,0.0,0.0,0.0,0.0,0.0,0.0,0.0,0.0,0.0,0.0,0.0,0.0,0.0,0.0,0.0,0.0,0.0,0.0,0.0,0.0,0.0,0.0,0.0,0.0,0.0,0.0,0.0,0.0,0.0,0.0,0.0,0.0,0.0,0.0,0.0,0.0,0.0,0.0,0.0,0.0,0.0,0.0,0.0,0.0,0.0,0.0,0.0,0.0,0.0,0.0,0.0,0.0,0.0,0.0,0.0,0.0,0.0,0.0,0.0,0.0,0.0,0.0,0.0,0.0,0.0,0.0,0.0,0.0,0.0,0.0,0.0,0.0,0.0,0.0,0.0,0.0,0.0,0.0,0.0,0.0,0.0,0.0,0.0,0.0,0.0,0.0,0.0,0.0,0.0,0.0,0.0,0.0,0.0,0.0,0.0,0.0,0.0,0.0,0.0,0.0,0.0,0.0,0.0,0.0,0.0,0.0,0.0,0.0,0.0,0.0,0.0,0.0,0.0,0.0,0.0,0.0,0.0,0.0,0.0,0.0,0.0,0.0,0.0,0.0,0.0,0.0,0.0,0.0,0.0,0.0,0.0,0.0,0.0,0.0,0.0,0.0,0.0,0.0,0.0,0.0,0.0,0.0,0.0,0.0,0.0,0.0,0.0,0.0,0.0,0.0,0.0,0.0,0.0,0.0,0.0,0.0,0.0,0.0,0.0,0.0,0.0,0.0,0.0,0.0,0.0,0.0,0.0,0.0,0.0,0.0,0.0,0.0,0.0,0.0,0.0,0.0,0.0,0.0,0.0,0.0,0.0,0.0,0.0,0.0,0.0,0.0,0.0,0.0,0.0,0.0,0.0,0.0,0.0,0.0,0.0,0.0,0.0,0.0,0.0,0.0,0.0,0.0,0.0,0.0,0.0,0.0,0.0,0.0,0.0,0.0,0.0,0.0,0.0,0.0,0.0,0.0,0.0,0.0,0.0,0.0,0.0,0.0,0.0,0.0,0.0,0.0,0.0,0.0,0.0,0.0,0.0,0.0,0.0,0.0,0.0,0.0,0.0,0.0,0.0,0.0,0.0,0.0,0.0,0.0,0.0,0.0,0.0,0.0,0.0,0.0,0.0,0.0,0.0,0.0,0.0,0.0,0.0,0.0,0.0,0.0,0.0,0.0,0.0,0.0,0.0,0.0,0.0,0.0,0.0,0.0,0.0,0.0,0.0,0.0,0.0,0.0,0.0,0.0,0.0,0.0,0.0,0.0,0.0,0.0,0.0,0.0,0.0,0.0,0.0,0.0,0.0,0.0,0.0,0.0,0.0,0.0,0.0,0.0,0.0,0.0,0.0,0.0,0.0,0.0,0.0,0.0,0.0,0.0,0.0,0.0,0.0,0.0,0.0,0.0,0.0,0.0,0.0,0.0,0.0,0.0,0.0,0.0,0.0,0.0,0.0,0.0,0.0,0.0,0.0,0.0,0.0,0.0,0.0,0.0,0.0,0.0,0.0,0.0,0.0,0.0,0.0,0.0,0.0,0.0,0.0,0.0,0.0,0.0,0.0,0.0,0.0,0.0,0.0,0.0,0.0,0.0,0.0,0.0,0.0,0.0,0.0,0.0,0.0,0.0,0.0,0.0,0.0,0.0,0.0,0.0,0.0,0.0,0.0,0.0,0.0,0.0,0.0,0.0,0.0,0.0,0.0,0.0,0.0,0.0,0.0,0.0,0.0,0.0,0.0,0.0,0.0,0.0,0.0,0.0,0.0,0.0,0.0,0.0,0.0,0.0,0.0,0.0,0.0,0.0,0.0,0.0,0.0,0.0,0.0,0.0,0.0,0.0,0.0,0.0,0.0,0.0,0.0,0.0,0.0,0.0,0.0,0.0,0.0,0.0,0.0,0.0,0.0,0.0,0.0,0.0,0.0,0.0,0.0,0.0,0.0,0.0,0.0,0.0,0.0,0.0,0.0,0.0,0.0,0.0,0.0,0.0,0.0,0.0,0.0,0.0,0.0,0.0,0.0,0.0,0.0,0.0,0.0,0.0,0.0,0.0,0.0,0.0,0.0,0.0,0.0,0.0,0.0,0.0,0.0,0.0,0.0,0.0,0.0,0.0,0.0,0.0,0.0,0.0,0.0,0.0,0.0,0.0,0.0,0.0,0.0,0.0,0.0,0.0,0.0,0.0,0.0,0.0,0.0,0.0,0.0,0.0,0.0,0.0,0.0,0.0,0.0,0.0,0.0,0.0,0.0,0.0,0.0,0.0,0.0,0.0,0.0,0.0,0.0,0.0,0.0,0.0,0.0,0.0,0.0,0.0,0.0,0.0,0.0,0.0,0.0,0.0,0.0,0.0,0.0,0.0,0.0,0.0,0.0,0.0,0.0,0.0,0.0,0.0,0.0,0.0,0.0,0.0,0.0,0.0,0.0,0.0,0.0,0.0,0.0,0.0,0.0,0.0,0.0,0.0,0.0,0.0,0.0,0.0,0.0,0.0,0.0,0.0,0.0,0.0,0.0,0.0,0.0,0.0,0.0,0.0,0.0,0.0,0.0,0.0,0.0,0.0,0.0,0.0,0.0,0.0,0.0,0.0,0.0,0.0,0.0,0.0,0.0,0.0,0.0,0.0,0.0,0.0,0.0,0.0,0.0,0.0,0.0,0.0,0.0,0.0,0.0,0.0,0.0,0.0,0.0,0.0,0.0,0.0,0.0,0.0,0.0,0.0,0.0,0.0,0.0,0.0,0.0,0.0,0.0,0.0,0.0,0.0,0.0,0.0,0.0,0.0,0.0,0.0,0.0,0.0,0.0,0.0,0.0,0.0,0.0,0.0,0.0,0.0,0.0,0.0,0.0,0.0,0.0,0.0,0.0,0.0,0.0,0.0,0.0,0.0,0.0,0.0,0.0,0.0,0.0,0.0,0.0,0.0,0.0,0.0,0.0,0.0,0.0,0.0,0.0,0.0,0.0,0.0,0.0,0.0,0.0,0.0,0.0,0.0,0.0,0.0,0.0,0.0,0.0,0.0,0.0,0.0,0.0,0.0,0.0,0.0,0.0,0.0,0.0,0.0,0.0,0.0,0.0,0.0,0.0,0.0,0.0,0.0,0.0,0.0,0.0,0.0,0.0,0.0,0.0,0.0,0.0,0.0,0.0,0.0,0.0,0.0,0.0,0.0,0.0,0.0,0.0,0.0,0.0,0.0,0.0,0.0,0.0,0.0,0.0,0.0,0.0,0.0,0.0,0.0,0.0,0.0,0.0,0.0,0.0,0.0,0.0,0.0,0.0,0.0,0.0,0.0,0.0,0.0,0.0,0.0,0.0,0.0,0.0,0.0,0.0,0.0,0.0,0.0,0.0,0.0,0.0,0.0,0.0,0.0,0.0,0.0,0.0,0.0,0.0,0.0,0.0,0.0,0.0,0.0,0.0,0.0,0.0,0.0,0.0,0.0,0.0,0.0,0.0,0.0,0.0,0.0,0.0,0.0,0.0,0.0,0.0,0.0,0.0,0.0,0.0,0.0,0.0,0.0,0.0,0.0,0.0,0.0,0.0,0.0,0.0,0.0,0.0,0.0,0.0,0.0,0.0,0.0,0.0,0.0,0.0,0.0,0.0,0.0,0.0,0.0,0.0,0.0,0.0,0.0,0.0,0.0,0.0,0.0,0.0,0.0,0.0,0.0,0.0,0.0,0.0,0.5937,0.0,0.0,0.0,0.0,0.0,0.0,0.0,0.0,0.0,0.0,0.0,0.0,0.0,0.0,0.0,0.0,0.0,0.0,0.0,0.0,0.0,0.0,0.0,0.0,-0.2278,-0.2198,-0.2151,-0.2093,-0.2043,-0.2013,0.0,0.0,0.0,0.0,0.0,-0.0765,-0.0433,-0.0,0.0548,0.1143,0.1721,0.2263,0.2194,0.1912,0.1507,0.0,0.0,0.0,0.0,0.0,0.0,0.0,0.0,0.0,0.0,0.0,0.0,0.0,0.0,0.0,0.0,0.0,0.0,0.0,0.0,0.0,0.0,0.0,0.0,0.0,0.0,0.0,0.0,0.0,0.0,0.0,0.0,0.0,0.0,0.0,0.0,0.0,0.0,0.0,0.0,0.0,0.0,0.0,0.0,0.0,0.0,0.0,0.0,0.0,0.0,0.0,0.0,0.0,0.0,0.0,0.0,0.0,0.0,0.0,0.0,0.0,0.0,0.0,0.0,0.0,0.0,0.0,0.0,0.0,0.0,0.0,0.5432,0.0,0.0,0.0,0.0,0.0,0.0,0.0,0.0,0.0,0.0,0.0,0.0,0.0,0.0,0.0,0.0,0.0,0.0,0.0,0.0,0.0,-0.2175,-0.2183,-0.2084,-0.2024,-0.2041,-0.1975,-0.1871,-0.1733,-0.1657,0.0,0.0,0.0,-0.0885,-0.0427,-0.0124,0.0304,0.0852,0.1641,0.2375,0.3059,0.3059,0.2648,0.1895,0.2024,0.0,0.0,0.0,0.0,0.0,0.0,0.0,0.0,0.0,0.0,0.0,0.0,0.0,0.0,0.0,0.0,0.0,0.0,0.0,0.0,0.0,0.0,0.0,0.0,0.0,0.0,0.0,0.0,0.0,0.0,0.0,0.0,0.0,0.0,0.0,0.0,0.0,0.0,0.0,0.0,0.0,0.0,0.0,0.0,0.0,0.0,0.0,0.0,0.0,0.0,0.0,0.0,0.0,0.0,0.0,0.0,0.0,0.0,0.0,0.0,0.0,0.0,0.0,0.0,-0.0914,-0.0615,-0.0109,0.0163,0.0325,0.258,0.3771,0.4184,0.0,0.0,0.0,0.0,0.0,0.0,0.0,0.0,0.0,0.0,0.0,0.0,0.0,0.0,0.0,0.0,0.0,0.0,0.0,0.0,-0.2003,-0.1715,-0.1676,-0.16,-0.1435,-0.1353,-0.1339,-0.1372,-0.1302,0.0,0.0,-0.1209,-0.0908,-0.05,-0.0043,0.0472,0.1058,0.1752,0.2231,0.2511,0.2511,0.2415,0.2237,0.2664,0.2789,0.2642,0.0,0.0,0.0,0.0,0.0,0.0,0.0,0.0,0.0,0.0,0.0,0.0,0.0,0.0,0.0,0.0,0.0,0.0,0.0,0.0,0.0,0.0,0.0,0.0,0.0,0.0,0.0,0.0,0.0,0.0,0.0,0.0,0.0,0.0,0.0,0.0,0.0,0.0,0.0,0.0,0.0,0.4045,0.4709,0.0,0.0,0.0,0.0,0.0,0.0,0.0,0.0,0.0,0.0,0.0,0.0,0.0,0.0,0.4632,0.3607,0.1366,-0.2116,-0.2966,-0.2708,-0.1571,-0.1967,-0.2017,-0.1688,-0.15,0.0,0.2456,0.3047,0.0,0.0,0.0,0.0,0.0,0.0,0.0,0.0,0.0,0.0,0.0,0.0,0.0,0.0,0.0,0.0,0.0,0.0,0.0,0.0,0.0,-0.1544,-0.1422,-0.1407,-0.1275,-0.1173,-0.1136,-0.1097,-0.1054,-0.1009,-0.0875,-0.0651,-0.0292,0.007,0.0673,0.1495,0.1899,0.2244,0.2513,0.2405,0.2327,0.2301,0.2477,0.2431,0.2227,0.1968,0.0,0.0,0.0,0.0,0.0,0.0,0.0,0.0,0.0,0.0,0.0,0.0,0.0,0.0,0.0,0.0,0.0,0.0,0.0,0.0,0.0,0.0,0.0,0.0,0.0,0.0,0.0,0.0,0.0,0.0,0.0,0.0,0.0,0.0,0.0,0.0,0.0,0.0,0.0,0.3546,0.4061,0.4246,0.4177,0.4095,0.0,0.0,0.0,0.0,0.0,0.0,0.0,0.0,0.0,0.5533,0.4838,0.3459,0.1362,0.0435,-0.1216,-0.3592,-0.4304,-0.4132,-0.3257,-0.3639,-0.3685,-0.3515,-0.3271,-0.2296,-0.0678,0.1246,0.2381,0.2904,0.0,0.0,0.0,0.0,0.0,0.2589,0.0,0.0,0.0,0.0,0.0,0.0,0.0,0.0,0.0,0.0,0.0,0.0,-0.1669,-0.1426,-0.1274,-0.129,-0.1106,-0.0967,0.0,-0.0924,-0.0847,-0.0698,-0.0652,-0.0499,-0.0232,0.0078,0.0615,0.1408,0.1581,0.1788,0.203,0.1869,0.1801,0.1821,0.1786,0.1811,0.1838,0.1656,0.1463,0.0,0.0,0.0,0.0,0.0,0.0,0.0,0.0,0.0,0.0,0.0,0.0,0.0,0.0,0.0,0.0,0.0,0.0,0.0,0.0,0.0,0.0,0.0,0.0,0.0,0.0,0.0,0.0,0.0,0.0,0.0,0.0,0.0,0.0,0.0,0.0,0.0,0.0,0.3523,0.3738,0.3612,0.3285,0.3035,0.0,0.0,0.0,0.0,0.0,0.0,0.3839,0.2658,0.2794,0.4548,0.3147,0.1089,-0.1611,-0.2694,-0.3786,-0.4967,-0.5286,-0.5252,-0.4795,-0.4939,-0.4957,-0.4913,-0.4447,-0.397,-0.3254,-0.0576,0.0855,0.1443,0.2186,0.2377,0.2244,0.187,0.1828,0.1849,0.0,0.0,0.0,0.0,0.0,0.0,0.0,0.0,0.0,0.0,0.0,-0.1738,-0.1367,-0.1251,-0.1074,-0.0755,-0.0561,-0.0485,0.0,0.0,-0.0708,-0.0701,-0.0698,-0.0653,-0.0579,-0.0183,0.0133,0.037,0.0371,0.0438,0.0501,0.0501,0.0512,0.0489,0.0578,0.1101,0.1967,0.1717,0.1471,0.1245,0.0,0.0,0.0,0.0,0.0,0.0,0.0,0.0,0.0,0.0,0.0,0.0,0.0,0.0,0.0,0.0,0.0,0.0,0.0,0.0,0.0,0.0,0.0,0.0,0.0,0.0,0.0,0.0,0.0,0.0,0.0,0.0,0.0,0.0,0.0,0.0,0.0,0.0,0.0,0.2763,0.2151,0.0,0.0,0.0,0.0,0.1027,0.0984,0.0966,0.1091,0.0409,0.0412,0.1325,0.0411,-0.1067,-0.309,-0.5117,-0.5912,-0.5538,-0.5819,-0.5755,-0.545,-0.5659,-0.5732,-0.5631,-0.5355,-0.493,-0.4343,-0.2268,-0.0955,-0.02,0.0265,0.0463,0.0398,0.0264,0.0067,-0.0139,0.0,0.0,0.0,-0.1967,-0.1939,-0.189,-0.1782,-0.1865,-0.1861,-0.1654,-0.1594,-0.1513,0.0,-0.1047,-0.077,-0.054,-0.047,-0.0581,-0.0894,-0.0973,-0.1042,-0.1096,-0.1174,-0.1072,-0.0795,-0.0554,-0.036,-0.0204,-0.0168,-0.0177,-0.0237,-0.0332,-0.0382,-0.0387,-0.0387,-0.0191,0.0138,0.0494,0.064,0.0633,0.0511,0.0267,0.0,0.0,0.0,0.0,0.0,0.0,0.0,0.0,0.0,0.0,0.0,0.0,0.0,0.0,0.0,0.0,0.0,0.0,0.0,0.0,0.0,0.0,0.0,0.0,0.0,0.0,0.0,0.0,0.0,0.0,0.0,0.0,0.0,0.0,0.0,0.0,0.0,0.1708,0.095,0.0,0.0,-0.0611,-0.0948,-0.0828,-0.1052,-0.1266,-0.1373,-0.1793,-0.229,-0.2802,-0.2583,-0.3309,-0.5197,-0.5924,-0.6183,-0.6025,-0.611,-0.6135,-0.6029,-0.6193,-0.6261,-0.6234,-0.6041,-0.5851,-0.5491,-0.4446,-0.3176,-0.1767,-0.1625,-0.1201,-0.0777,-0.0989,-0.1151,-0.1402,-0.1924,-0.1973,0.0,-0.2033,-0.2012,-0.1952,-0.182,-0.1908,-0.1909,-0.1632,-0.1537,-0.141,-0.117,-0.0814,-0.0524,-0.0376,-0.0502,-0.071,-0.1072,-0.1188,-0.129,-0.1427,-0.1577,-0.149,-0.1208,-0.1191,-0.1115,-0.1028,-0.1148,-0.1291,-0.1408,-0.151,-0.151,-0.146,-0.1411,-0.136,-0.1253,-0.0835,-0.0427,-0.0039,0.0037,-0.0034,-0.0184,0.0,0.0,0.0,0.0,0.0,0.0,0.0,0.0,0.0,0.0,0.0,0.0,0.0,0.0,0.0,0.0,0.0,0.0,0.0,0.0,0.0,0.0,0.0,0.0,0.0,0.0,0.0,0.0,0.0,0.0,0.0,0.0,0.0,0.0,0.0,0.1138,0.0548,-0.037,-0.1218,-0.1811,-0.2485,-0.2977,-0.304,-0.3239,-0.3403,-0.3428,-0.3751,-0.4331,-0.5076,-0.4651,-0.5092,-0.6407,-0.6441,-0.6454,-0.6454,-0.6424,-0.641,-0.6413,-0.6508,-0.6549,-0.6556,-0.6486,-0.6363,-0.6201,-0.5951,-0.4934,-0.3593,-0.344,-0.2981,-0.2444,-0.2674,-0.278,-0.2982,-0.1989,-0.201,-0.202,-0.2089,-0.204,-0.1958,-0.1823,-0.2026,-0.1997,-0.1472,-0.1577,-0.1482,-0.0882,-0.0571,-0.037,-0.0308,-0.0553,-0.0821,-0.1086,-0.1238,-0.1443,-0.1721,-0.1868,-0.1888,-0.183,-0.2015,-0.2154,-0.2156,-0.2619,-0.2918,-0.3074,-0.3074,-0.2973,-0.2871,-0.2574,-0.2373,-0.217,-0.217,-0.1644,-0.076,-0.0533,-0.0447,-0.0503,0.0,0.0,0.0,0.0,0.0,0.0,0.0,0.0,0.0,0.0,0.0,0.0,0.0,0.0,0.0,0.0,0.0,0.0,0.0,0.0,0.0,0.0,0.0,0.0,0.0,0.0,0.0,0.0,0.0,0.0,0.0,0.0,0.0,0.0549,0.0281,-0.0207,-0.0775,-0.1902,-0.2953,-0.3959,-0.4629,-0.5133,-0.5555,-0.5576,-0.5434,-0.5075,-0.5362,-0.5423,-0.5235,-0.5795,-0.627,-0.6705,-0.6793,-0.6837,-0.6834,-0.6742,-0.6702,-0.6702,-0.6705,-0.6709,-0.6709,-0.6712,-0.6629,-0.6456,-0.6456,-0.6207,-0.5791,-0.5113,-0.4691,-0.4522,-0.4775,-0.4861,-0.4782,-0.1989,-0.204,-0.2079,-0.2097,-0.2079,-0.2017,-0.183,-0.1952,-0.1894,-0.1456,-0.1488,-0.1458,-0.1191,-0.0851,-0.0626,-0.0654,-0.0967,-0.1238,-0.1451,-0.1676,-0.2024,-0.2481,-0.2448,-0.2475,-0.2581,-0.2708,-0.2938,-0.3243,-0.3565,-0.3909,-0.4224,-0.4224,-0.422,-0.4167,-0.4012,-0.3908,-0.3797,-0.3576,-0.3169,-0.2618,-0.1403,-0.0791,-0.0617,0.0,0.0,0.0,0.0,0.0,0.0,0.0,0.0,0.0,0.0,0.0,0.0,0.0,0.0,0.0,0.0,0.0,0.0,0.0,0.0,0.0,0.0,0.0,0.0,0.0,0.0,0.0,0.0,0.0,0.0,0.0,0.0,-0.1647,-0.0815,-0.1001,-0.1599,-0.2439,-0.3628,-0.4672,-0.5336,-0.6217,-0.6684,-0.6643,-0.6588,-0.6452,-0.618,-0.6259,-0.6254,-0.6232,-0.6337,-0.6552,-0.68,-0.6827,-0.6807,-0.6739,-0.6712,-0.6702,-0.6705,-0.6814,-0.6865,-0.6871,-0.6973,-0.693,-0.693,-0.693,-0.6843,-0.665,-0.5852,-0.5363,-0.5199,-0.5282,-0.5339,-0.5341,-0.1979,-0.2059,-0.211,-0.214,-0.212,-0.2063,-0.1986,-0.2036,-0.1973,-0.1684,-0.1717,-0.1679,-0.1437,-0.1253,-0.1153,-0.1129,-0.1425,-0.1682,-0.188,-0.2157,-0.2495,-0.2936,-0.3083,-0.3143,-0.3173,-0.3429,-0.3726,-0.4128,-0.4287,-0.4739,-0.5328,-0.55,-0.5391,-0.5054,-0.4897,-0.4901,-0.4959,-0.4673,-0.4344,-0.388,-0.2695,-0.1743,-0.0947,-0.0695,-0.0729,-0.0998,-0.1378,-0.1799,-0.2223,-0.2639,0.0,0.0,0.0,0.0,0.0,0.0,0.0,0.0,0.0,0.0,0.0,0.0,0.0,0.0,0.0,0.0,0.0,0.0,0.0,0.0,0.0,0.0,0.0,0.0,-0.2909,-0.3209,-0.3126,-0.3019,-0.3258,-0.4244,-0.5287,-0.6293,-0.7125,-0.791,-0.8303,-0.8253,-0.8125,-0.7855,-0.7359,-0.7141,-0.6976,-0.6777,-0.6764,-0.6766,-0.6875,-0.6936,-0.6939,-0.6885,-0.6885,-0.6885,-0.6888,-0.6976,-0.7017,0.0,-0.7105,-0.7139,-0.7139,-0.7139,-0.7139,0.0,0.0,0.0,0.0,0.0,-0.6165,-0.6156,-0.1979,-0.2059,-0.212,-0.2185,-0.2142,-0.2122,-0.2196,-0.2209,-0.2174,-0.2042,-0.2102,-0.2044,-0.1725,-0.1805,-0.182,-0.1697,-0.1927,-0.2164,-0.2371,-0.2596,-0.2903,-0.3275,-0.3723,-0.391,-0.3743,-0.4186,-0.4557,-0.4831,-0.4919,-0.5429,-0.6317,-0.6663,-0.6445,-0.5819,-0.555,-0.5559,-0.5727,-0.5559,-0.5222,-0.4838,-0.4181,-0.2993,-0.1561,-0.1004,-0.0781,-0.0821,-0.1287,-0.1776,-0.229,-0.2734,0.0,0.0,0.0,0.0,0.0,0.0,0.0,0.0,0.0,0.0,0.0,0.0,0.0,0.0,0.0,0.0,0.0,0.0,0.0,0.0,0.0,0.0,0.0,0.0,-0.3987,-0.4741,-0.5877,-0.5404,-0.5237,-0.6039,-0.6891,-0.7906,-0.9073,-0.9599,-0.9871,-1.0014,-0.9865,-0.9365,-0.8493,0.0,0.0,0.0,0.0,-0.6953,-0.6953,-0.7078,-0.7139,-0.7139,-0.7139,-0.7139,-0.7139,-0.7156,-0.7166,-0.7166,-0.7183,-0.719,-0.719,-0.719,-0.719,-0.7187,-0.7153,-0.7139,-0.7139,-0.7139,-0.7139,-0.7051,-0.1999,-0.2059,-0.212,-0.2185,-0.2142,-0.2122,-0.2196,-0.2241,-0.2247,-0.2178,-0.2373,-0.2416,-0.2199,-0.2344,-0.237,-0.2168,-0.2398,-0.2697,0.0,0.0,-0.325,-0.3886,-0.4184,-0.4433,-0.4657,-0.4868,-0.5145,-0.5608,-0.5919,-0.6426,-0.7074,-0.7031,-0.7031,-0.702,-0.6588,-0.6431,-0.6485,-0.649,-0.6273,-0.5841,-0.5011,-0.3929,-0.2704,-0.188,-0.1406,-0.1245,-0.1585,-0.1952,-0.229,-0.2734,-0.2849,-0.2645,-0.2164,0.0,0.0,0.0,0.0,0.0,0.0,0.0,0.0,0.0,0.0,0.0,0.0,0.0,0.0,0.0,0.0,0.0,0.0,0.0,0.0,-0.4847,-0.5329,-0.6039,-0.7133,-0.7633,-0.7826,-0.7794,-0.8629,-0.9387,-0.9919,-1.0732,-1.1071,-1.0733,-1.0576,-1.0069,-0.9027,-0.8472,0.0,-0.7303,-0.7111,-0.7099,-0.7099,-0.7126,-0.7139,-0.7139,0.0,0.0,-0.7143,-0.7272,-0.7326,-0.7333,-0.7458,-0.7512,-0.7512,-0.7512,-0.7512,-0.7485,-0.7238,-0.7139,-0.7139,-0.7139,-0.7139,-0.7051,-0.1989,-0.2079,-0.2159,-0.2199,-0.2284,-0.2386,-0.2485,-0.2579,-0.2668,-0.2736,-0.287,-0.2902,-0.2765,-0.2954,-0.3053,-0.2971,-0.3264,0.0,0.0,-0.3543,-0.369,-0.4707,-0.5266,-0.5447,-0.5319,-0.5483,-0.5681,-0.5991,-0.6376,-0.6923,-0.7503,-0.7515,-0.7622,-0.7889,-0.7461,-0.7461,-0.7723,-0.7456,-0.6977,-0.6282,-0.5449,-0.4631,-0.3818,-0.2834,-0.2139,-0.1818,-0.2106,-0.2523,-0.2926,-0.3176,-0.3114,-0.2827,-0.2427,-0.1897,-0.1378,0.0,0.0,0.0,0.0,0.0,0.0,0.0,0.0,0.0,0.0,0.0,0.0,0.0,0.0,-0.3668,0.0,0.0,-0.4666,-0.5563,-0.6041,-0.6773,-0.7973,-0.8801,-0.9225,-0.9082,-0.9769,-1.0463,-1.1168,-1.1746,-1.2041,-1.1944,-1.1554,-1.0881,-1.0063,-0.9083,-0.8328,-0.7729,-0.7365,-0.7177,-0.7255,-0.7255,-0.7295,-0.737,-0.737,-0.737,-0.7373,-0.7451,-0.7485,-0.7489,-0.7567,-0.76,-0.76,-0.76,-0.76,-0.7584,-0.7431,-0.737,-0.737,-0.737,-0.737,-0.7279,-0.1969,-0.2077,-0.2167,-0.2177,-0.2391,-0.2612,-0.2762,-0.2927,-0.3084,-0.33,-0.3359,-0.3353,-0.3326,-0.3545,-0.3728,0.0,0.0,0.0,0.0,-0.4345,-0.4464,-0.5571,-0.6374,-0.6546,-0.6006,-0.6075,-0.6213,-0.6372,-0.6707,-0.7192,-0.7777,-0.7949,-0.8162,-0.848,-0.8215,-0.8328,-0.8752,-0.8037,-0.7235,-0.6386,-0.5668,-0.512,-0.4688,-0.3741,-0.3019,-0.2573,-0.2912,-0.3357,-0.3749,-0.3749,-0.3312,-0.269,-0.238,-0.1885,-0.1404,-0.134,-0.1297,0.0,0.0,0.0,0.0,0.0,0.0,0.0,0.0,0.0,-0.3446,-0.3892,-0.4258,-0.4622,-0.511,-0.5192,-0.5418,-0.6138,-0.653,-0.7271,-0.8646,-0.9474,-1.0059,-1.0204,-1.0725,-1.1359,-1.2165,-1.2511,-1.2746,-1.2948,-1.2404,-1.1718,-1.1042,-0.967,-0.8719,-0.8201,-0.7524,-0.7244,-0.737,-0.74,-0.7478,-0.76,-0.76,-0.76,-0.76,-0.7628,-0.7641,-0.7641,-0.7672,-0.7685,-0.7685,-0.7685,-0.7685,-0.7685,-0.7685,-0.7685,-0.7678,-0.7621,-0.76,-0.7597,-0.1932,-0.1976,-0.204,-0.2108,-0.2282,-0.2489,-0.2678,-0.2931,-0.3154,-0.3369,-0.3535,-0.3682,-0.373,-0.3912,-0.4161,-0.4457,0.0,0.0,-0.5221,-0.5481,-0.5891,-0.6439,-0.6836,-0.7018,-0.6924,-0.6745,-0.6756,-0.6972,-0.7031,-0.7408,-0.8168,-0.8268,-0.848,-0.8752,-0.8699,-0.8752,-0.8752,-0.7676,-0.681,-0.6209,-0.5727,-0.5344,-0.5014,-0.4515,-0.4128,-0.3855,-0.4184,-0.4353,-0.4408,-0.4408,-0.3461,-0.2199,-0.1703,-0.1539,-0.158,-0.1614,0.0,-0.1613,-0.1913,-0.2202,-0.2452,-0.2839,-0.3056,-0.3297,0.0,0.0,-0.4452,-0.4925,-0.5303,-0.5757,-0.6372,-0.6199,-0.6186,-0.6937,-0.7159,-0.7686,-0.908,-0.9943,-1.0697,-1.1434,-1.1736,-1.2019,-1.2433,-1.285,-1.3121,-1.3241,-1.2847,-1.2231,-1.1284,-0.9918,-0.889,-0.8197,-0.7635,-0.7353,-0.737,-0.7506,-0.7584,-0.76,-0.76,-0.76,-0.7604,-0.7729,-0.7787,-0.7794,-0.7929,-0.7991,-0.7991,-0.7991,-0.7991,-0.7991,-0.7991,-0.7991,-0.796,-0.7695,-0.76,-0.7597,-0.1911,-0.1921,-0.2026,-0.229,-0.2525,-0.278,-0.3059,-0.3357,-0.3615,-0.373,-0.3897,-0.4055,-0.4183,-0.4426,-0.4723,-0.5085,-0.5273,-0.5505,-0.5876,-0.6387,-0.6873,-0.7243,-0.7642,-0.7828,-0.7723,-0.7509,-0.7396,-0.7456,-0.7503,-0.7777,-0.8221,-0.8321,-0.8533,-0.8804,-0.8804,-0.8593,-0.8215,-0.7079,-0.6209,-0.566,-0.5504,-0.5175,-0.4842,-0.4527,-0.4385,-0.4298,-0.4463,-0.4295,0.0,0.0,-0.336,-0.2511,-0.2018,-0.1825,-0.1786,-0.1778,-0.1723,0.0,-0.2212,-0.2481,0.0,0.0,-0.3607,-0.394,-0.4362,-0.4765,-0.5145,-0.5463,-0.5778,-0.6047,-0.639,-0.6354,-0.639,0.0,-0.7376,-0.7992,-0.9135,-0.9981,-1.0738,-1.1409,-1.1781,-1.2267,-1.2824,-1.2982,-1.3159,-1.3528,-1.2729,-1.2015,-1.1327,-0.9962,-0.8877,-0.8352,-0.7791,-0.7543,-0.7628,-0.7692,-0.7767,-0.7855,-0.7855,-0.7855,-0.7858,-0.7916,-0.7943,-0.7946,-0.8011,-0.8038,-0.8038,-0.8038,-0.8038,-0.8038,-0.8038,-0.8038,-0.8024,-0.7899,-0.7855,-0.7855,-0.1879,-0.1961,-0.2166,-0.2587,-0.2923,-0.3187,-0.3401,-0.3742,-0.4014,-0.4084,-0.4219,-0.4423,-0.4675,-0.4893,-0.5154,-0.5451,-0.5621,-0.5865,-0.6298,-0.6875,-0.7364,-0.773,-0.8098,-0.8332,-0.8423,-0.8097,-0.7911,-0.7883,-0.7883,-0.7996,-0.8221,-0.8268,-0.8427,-0.8699,-0.8427,-0.8109,-0.7628,-0.6593,-0.5828,-0.5171,-0.5281,-0.5066,-0.4725,-0.4559,-0.4492,-0.4449,-0.4391,-0.4012,0.0,0.0,-0.3349,-0.2939,-0.2595,-0.2399,-0.2229,-0.216,-0.2245,-0.2434,-0.2803,0.0,0.0,-0.3909,-0.4215,-0.452,-0.5016,-0.5355,-0.5574,-0.5853,-0.6015,-0.6169,-0.6305,-0.6288,0.0,-0.6916,-0.7438,-0.8165,-0.9226,-1.0062,-1.0738,-1.1335,-1.1781,-1.228,-1.2961,-1.2923,-1.3091,-1.3497,-1.2577,-1.1785,-1.1337,-0.9901,-0.8931,-0.8623,-0.8049,-0.79,-0.8101,-0.8143,-0.8126,-0.834,-0.8137,-0.8137,-0.8137,-0.8038,-0.8038,-0.8038,-0.8038,-0.8038,-0.8038,-0.8038,-0.8038,-0.8038,-0.8038,-0.8038,-0.8038,-0.8038,-0.8038,-0.8038,-0.182,-0.2109,-0.2537,-0.2999,-0.3416,-0.3628,-0.3518,-0.3886,-0.4228,-0.4293,-0.4527,-0.4814,-0.5146,-0.5292,-0.5398,-0.5389,-0.5587,-0.589,-0.6357,-0.6771,-0.7277,-0.7852,-0.7918,-0.8279,-0.9076,-0.8283,-0.8043,-0.8374,-0.8055,-0.8008,-0.8221,-0.8008,-0.8109,-0.8368,-0.7515,-0.7139,-0.7085,-0.6445,-0.5727,-0.4952,-0.5171,-0.5117,-0.4882,-0.482,-0.4609,-0.4378,-0.4132,0.0,0.0,-0.3581,-0.3469,-0.3296,-0.3257,-0.3155,0.0,-0.3054,-0.3381,0.0,0.0,0.0,-0.4252,-0.4773,-0.4942,-0.5215,-0.5644,-0.5789,-0.5868,-0.6018,-0.6093,-0.6169,-0.6376,-0.6361,-0.6544,-0.7208,-0.7585,-0.8241,-0.9392,-1.0143,-1.0738,-1.1335,-1.1781,-1.2127,0.0,-1.2726,-1.2933,-1.306,-1.2391,-1.1777,-1.1316,-0.9889,-0.908,-0.9084,-0.8501,-0.8394,-0.8975,-0.8837,-0.8924,-0.9137,-0.8634,-0.8432,-0.8333,-0.8137,-0.8038,-0.8038,-0.8038,-0.8038,-0.8038,-0.8038,-0.8038,-0.8038,-0.8038,-0.8038,-0.8038,-0.8038,-0.8038,-0.8038,-0.1809,-0.2157,-0.2618,-0.3089,-0.3566,-0.3998,-0.4245,-0.4398,-0.4524,-0.4675,-0.4981,0.0,0.0,0.0,0.0,0.0,-0.5776,-0.5931,-0.6003,-0.6719,-0.7226,-0.7435,-0.7976,-0.8323,-0.8439,-0.8343,-0.835,-0.8415,-0.8146,-0.8086,-0.8168,-0.7628,-0.7408,-0.7515,-0.682,-0.6277,-0.5896,-0.5681,-0.521,-0.4584,-0.4916,-0.4846,-0.4561,-0.4661,-0.4583,-0.4418,0.0,0.0,-0.3679,-0.3679,-0.3703,-0.3813,-0.4117,0.0,0.0,-0.3876,0.0,-0.4509,0.0,0.0,-0.5297,-0.5588,-0.5924,-0.618,-0.6145,-0.6169,-0.6096,-0.6029,-0.5947,-0.5946,-0.6165,-0.6212,-0.6423,-0.727,-0.8041,-0.8827,-0.99,-1.0757,-1.1335,-1.1727,-1.2123,0.0,0.0,0.0,0.0,-1.2706,-1.1872,-1.1081,-1.0597,-0.957,-0.8991,-0.9072,-0.9049,-0.9335,-0.9633,-0.9788,-0.9817,-0.9727,-0.9232,-0.8935,-0.8935,-0.8435,-0.8233,-0.8237,-0.8038,-0.8038,-0.8038,-0.8038,-0.8038,-0.8038,-0.8038,-0.8038,-0.8038,-0.8038,-0.8137,-0.8233,-0.1947,-0.2336,-0.28,-0.3329,-0.3835,0.0,0.0,0.0,0.0,0.0,0.0,0.0,0.0,0.0,0.0,0.0,0.0,-0.5805,-0.5827,-0.6435,-0.6964,-0.7291,-0.7784,-0.7937,-0.7765,-0.7947,-0.8098,-0.8104,-0.7891,-0.7789,-0.7768,-0.7205,-0.6871,-0.6756,-0.5946,-0.5403,-0.5022,-0.5022,-0.4785,-0.447,-0.461,-0.4614,-0.4552,-0.4804,-0.4864,0.0,0.0,0.0,-0.4409,-0.4026,-0.42,-0.4657,0.0,0.0,0.0,0.0,-0.5518,-0.569,0.0,-0.6203,-0.6457,-0.6656,-0.6817,-0.699,-0.6767,-0.6697,-0.65,-0.618,-0.6064,-0.5956,-0.5984,-0.6127,-0.6608,-0.7494,-0.8393,-0.9387,-1.0384,-1.1118,-1.168,-1.176,-1.2166,0.0,0.0,0.0,0.0,-1.2212,-1.1536,-1.0853,-1.0171,-0.9545,-0.9362,-0.9542,-0.9849,-1.0306,-1.0806,-1.09,-1.0801,-1.0408,-1.0117,-0.9727,-0.943,-0.913,-0.8928,-0.8829,-0.8634,-0.8535,-0.8535,-0.8535,-0.8538,-0.8439,-0.8439,-0.8336,-0.8333,-0.8333,-0.8432,-0.8733,-0.2208,-0.2627,-0.3097,0.0,0.0,0.0,0.0,0.0,0.0,0.0,0.0,0.0,0.0,0.0,0.0,0.0,0.0,0.0,-0.5853,-0.6003,0.0,-0.7345,-0.7247,-0.7134,-0.7038,-0.7179,-0.7337,-0.7548,-0.7281,-0.7119,-0.7062,-0.68,-0.6483,-0.6122,-0.5039,-0.4539,-0.4525,-0.4525,-0.4525,-0.453,-0.4408,-0.4475,-0.4722,-0.5273,0.0,0.0,0.0,0.0,0.0,0.0,0.0,0.0,0.0,0.0,0.0,0.0,0.0,-0.7359,-0.756,-0.7611,-0.7712,-0.7956,-0.7812,-0.7664,-0.759,-0.7347,-0.7037,-0.6455,-0.6334,-0.6218,0.0,0.0,-0.6907,-0.7793,-0.8774,-0.9813,-1.0867,-1.1368,-1.1629,0.0,0.0,0.0,0.0,0.0,0.0,-1.1617,0.0,-1.09,-1.0204,-0.9918,-0.9917,-1.0404,-1.0703,-1.1389,-1.2467,-1.2175,-1.1878,-1.1292,-1.1292,-1.09,-1.0117,-1.0117,-0.992,-0.9727,-0.9628,-0.9628,-0.9628,-0.9628,-0.9529,-0.9232,-0.9232,-0.913,-0.8924,-0.8924,-0.9027,-0.9335,0.0,0.0,0.0,0.0,0.0,0.0,0.0,0.0,0.0,0.0,0.0,0.0,0.0,0.0,0.0,0.0,0.0,0.0,-0.5452,-0.5756,0.0,0.0,0.0,-0.6745,-0.5921,-0.6484,-0.6717,0.0,-0.668,-0.6681,-0.6642,-0.6241,-0.6038,-0.6047,-0.5351,-0.4952,-0.4879,-0.4879,-0.4879,-0.4861,0.0,-0.4644,-0.4455,0.0,0.0,0.0,0.0,0.0,0.0,0.0,0.0,0.0,0.0,0.0,-0.7713,0.0,0.0,-0.8821,-0.8884,-0.922,-0.9466,-0.9218,-0.9114,-0.8827,-0.8249,-0.7681,-0.7248,-0.6775,-0.6455,-0.6292,-0.6431,0.0,0.0,-0.862,-0.9361,0.0,-1.1775,-1.2208,0.0,0.0,0.0,-1.2246,-1.1927,-1.2001,0.0,0.0,-1.1189,-1.0879,-1.0315,-1.0278,-1.0491,-1.0993,-1.178,-1.2554,-1.3227,-1.3323,-1.3323,-1.3227,-1.264,-1.2247,-1.1955,-1.1287,-1.0904,-1.0806,-1.0413,-1.0216,-1.0216,-1.0216,-1.0117,-1.0117,-1.0117,-1.0019,-1.0015,-1.0015,-1.0113,-1.0413,0.0,0.0,0.0,0.0,0.0,0.0,0.0,0.0,0.0,0.0,0.0,0.0,0.0,0.0,0.0,0.0,0.0,0.0,0.0,0.0,0.0,0.0,0.0,-0.6063,-0.5335,-0.58,-0.5974,0.0,0.0,0.0,-0.5807,-0.5538,-0.5509,-0.5624,-0.5295,-0.5043,-0.4901,-0.4901,0.0,0.0,0.0,0.0,0.0,0.0,0.0,0.0,0.0,0.0,0.0,0.0,0.0,-0.8599,-0.8132,-0.8332,-0.8813,-0.9162,0.0,-0.9872,-1.0031,-1.0305,-1.0497,-1.0136,-0.9991,-0.9686,-0.8884,-0.8379,-0.7861,-0.7233,-0.6905,0.0,-0.6834,0.0,0.0,0.0,0.0,0.0,-1.2008,-1.2401,-1.2575,0.0,-1.2463,0.0,-1.1771,-1.1785,-1.1764,0.0,-1.1256,-1.0925,-1.0596,-1.0875,-1.1264,-1.1873,-1.2748,-1.3522,-1.4202,-1.4484,-1.4484,-1.4292,-1.3806,-1.3414,-1.3216,-1.2646,-1.2355,-1.216,0.0,-1.177,-1.177,-1.177,-1.1575,-1.1375,-1.1375,-1.1287,-1.1096,-1.1096,-1.1292,-1.1585,0.0,0.0,0.0,0.0,0.0,0.0,0.0,0.0,0.0,0.0,0.0,0.0,0.0,0.0,0.0,0.0,0.0,0.0,0.0,0.0,0.0,0.0,-0.5296,-0.5302,-0.5005,0.0,0.0,0.0,0.0,0.0,0.0,0.0,0.0,0.0,0.0,0.0,0.0,0.0,0.0,0.0,0.0,0.0,0.0,0.0,0.0,0.0,0.0,0.0,0.0,0.0,-0.8604,-0.9426,-0.9045,-0.9272,-0.98,-1.02,-1.036,-1.0516,-1.0969,-1.1078,-1.1122,-1.0875,-1.0593,-1.0213,-0.9426,-0.9029,-0.8566,-0.7637,0.0,-0.7297,-0.7138,0.0,-0.7966,-0.9028,0.0,-1.0886,-1.191,-1.2355,-1.2484,-1.236,-1.2313,-1.1971,-1.1378,-1.1405,-1.1538,-1.1582,-1.1411,-1.122,-1.113,-1.1584,-1.217,-1.2948,-1.3715,-1.449,-1.5178,-1.5452,-1.535,-1.4879,-1.4783,-1.4586,-1.4094,-1.4004,-1.3908,-1.3709,0.0,0.0,-1.3607,-1.3607,-1.3318,-1.2926,-1.2926,-1.264,-1.2268,-1.2268,-1.2462,-1.2662,0.0,0.0,0.0,0.0,0.0,0.0,0.0,0.0,0.0,0.0,0.0,0.0,0.0,0.0,0.0,0.0,0.0,0.0,0.0,0.0,0.0,0.0,-0.4963,-0.4859,0.0,0.0,0.0,0.0,0.0,0.0,0.0,0.0,0.0,0.0,0.0,0.0,0.0,0.0,0.0,0.0,0.0,0.0,0.0,0.0,0.0,0.0,0.0,0.0,0.0,0.0,-0.8023,-0.8597,-0.9305,-0.9606,-0.98,-1.0388,-1.0836,-1.1242,-1.1325,-1.1715,-1.1945,-1.1566,-1.1019,-1.0444,-0.9744,-0.8913,0.0,0.0,0.0,-0.7175,-0.7237,-0.7492,0.0,-0.8901,0.0,0.0,0.0,0.0,-1.2245,0.0,0.0,0.0,0.0,0.0,0.0,0.0,0.0,0.0,-1.2119,-1.2543,-1.3437,-1.4598,-1.5064,-1.535,-1.5642,-1.5737,-1.573,-1.5642,-1.5452,-1.535,-1.5255,-1.4777,-1.4496,-1.4496,0.0,0.0,-1.4196,-1.4196,-1.41,-1.4004,-1.4004,-1.4004,-1.3908,-1.3908,-1.3908,-1.401,0.0,0.0,0.0,0.0,0.0,0.0,0.0,0.0,0.0,0.0,0.0,0.0,0.0,0.0,0.0,0.0,0.0,0.0,0.0,0.0,0.0,0.0,0.0,0.0,0.0,0.0,0.0,0.0,0.0,0.0,0.0,0.0,0.0,0.0,0.0,0.0,0.0,0.0,0.0,0.0,0.0,0.0,0.0,0.0,0.0,0.0,0.0,0.0,0.0,0.0,-0.7435,-0.7816,-0.9058,-0.9608,-0.988,-1.0309,-1.0778,-1.1188,-1.1477,-1.1827,-1.2051,-1.1609,-1.1174,-1.0601,-0.9678,0.0,0.0,0.0,0.0,-0.709,-0.7141,0.0,0.0,0.0,0.0,0.0,0.0,0.0,0.0,0.0,0.0,0.0,0.0,0.0,0.0,0.0,0.0,0.0,-1.2759,-1.363,-1.4502,-1.5261,-1.5547,-1.573,-1.5832,-1.5832,-1.5832,-1.5832,-1.573,-1.5642,-1.5635,-1.5356,-1.5261,-1.5261,-1.5159,0.0,-1.5064,-1.5064,-1.5064,-1.4968,-1.4968,-1.4873,-1.4694,-1.4694,-1.4694,-1.4688,0.0,0.0,0.0,0.0,0.0,0.0,0.0,0.0,0.0,0.0,0.0,0.0,0.0,0.0,0.0,0.0,0.0,0.0,0.0,0.0,0.0,0.0,0.0,0.0,0.0,0.0,0.0,0.0,0.0,0.0,0.0,0.0,0.0,0.0,0.0,0.0,0.0,0.0,0.0,0.0,0.0,0.0,0.0,0.0,0.0,0.0,0.0,0.0,0.0,0.0,-0.6962,-0.7241,-0.847,-0.92,-0.9682,-1.003,-1.0379,-1.0772,-1.1185,-1.1513,-1.1644,-1.1335,-1.0982,-1.0471,-0.9365,-0.8758,0.0,0.0,-0.6886,-0.6819,-0.6914,0.0,0.0,0.0,0.0,0.0,0.0,0.0,0.0,0.0,0.0,0.0,0.0,0.0,0.0,0.0,0.0,0.0,0.0,-1.4592,-1.5267,-1.554,-1.5737,-1.5832,-1.5832,-1.5832,-1.5832,-1.5832,-1.5832,-1.5832,-1.5832,-1.5832,-1.5832,-1.5832,-1.5832,0.0,0.0,-1.5832,-1.573,-1.554,-1.554,-1.5452,-1.5274,-1.5274,-1.5274,-1.5274,0.0,0.0,0.0,0.0,0.0,0.0,0.0,0.0,0.0,0.0,0.0,0.0,0.0,0.0,0.0,0.0,0.0,0.0,0.0,0.0,0.0,0.0,0.0,0.0,0.0,0.0,0.0,0.0,0.0,0.0,0.0,0.0,0.0,0.0,0.0,0.0,0.0,0.0,0.0,0.0,0.0,0.0,0.0,0.0,0.0,0.0,0.0,0.0,0.0,0.0,0.0,-0.7242,-0.765,-0.8174,-0.8854,-0.9496,0.0,0.0,-1.0361,-1.0596,-1.0817,-1.0685,-1.023,-0.9618,-0.8984,0.0,0.0,-0.695,-0.6454,-0.6212,-0.658,-0.6867,0.0,0.0,0.0,0.0,0.0,0.0,0.0,0.0,0.0,0.0,0.0,0.0,0.0,0.0,0.0,0.0,0.0,-1.5166,-1.554,-1.5737,-1.5825,-1.5832,-1.5832,-1.5832,-1.5832,-1.5832,-1.5832,-1.5832,-1.5832,-1.5832,-1.5832,-1.5832,0.0,0.0,0.0,-1.5832,-1.5825,-1.5737,-1.5737,-1.5737,-1.5737,-1.5737,-1.5737,-1.5737,0.0,0.0,0.0,0.0,0.0,0.0,0.0,0.0,0.0,0.0,0.0,0.0,0.0,0.0,0.0,0.0,0.0,0.0,0.0,0.0,0.0,0.0,0.0,0.0,0.0,0.0,0.0,0.0,0.0,0.0,0.0,0.0,0.0,0.0,0.0,0.0,0.0,0.0,0.0,0.0,0.0,0.0,0.0,0.0,0.0,0.0,0.0,0.0,0.0,0.0,0.0,0.0,-0.6922,-0.7227,0.0,0.0,-0.9005,-0.9379,-0.9532,-0.9814,-1.0008,-1.0054,-0.9608,-0.9077,-0.8417,0.0,-0.6774,-0.6287,-0.606,-0.6006,-0.6199,-0.6673,-0.7178,-0.7782,-0.8424,-0.9112,0.0,0.0,0.0,0.0,0.0,0.0,0.0,0.0,0.0,0.0,0.0,0.0,0.0,-1.5547,-1.5737,-1.5832,-1.5832,-1.5832,-1.5832,-1.5832,-1.5832,-1.5832,-1.5832,-1.5832,-1.5832,-1.5832,-1.5832,-1.5832,0.0,0.0,0.0,-1.5832,-1.5832,-1.5832,-1.5832,-1.5832,-1.5832,-1.5832,-1.5832,-1.5832,0.0,0.0,0.0,0.0,0.0,0.0,0.0,0.0,0.0,0.0,0.0,0.0,0.0,0.0,0.0,0.0,0.0,0.0,0.0,0.0,0.0,0.0,0.0,0.0,0.0,0.0,0.0,0.0,0.0,0.0,0.0,0.0,0.0,0.0,0.0,0.0,0.0,0.0,0.0,0.0,0.0,0.0,0.0,0.0,0.0,0.0,0.0,0.0,0.0,0.0,0.0,0.0,0.0,0.0,0.0,0.0,-0.8193,-0.85,-0.8656,-0.8788,-0.8964,-0.9062,-0.8663,-0.8176,0.0,0.0,-0.6261,-0.5716,-0.5646,-0.5798,-0.5968,-0.6488,-0.7121,-0.7769,-0.8277,-0.8884,-0.9853,0.0,0.0,0.0,0.0,0.0,0.0,0.0,0.0,0.0,0.0,0.0,0.0,-1.5832,-1.5927,-1.5832,-1.5832,-1.5832,-1.5832,-1.5832,-1.5832,-1.5832,-1.5832,-1.5832,-1.5832,-1.5832,-1.5832,-1.5832,0.0,0.0,0.0,-1.5832,-1.5832,-1.5832,-1.5832,-1.5832,-1.5832,-1.5832,-1.5832,-1.5832,0.0,0.0,0.0,0.0,0.0,0.0,0.0,0.0,0.0,0.0,0.0,0.0,0.0,0.0,0.0,0.0,0.0,0.0,0.0,0.0,0.0,0.0,0.0,0.0,0.0,0.0,0.0,0.0,0.0,0.0,0.0,0.0,0.0,0.0,0.0,0.0,0.0,0.0,0.0,0.0,0.0,0.0,0.0,0.0,0.0,0.0,0.0,0.0,0.0,0.0,0.0,0.0,0.0,-0.6206,-0.6546,0.0,-0.739,-0.7373,-0.7654,-0.7553,-0.7446,-0.7484,-0.7255,-0.6971,0.0,-0.6091,-0.554,-0.5329,-0.5306,-0.5449,-0.5922,-0.6323,-0.6887,-0.7736,-0.7888,-0.835,-0.9526,0.0,0.0,0.0,0.0,0.0,0.0,0.0,0.0,0.0,0.0,0.0,0.0,0.0,-1.6028,-1.5832,-1.5832,-1.5832,-1.5832,-1.5832,-1.5832,-1.5832,-1.5832,-1.5832,-1.5832,-1.5832,-1.5832,0.0,0.0,0.0,0.0,-1.5832,-1.5832,-1.5832,-1.5832,-1.5832,-1.5832,-1.5832,-1.5832,-1.5832,0.0,0.0,0.0,0.0,0.0,0.0,0.0,0.0,0.0,0.0,0.0,0.0,0.0,0.0,0.0,0.0,0.0,0.0,0.0,0.0,0.0,0.0,0.0,0.0,0.0,0.0,0.0,0.0,0.0,0.0,0.0,0.0,0.0,0.0,0.0,0.0,0.0,0.0,0.0,0.0,0.0,0.0,0.0,0.0,0.0,0.0,0.0,0.0,0.0,0.0,0.0,0.0,0.0,0.0,0.0,-0.6082,-0.6498,-0.685,-0.6869,-0.6754,-0.6553,-0.6559,-0.6308,-0.6034,-0.5861,-0.5444,-0.5055,-0.5023,-0.5265,-0.5602,-0.5881,-0.6435,-0.7114,-0.7769,-0.7882,0.0,0.0,0.0,0.0,0.0,0.0,0.0,0.0,0.0,0.0,0.0,0.0,0.0,0.0,0.0,-1.6218,-1.6305,-1.6211,-1.6028,-1.6028,-1.5927,-1.5832,-1.5832,-1.5832,-1.5832,-1.5832,-1.5832,0.0,0.0,0.0,0.0,0.0,-1.5832,-1.5832,-1.5832,-1.5832,-1.5832,-1.5832,-1.5832,-1.5832,-1.5832,0.0,0.0,0.0,0.0,0.0,0.0,0.0,0.0,0.0,0.0,0.0,0.0,0.0,0.0,0.0,0.0,0.0,0.0,0.0,0.0,0.0,0.0,0.0,0.0,0.0,0.0,-0.3488,-0.3743,-0.3866,0.0,0.0,0.0,0.0,0.0,0.0,0.0,0.0,0.0,0.0,0.0,0.0,0.0,-0.5063,0.0,0.0,0.0,0.0,0.0,0.0,0.0,0.0,0.0,0.0,0.0,0.0,0.0,-0.5602,-0.5886,-0.5986,-0.5858,-0.5622,-0.5546,-0.5312,-0.5088,-0.5065,-0.4856,-0.468,-0.4793,-0.5259,-0.5745,-0.59,-0.6646,-0.7348,-0.7802,-0.8068,0.0,0.0,0.0,0.0,0.0,0.0,0.0,0.0,0.0,0.0,0.0,0.0,0.0,0.0,0.0,-1.6153,-1.6515,-1.6376,-1.6312,-1.6312,-1.6211,-1.6116,-1.6116,-1.6116,-1.6116,-1.6116,-1.6211,0.0,0.0,0.0,0.0,0.0,-1.5927,-1.5927,-1.5832,-1.5832,-1.5832,-1.5832,-1.5832,-1.5832,-1.5832,0.0,0.0,0.0,0.0,0.0,0.0,0.0,0.0,0.0,0.0,0.0,0.0,0.0,0.0,0.0,0.0,0.0,0.0,0.0,0.0,0.0,0.0,0.0,0.0,0.0,-0.3379,-0.3348,-0.35,-0.3792,-0.3946,-0.402,-0.4524,0.0,0.0,0.0,0.0,0.0,0.0,0.0,0.0,0.0,-0.437,0.0,0.0,0.0,0.0,0.0,0.0,0.0,0.0,0.0,0.0,0.0,0.0,0.0,0.0,0.0,0.0,0.0,-0.4909,-0.4741,-0.4513,-0.4337,-0.4299,-0.4343,-0.4383,0.0,-0.4641,-0.5293,-0.585,-0.5981,-0.6839,-0.7569,-0.7835,0.0,0.0,0.0,0.0,0.0,0.0,0.0,0.0,0.0,0.0,0.0,0.0,0.0,0.0,0.0,0.0,0.0,-1.6367,-1.6494,-1.6626,-1.6648,-1.6669,-1.6676,-1.6676,-1.6676,-1.6676,-1.6676,-1.6972,0.0,0.0,0.0,0.0,0.0,-1.6319,-1.6123,-1.5927,-1.5927,-1.592,-1.5927,-1.5927,-1.5832,-1.5832,0.0,0.0,0.0,0.0,0.0,0.0,0.0,0.0,0.0,0.0,0.0,0.0,0.0,0.0,0.0,0.0,0.0,0.0,0.0,0.0,0.0,0.0,0.0,0.0,0.0,-0.3117,-0.3163,-0.3488,-0.344,-0.3572,-0.3945,-0.4279,-0.4174,-0.376,0.0,0.0,0.0,0.0,0.0,0.0,-0.4145,-0.4084,0.0,0.0,0.0,0.0,-0.3922,-0.397,0.0,0.0,0.0,0.0,0.0,0.0,0.0,0.0,-0.4003,-0.3967,-0.3803,0.0,-0.4466,-0.4083,-0.3933,-0.3902,0.0,-0.4022,-0.4168,-0.4473,-0.5221,-0.585,-0.5981,-0.6839,-0.7569,0.0,0.0,0.0,0.0,0.0,0.0,0.0,0.0,0.0,0.0,0.0,0.0,0.0,0.0,0.0,0.0,0.0,0.0,-1.6116,-1.6431,-1.6718,-1.6875,-1.7022,-1.7145,-1.7145,-1.7145,-1.7232,-1.7412,-1.7512,0.0,0.0,0.0,0.0,-1.7326,-1.7145,-1.6958,-1.6951,-1.6951,-1.6864,-1.669,-1.669,-1.6501,-1.6123,0.0,0.0,0.0,0.0,0.0,0.0,0.0,0.0,0.0,0.0,0.0,0.0,0.0,0.0,0.0,0.0,0.0,0.0,0.0,0.0,0.0,0.0,0.0,0.0,0.0,-0.2896,-0.2905,-0.3218,-0.3104,-0.3283,-0.3723,-0.3988,-0.4082,-0.3979,-0.3878,0.0,0.0,0.0,0.0,0.0,-0.4022,0.0,0.0,0.0,0.0,0.0,-0.3478,-0.3396,0.0,-0.3232,-0.3297,-0.3396,0.0,0.0,0.0,0.0,-0.3426,-0.344,-0.3282,-0.3647,-0.4022,-0.3707,-0.3647,-0.3723,-0.3806,-0.408,-0.4412,0.0,0.0,0.0,0.0,0.0,0.0,0.0,0.0,0.0,0.0,0.0,0.0,0.0,0.0,0.0,0.0,0.0,0.0,0.0,0.0,0.0,0.0,0.0,0.0,0.0,-1.65,-1.7072,-1.7387,-1.7743,-1.8003,-1.8164,-1.8249,-1.8342,-1.8434,-1.8711,0.0,0.0,0.0,0.0,-1.8149,-1.8056,-1.7878,-1.7707,-1.7707,-1.7621,-1.7535,-1.734,-1.7153,-1.6864,0.0,0.0,0.0,0.0,0.0,0.0,0.0,0.0,0.0,0.0,0.0,0.0,0.0,0.0,0.0,0.0,0.0,0.0,0.0,0.0,0.0,0.0,0.0,0.0,-0.2955,-0.2692,-0.266,-0.2864,-0.2864,-0.3055,-0.3467,-0.3728,-0.4028,-0.4292,-0.4063,0.0,0.0,0.0,0.0,0.0,0.0,0.0,0.0,0.0,0.0,0.0,0.0,0.0,0.0,-0.2512,-0.2535,-0.2596,-0.2596,0.0,0.0,0.0,0.0,0.0,-0.3054,-0.3314,-0.3529,-0.3505,-0.357,-0.3707,-0.3895,0.0,0.0,0.0,0.0,0.0,0.0,0.0,0.0,0.0,0.0,0.0,0.0,0.0,0.0,0.0,0.0,0.0,0.0,0.0,0.0,0.0,0.0,0.0,0.0,0.0,0.0,0.0,-1.6491,-1.7461,-1.8112,-1.858,-1.8979,-1.9298,-1.9513,-1.9629,-1.9463,-2.0192,-2.0283,0.0,0.0,0.0,-1.9155,-1.9155,-1.8896,-1.8542,-1.8542,-1.8542,-1.845,-1.8156,-1.7963,-1.7878,0.0,0.0,0.0,0.0,0.0,0.0,0.0,0.0,0.0,0.0,0.0,0.0,0.0,0.0,0.0,0.0,0.0,0.0,0.0,0.0,0.0,0.0,0.0,-0.2864,-0.267,-0.2459,-0.2476,-0.2731,-0.2731,-0.2917,-0.3241,-0.3536,-0.3883,-0.4279,-0.3918,-0.3856,0.0,0.0,0.0,0.0,0.0,0.0,0.0,0.0,0.0,0.0,0.0,0.0,0.0,-0.2376,-0.2267,-0.2185,-0.2185,0.0,0.0,0.0,0.0,0.0,-0.2459,-0.2885,-0.3431,-0.3733,-0.3871,-0.4049,-0.441,-0.4638,0.0,0.0,0.0,0.0,0.0,0.0,0.0,0.0,0.0,0.0,0.0,0.0,0.0,0.0,0.0,0.0,0.0,0.0,0.0,0.0,0.0,0.0,0.0,0.0,0.0,0.0,0.0,-1.7391,-1.8733,-1.9228,-1.9584,-1.9652,-2.0219,-2.0538,-2.0727,-2.1087,-2.1275,0.0,0.0,-2.1177,-2.0988,-2.0718,-2.0628,-2.0538,-2.0538,-2.0275,-1.992,-1.992,-1.9355,-1.8611,0.0,0.0,0.0,0.0,0.0,0.0,0.0,0.0,0.0,0.0,0.0,0.0,0.0,0.0,0.0,0.0,0.0,0.0,0.0,0.0,0.0,0.0,-0.2794,-0.2637,-0.2437,-0.2412,-0.2531,-0.2754,-0.2793,-0.301,-0.3438,-0.3793,-0.4063,-0.4183,-0.4066,-0.4024,-0.4055,0.0,0.0,0.0,0.0,0.0,0.0,0.0,0.0,0.0,0.0,0.0,0.0,0.0,-0.2026,-0.1942,-0.1942,0.0,0.0,0.0,0.0,0.0,-0.2384,-0.2794,-0.3374,-0.4043,-0.4268,-0.4449,-0.4893,-0.538,0.0,0.0,0.0,0.0,0.0,0.0,0.0,0.0,0.0,0.0,0.0,0.0,0.0,0.0,0.0,0.0,0.0,0.0,0.0,0.0,0.0,0.0,0.0,0.0,0.0,0.0,0.0,-1.7921,-1.8931,-1.9758,-2.0247,-2.0282,-2.073,-2.0898,-2.0889,-2.1553,-2.1761,-2.178,0.0,-2.1989,-2.1731,-2.1633,-2.1544,-2.1365,-2.1365,-2.1275,-2.1015,-2.0916,-2.0538,-1.9985,0.0,0.0,0.0,0.0,0.0,0.0,0.0,0.0,0.0,0.0,0.0,0.0,0.0,0.0,0.0,0.0,0.0,0.0,0.0,0.0,-0.3175,-0.2923,-0.2734,-0.2558,-0.2422,-0.2526,-0.269,-0.2952,-0.3012,-0.3216,-0.3635,-0.4344,-0.4495,-0.4207,-0.4292,-0.4268,-0.4117,-0.4042,-0.3988,-0.396,0.0,0.0,0.0,0.0,0.0,0.0,0.0,0.0,0.0,0.0,0.0,0.0,0.0,0.0,0.0,-0.1803,-0.1974,-0.2187,-0.2393,-0.2764,-0.3335,-0.4211,-0.4554,-0.4849,-0.5515,-0.6213,-0.6919,0.0,0.0,0.0,0.0,0.0,0.0,0.0,0.0,0.0,0.0,0.0,0.0,0.0,0.0,0.0,0.0,0.0,0.0,0.0,0.0,0.0,0.0,0.0,0.0,0.0,0.0,-1.8416,-1.9161,-2.0024,-2.0633,-2.0791,-2.107,-2.1117,-2.1024,-2.1786,-2.2034,-2.1873,-2.2371,-2.2418,-2.2079,-2.2174,-2.2036,-2.1868,-2.1961,-2.1998,-2.1909,-2.1633,-2.1445,-2.1266,0.0,0.0,0.0,0.0,0.0,0.0,0.0,0.0,0.0,0.0,0.0,0.0,0.0,0.0,0.0,0.0,0.0,0.0,0.0,0.0,-0.3138,-0.2998,-0.2805,-0.271,-0.2769,-0.2763,-0.2991,-0.3457,-0.3404,-0.3463,-0.3737,-0.5074,-0.5245,-0.447,-0.4494,-0.4366,0.0,-0.405,-0.396,-0.389,-0.3696,0.0,0.0,0.0,0.0,0.0,0.0,0.0,0.0,0.0,0.0,0.0,0.0,0.0,-0.1803,-0.1803,-0.1896,-0.2033,-0.2184,-0.2641,-0.3283,-0.4026,-0.4505,-0.5144,-0.6477,-0.6993,0.0,-0.8591,0.0,0.0,0.0,0.0,0.0,0.0,0.0,0.0,0.0,0.0,0.0,0.0,0.0,0.0,0.0,0.0,0.0,0.0,0.0,0.0,0.0,0.0,0.0,0.0,0.0,-1.8665,-1.9566,-2.0058,-2.0445,-2.0623,-2.1186,-2.146,-2.146,-2.1748,-2.1934,-2.1934,-2.1963,-2.1973,-2.1919,-2.2318,-2.2473,-2.2512,-2.2814,-2.2882,-2.2715,-2.2185,-2.2008,-2.2008,0.0,0.0,0.0,0.0,0.0,0.0,0.0,0.0,0.0,0.0,0.0,0.0,0.0,0.0,0.0,0.0,0.0,0.0,0.0,0.0,-0.3351,-0.3309,-0.3196,-0.3251,-0.3471,-0.3352,-0.343,-0.3694,-0.409,-0.4423,-0.4686,-0.4885,-0.4884,-0.4684,-0.4475,0.0,0.0,0.0,-0.3931,-0.389,-0.3675,-0.3507,0.0,0.0,0.0,0.0,0.0,0.0,0.0,0.0,-0.1825,-0.1803,-0.1803,-0.1803,-0.1803,-0.1803,-0.1957,-0.2137,-0.2194,-0.2697,-0.3432,-0.429,-0.4951,0.0,0.0,-0.7845,-0.8607,-0.9575,-0.9939,0.0,0.0,0.0,0.0,0.0,0.0,0.0,0.0,0.0,0.0,0.0,0.0,0.0,0.0,0.0,0.0,0.0,0.0,0.0,0.0,0.0,0.0,0.0,0.0,-1.9301,-2.0029,-2.0342,-2.0488,-2.0574,-2.0818,-2.0905,-2.0985,-2.1267,-2.1484,-2.1494,-2.1768,-2.1885,-2.1894,-2.206,-2.2129,-2.2168,-2.2588,-2.2668,-2.2611,-2.2698,-2.2706,-2.2706,0.0,0.0,0.0,0.0,0.0,0.0,0.0,0.0,0.0,0.0,0.0,0.0,0.0,0.0,0.0,0.0,0.0,0.0,0.0,0.0,-0.3584,-0.3626,-0.3556,-0.365,-0.3906,-0.3873,-0.3875,-0.3953,-0.44,-0.4704,-0.4878,-0.4555,-0.4504,-0.4673,-0.4403,0.0,0.0,0.0,-0.3869,-0.3828,-0.364,-0.3493,0.0,0.0,0.0,0.0,0.0,0.0,0.0,0.0,-0.1894,-0.1894,-0.1894,-0.1894,-0.1905,-0.1975,-0.21,-0.2276,-0.2423,-0.2981,-0.3723,-0.4644,0.0,0.0,-0.7627,-0.8556,-0.944,-1.0314,-1.0704,0.0,0.0,0.0,0.0,0.0,0.0,0.0,0.0,0.0,0.0,0.0,0.0,0.0,0.0,0.0,0.0,0.0,0.0,0.0,0.0,0.0,0.0,0.0,0.0,0.0,-2.0264,-2.0489,-2.0566,-2.0566,-2.0566,-2.0566,-2.0576,-2.0889,-2.1025,-2.1045,-2.1338,-2.1465,-2.1475,-2.1621,-2.1768,-2.1914,-2.2207,-2.2393,-2.2549,-2.2832,-2.3027,-2.3135,0.0,0.0,0.0,0.0,0.0,0.0,0.0,0.0,0.0,0.0,0.0,0.0,0.0,0.0,0.0,0.0,0.0,0.0,0.0,-0.371,-0.3765,-0.389,-0.3841,-0.3834,-0.3911,-0.423,-0.4364,-0.431,-0.4234,-0.4125,-0.4009,-0.4125,-0.4268,-0.4391,-0.4248,0.0,0.0,-0.3973,-0.3828,-0.3689,-0.3548,-0.3428,-0.3278,0.0,0.0,0.0,0.0,0.0,0.0,0.0,-0.21,-0.21,-0.21,-0.21,-0.2136,-0.2351,-0.2355,-0.2418,-0.2964,-0.3508,-0.4121,0.0,0.0,0.0,-0.8561,-0.9191,-0.9792,-1.0817,0.0,-1.143,0.0,0.0,0.0,0.0,0.0,0.0,0.0,0.0,0.0,0.0,0.0,0.0,0.0,0.0,0.0,0.0,0.0,0.0,0.0,0.0,0.0,0.0,0.0,0.0,-2.0264,-2.0489,-2.0566,-2.0566,-2.0566,-2.0566,-2.0566,-2.0566,-2.0566,-2.0566,-2.0566,-2.0566,-2.0596,-2.1045,-2.1484,-2.1875,-2.1875,-2.2139,-2.25,-2.251,-2.2773,-2.3125,0.0,0.0,0.0,0.0,0.0,0.0,0.0,0.0,0.0,0.0,0.0,0.0,0.0,0.0,0.0,0.0,0.0,0.0,0.0,-0.3786,-0.3911,-0.4104,-0.4232,-0.4333,-0.4382,-0.4491,-0.4526,-0.4519,-0.4533,-0.4342,-0.3931,-0.4125,-0.4228,-0.4248,-0.4125,-0.4071,-0.4042,-0.3786,-0.364,-0.3541,-0.3408,-0.333,-0.3278,0.0,0.0,0.0,0.0,0.0,0.0,0.0,0.0,0.0,-0.2245,-0.2245,-0.2284,-0.2535,-0.2755,-0.3009,-0.3351,-0.4029,0.0,-0.5465,0.0,0.0,0.0,-0.9735,0.0,0.0,0.0,0.0,0.0,0.0,0.0,0.0,0.0,0.0,0.0,0.0,0.0,0.0,0.0,0.0,0.0,0.0,0.0,0.0,0.0,0.0,0.0,0.0,0.0,0.0,0.0,0.0,-2.0489,-2.0566,-2.0566,-2.0566,-2.0566,-2.0566,-2.0566,-2.0566,-2.0566,-2.0566,-2.0566,-2.0566,-2.0576,-2.0713,-2.084,-2.0986,-2.1309,-2.1504,-2.165,-2.1953,-2.2148,-2.2256,0.0,0.0,0.0,0.0,0.0,0.0,0.0,0.0,0.0,0.0,0.0,-0.1909,0.0,0.0,0.0,0.0,0.0,0.0,0.0,0.0,-0.4014,-0.4268,-0.4443,-0.4584,-0.4673,-0.4644,-0.4636,-0.4598,-0.4538,-0.4318,-0.3986,-0.4055,-0.4084,-0.4084,-0.3967,-0.3926,0.0,0.0,-0.352,-0.3457,-0.3351,-0.3266,-0.3208,0.0,0.0,0.0,0.0,0.0,0.0,0.0,0.0,0.0,-0.2567,-0.2589,-0.2648,-0.3028,-0.3289,-0.3583,-0.401,-0.4685,0.0,0.0,0.0,0.0,-0.9551,0.0,0.0,0.0,0.0,0.0,0.0,0.0,0.0,0.0,0.0,0.0,0.0,0.0,0.0,0.0,0.0,0.0,0.0,0.0,0.0,0.0,0.0,0.0,0.0,0.0,0.0,0.0,0.0,0.0,-2.0059,-2.0225,-2.0303,-2.0312,-2.0478,-2.0566,-2.0566,-2.0566,-2.0566,-2.0566,-2.0566,-2.0566,-2.0566,-2.0566,-2.0566,-2.0596,-2.0859,-2.1074,-2.126,-2.1533,-2.1738,-2.1885,0.0,0.0,-0.1858,-0.1788,0.0,0.0,0.0,0.0,0.0,-0.1593,-0.1534,-0.1621,0.0,0.0,0.0,-0.2523,0.0,0.0,0.0,0.0,-0.4004,-0.4362,-0.4524,-0.4673,-0.4812,-0.4735,-0.4675,-0.4613,-0.433,-0.4158,-0.4089,-0.3973,-0.389,-0.3869,-0.38,-0.3787,0.0,0.0,-0.3436,-0.3372,-0.3294,-0.3187,-0.3068,-0.3019,0.0,0.0,0.0,0.0,0.0,0.0,0.0,0.0,-0.2998,-0.3019,-0.3139,-0.3666,-0.3901,-0.4117,-0.4833,0.0,0.0,0.0,0.0,0.0,0.0,0.0,0.0,0.0,0.0,0.0,0.0,0.0,0.0,0.0,0.0,0.0,0.0,0.0,0.0,0.0,0.0,0.0,0.0,0.0,0.0,0.0,0.0,0.0,0.0,0.0,0.0,0.0,0.0,0.0,-1.9287,-1.9668,-1.9853,0.0,-2.0264,-2.0449,-2.0449,-2.0527,-2.0566,-2.0566,-2.0566,-2.0566,-2.0566,-2.0566,-2.0566,-2.0566,-2.0566,-2.081,-2.1172,-2.1172,-2.1426,-2.1768,0.0,0.0,-0.1708,-0.1581,0.0,0.0,0.0,0.0,-0.1523,-0.1523,-0.1513,-0.153,-0.1599,-0.1859,0.0,-0.2201,-0.251,0.0,0.0,0.0,-0.3713,-0.4142,-0.4495,-0.4755,-0.4951,-0.4794,-0.4675,-0.4613,-0.4382,-0.4199,-0.4022,-0.3931,-0.3848,-0.3751,-0.3612,-0.3569,0.0,0.0,-0.3251,-0.3229,-0.3058,-0.2972,-0.295,-0.2923,-0.2907,0.0,0.0,0.0,0.0,0.0,0.0,0.0,-0.3232,-0.3232,-0.3337,-0.3872,-0.4315,-0.4766,0.0,-0.6278,0.0,0.0,0.0,0.0,0.0,0.0,0.0,0.0,0.0,0.0,0.0,0.0,0.0,0.0,0.0,0.0,0.0,0.0,0.0,0.0,0.0,0.0,0.0,0.0,0.0,0.0,0.0,0.0,0.0,0.0,0.0,0.0,0.0,-1.8936,-1.9287,-1.9375,-1.9424,0.0,-1.9521,-1.9561,-1.958,-2.0254,-2.0566,-2.0566,-2.0566,-2.0566,-2.0566,-2.0566,-2.0566,-2.0566,-2.0566,-2.0625,-2.0713,-2.0713,-2.0771,-2.085,0.0,0.0,0.0,0.0,0.0,0.0,0.0,0.0,-0.1464,-0.1502,-0.1496,-0.1496,-0.1496,-0.1685,0.0,0.0,-0.2217,-0.252,0.0,0.0,0.0,0.0,0.0,0.0,0.0,-0.4724,-0.4575,0.0,0.0,0.0,0.0,0.0,-0.3703,-0.3605,-0.3499,-0.3436,-0.3387,-0.3223,-0.3117,-0.3037,-0.288,-0.2816,-0.2816,-0.2837,-0.2864,-0.2929,-0.3095,0.0,0.0,0.0,0.0,0.0,0.0,0.0,-0.3529,-0.3927,-0.4388,-0.4897,0.0,0.0,0.0,0.0,0.0,0.0,0.0,0.0,0.0,0.0,0.0,0.0,0.0,0.0,0.0,0.0,0.0,0.0,0.0,0.0,0.0,0.0,0.0,0.0,0.0,0.0,0.0,0.0,0.0,0.0,0.0,0.0,0.0,0.0,-1.833,-1.8447,-1.8672,-1.8877,-1.8975,-1.8984,-1.9189,-1.9287,-1.9307,-1.9961,-2.0371,-2.0566,-2.0566,-2.0566,-2.0566,-2.0566,-2.0566,-2.0566,-2.0566,-2.0566,-2.0566,-2.0566,-2.0566,-2.0566,0.0,0.0,0.0,0.0,0.0,0.0,0.0,0.0,0.0,-0.1475,-0.1496,-0.1496,-0.1496,-0.1545,-0.1615,0.0,0.0,0.0,-0.227,0.0,0.0,0.0,0.0,0.0,0.0,0.0,0.0,0.0,0.0,0.0,0.0,0.0,0.0,-0.363,-0.3512,-0.3415,-0.3322,-0.3128,-0.2988,-0.2864,-0.2745,-0.2697,-0.2724,-0.281,-0.288,-0.295,-0.3138,-0.3223,-0.3272,-0.3464,0.0,0.0,0.0,0.0,-0.3674,-0.3947,-0.4316,-0.4769,0.0,0.0,0.0,0.0,0.0,0.0,0.0,0.0,0.0,0.0,0.0,0.0,0.0,0.0,0.0,0.0,0.0,0.0,0.0,0.0,0.0,0.0,0.0,0.0,0.0,0.0,0.0,0.0,0.0,0.0,0.0,0.0,-1.8008,-1.8008,-1.8008,-1.8008,-1.8008,-1.8359,-1.8525,-1.8535,-1.8896,-1.9102,-1.9189,-1.9531,-1.9971,-2.0449,-2.0449,-2.0498,-2.0566,-2.0566,-2.0566,-2.0566,-2.0566,-2.0566,-2.0566,-2.0566,-2.0566,-2.0566,0.0,0.0,0.0,0.0,0.0,0.0,0.0,0.0,0.0,0.0,-0.1464,-0.1496,-0.1496,-0.1507,-0.1566,-0.1685,-0.1736,-0.1894,0.0,0.0,0.0,0.0,0.0,0.0,0.0,0.0,0.0,0.0,0.0,0.0,0.0,0.0,0.0,-0.4185,0.0,0.0,-0.3454,-0.3029,-0.2837,-0.2816,-0.2724,-0.2745,-0.2789,-0.2934,-0.3025,-0.3089,-0.3232,-0.3323,-0.3408,-0.3605,-0.3668,0.0,0.0,0.0,0.0,0.0,-0.4245,-0.4621,0.0,0.0,0.0,0.0,0.0,0.0,0.0,0.0,0.0,0.0,0.0,0.0,0.0,0.0,0.0,0.0,0.0,0.0,0.0,0.0,0.0,0.0,0.0,0.0,0.0,0.0,0.0,0.0,0.0,0.0,0.0,-1.8008,-1.8008,-1.8008,-1.8008,-1.8008,-1.8008,-1.8066,-1.8096,-1.8096,-1.8154,-1.8369,-1.873,-1.8779,-1.9238,-2.0,-2.0,-2.0215,-2.0566,-2.0566,-2.0566,-2.0566,-2.0566,-2.0566,-2.0566,-2.0566,-2.0566,-2.0566,0.0,0.0,0.0,0.0,0.0,0.0,0.0,0.0,0.0,0.0,0.0,-0.1443,-0.1443,-0.1475,-0.1523,-0.1583,-0.1619,0.0,0.0,0.0,0.0,0.0,0.0,0.0,0.0,0.0,0.0,0.0,0.0,0.0,0.0,-0.4277,-0.4243,0.0,0.0,0.0,-0.3489,-0.3167,-0.2933,-0.2805,-0.2881,-0.3003,-0.3152,-0.3411,-0.3567,-0.3652,-0.3637,-0.3648,-0.3667,-0.3653,-0.364,-0.3661,-0.3765,0.0,0.0,0.0,0.0,0.0,-0.5431,0.0,0.0,0.0,0.0,0.0,0.0,0.0,0.0,0.0,0.0,0.0,0.0,0.0,0.0,0.0,0.0,0.0,0.0,0.0,0.0,0.0,0.0,0.0,0.0,0.0,0.0,0.0,0.0,0.0,-1.7656,-1.7881,-1.8008,-1.8008,-1.8008,-1.8008,-1.8008,-1.8008,-1.8008,-1.8008,-1.8008,-1.8105,-1.8281,-1.8281,-1.875,-1.9561,-1.9561,-1.9805,-2.0195,-2.0195,-2.0342,-2.0566,-2.0566,-2.0566,-2.0566,-2.0566,-2.0566,-2.0566,0.0,0.0,0.0,0.0,0.0,0.0,0.0,0.0,0.0,0.0,0.0,-0.1335,-0.1346,0.0,0.0,0.0,-0.1545,0.0,0.0,0.0,0.0,0.0,0.0,0.0,0.0,0.0,0.0,0.0,0.0,0.0,-0.4606,-0.4455,-0.4455,0.0,-0.4297,-0.4012,0.0,0.0,-0.317,-0.3072,-0.3157,-0.34,-0.3733,-0.4016,-0.422,-0.4362,-0.4186,-0.4132,0.0,0.0,0.0,0.0,0.0,0.0,0.0,0.0,0.0,0.0,0.0,0.0,0.0,0.0,0.0,0.0,0.0,0.0,0.0,0.0,0.0,0.0,0.0,0.0,0.0,0.0,0.0,0.0,0.0,0.0,0.0,0.0,0.0,0.0,0.0,0.0,0.0,0.0,0.0,0.0,-1.7217,-1.7519,-1.7686,-1.7686,-1.7793,-1.7852,-1.7852,-1.7959,-1.8008,-1.8008,-1.8008,-1.8008,-1.8008,-1.8008,-1.8359,-1.8965,-1.9072,-1.9365,-1.9756,-1.9756,-2.001,-2.04,-2.04,-2.0469,-2.0566,-2.0566,-2.0566,-2.0566,0.0,0.0,0.0,0.0,0.0,0.0,0.0,0.0,0.0,0.0,0.0,-0.1145,-0.1199,-0.1269,-0.1367,-0.1491,-0.1496,0.0,0.0,0.0,0.0,0.0,0.0,0.0,0.0,0.0,0.0,0.0,0.0,0.0,-0.4606,-0.4455,-0.4668,-0.5148,-0.4669,-0.4369,-0.4118,0.0,-0.3467,-0.3732,-0.354,-0.3901,-0.4537,-0.4694,-0.4924,-0.5122,-0.4838,0.0,0.0,0.0,0.0,0.0,0.0,0.0,0.0,0.0,0.0,0.0,0.0,0.0,0.0,0.0,0.0,0.0,0.0,0.0,0.0,0.0,0.0,0.0,0.0,0.0,0.0,0.0,0.0,0.0,0.0,0.0,0.0,0.0,0.0,0.0,0.0,0.0,0.0,0.0,0.0,0.0,-1.6768,-1.6787,-1.6797,-1.6797,-1.7197,-1.7422,-1.7422,-1.7812,-1.8008,-1.8008,-1.8008,-1.8008,-1.8008,-1.8008,-1.8037,-1.8096,-1.8496,-1.8916,-1.9316,-1.9316,-1.957,-1.9951,-1.9951,-2.0195,-2.0566,-2.0566,-2.0566,-2.0566,0.0,0.0,0.0,0.0,0.0,0.0,0.0,0.0,0.0,0.0,0.0,0.0,0.0,-0.1068,-0.1129,-0.1168,-0.126,0.0,0.0,0.0,0.0,0.0,0.0,0.0,0.0,0.0,0.0,0.0,0.0,-0.3473,-0.3965,-0.4052,-0.4257,-0.4559,-0.4733,-0.4654,-0.4387,-0.4103,0.0,-0.4028,-0.4328,-0.4663,-0.5053,-0.5572,-0.5844,-0.5939,0.0,0.0,0.0,0.0,0.0,0.0,-0.3812,-0.3624,-0.3564,-0.3387,-0.36,0.0,0.0,0.0,0.0,0.0,0.0,0.0,0.0,0.0,0.0,0.0,0.0,0.0,0.0,0.0,0.0,0.0,0.0,0.0,0.0,0.0,0.0,0.0,0.0,0.0,0.0,0.0,0.0,0.0,0.0,0.0,-1.6299,-1.6572,-1.6665,-1.6665,-1.6885,-1.6963,-1.6963,-1.7393,-1.7607,-1.7607,-1.7881,-1.8008,-1.8008,-1.8008,-1.8008,-1.8018,-1.8164,-1.8477,-1.8867,-1.8867,-1.9121,-1.9512,-1.9512,-1.9609,-1.9785,-2.0049,-2.0146,-2.0185,0.0,0.0,0.0,-0.057,0.0,-0.0479,-0.0526,-0.0537,-0.0547,-0.059,0.0,0.0,0.0,0.0,-0.0863,-0.0927,-0.1031,-0.1094,-0.1061,0.0,0.0,0.0,0.0,0.0,0.0,0.0,0.0,0.0,0.0,0.0,0.0,-0.3631,-0.3859,-0.4189,-0.4549,-0.4583,0.0,0.0,0.0,-0.4319,0.0,-0.5105,-0.5448,0.0,-0.6391,0.0,0.0,0.0,0.0,0.0,0.0,0.0,0.0,-0.3824,-0.3578,-0.3337,-0.3447,0.0,-0.3975,0.0,0.0,0.0,0.0,0.0,0.0,0.0,0.0,0.0,0.0,0.0,0.0,0.0,0.0,0.0,0.0,0.0,0.0,0.0,0.0,0.0,0.0,0.0,0.0,0.0,0.0,0.0,0.0,0.0,-1.585,-1.6133,-1.6357,-1.6504,-1.6514,-1.6582,-1.6665,-1.7021,-1.7168,-1.7168,-1.7451,-1.7578,-1.7588,-1.7734,-1.7803,-1.7803,-1.7949,-1.8164,-1.8428,-1.8428,-1.8682,-1.9072,-1.9072,-1.916,-1.9316,-1.96,-1.9707,-1.9766,-0.0701,-0.0519,-0.0362,-0.0293,-0.0226,-0.0181,-0.0181,-0.0181,-0.018,-0.0179,0.0,0.0,0.0,0.0,0.0,-0.0774,-0.0845,-0.0866,-0.0788,-0.0787,0.0,0.0,0.0,0.0,0.0,0.0,0.0,0.0,0.0,0.0,0.0,0.0,-0.3545,-0.4047,-0.4059,-0.4059,-0.4059,0.0,-0.4307,-0.4606,0.0,-0.5106,-0.5751,0.0,0.0,0.0,-0.6635,-0.6584,0.0,0.0,0.0,0.0,0.0,-0.4034,-0.3483,-0.3283,-0.3232,-0.3386,0.0,0.0,0.0,0.0,0.0,0.0,0.0,0.0,0.0,0.0,0.0,0.0,0.0,0.0,0.0,0.0,0.0,0.0,0.0,0.0,0.0,0.0,0.0,0.0,0.0,0.0,0.0,0.0,0.0,-1.5381,-1.5391,-1.54,-1.5605,-1.6086,-1.6105,-1.625,-1.6689,-1.6709,-1.6709,-1.6709,-1.6665,-1.6665,-1.6748,-1.7168,-1.7373,-1.7402,-1.7812,-1.7998,-1.8008,-1.8008,-1.8252,-1.8553,-1.8553,-1.8877,-1.9248,-1.9258,-1.9258,-1.9326,-0.0436,-0.0171,0.0061,0.0122,0.0229,0.029,0.0244,0.0229,0.0216,0.0,0.0,0.0,0.0017,-0.0168,-0.0348,-0.0496,-0.0574,-0.0577,-0.0516,-0.056,-0.0648,-0.0781,-0.0954,-0.124,0.0,0.0,0.0,0.0,0.0,0.0,0.0,0.0,-0.2824,-0.3031,-0.3263,-0.3375,-0.3411,-0.4154,0.0,0.0,-0.511,-0.5466,0.0,0.0,0.0,0.0,0.0,-0.658,-0.6597,0.0,-0.5778,-0.5545,0.0,0.0,-0.3845,-0.3733,-0.3785,-0.3917,-0.4152,0.0,0.0,0.0,0.0,0.0,0.0,0.0,0.0,0.0,0.0,0.0,0.0,0.0,0.0,0.0,0.0,0.0,0.0,0.0,0.0,0.0,0.0,0.0,0.0,0.0,0.0,0.0,-1.4437,-1.4629,-1.4941,-1.5244,-1.5469,-1.5586,-1.5586,-1.5654,-1.5771,-1.6094,-1.625,-1.625,-1.6572,-1.6665,-1.6675,-1.6855,-1.709,-1.7393,-1.751,-1.7734,-1.8008,-1.8008,-1.8076,-1.8184,-1.8184,-1.8262,-1.8369,-1.8656,-1.8764,-1.8877,-0.0076,0.0224,0.0469,0.0535,0.0687,0.0754,0.0671,0.0654,0.0614,0.0,0.0,0.0,0.0229,-0.0038,-0.0245,-0.0379,-0.0442,-0.0423,-0.0367,-0.0362,-0.0457,-0.0656,-0.0846,-0.1126,-0.1486,0.0,0.0,0.0,0.0,0.0,0.0,-0.1895,-0.2178,-0.2444,-0.2662,-0.2844,-0.3028,-0.3753,0.0,0.0,-0.4723,0.0,0.0,-0.5826,-0.6166,0.0,0.0,0.0,-0.6452,-0.6237,-0.6065,0.0,0.0,-0.4706,-0.425,-0.4126,-0.4047,-0.4113,-0.4483,-0.472,0.0,0.0,0.0,0.0,0.0,0.0,0.0,0.0,0.0,0.0,0.0,0.0,0.0,0.0,0.0,0.0,0.0,0.0,0.0,0.0,0.0,0.0,0.0,0.0,0.0,0.0,-1.4077,-1.4248,-1.4502,-1.4746,-1.4961,-1.5146,-1.5146,-1.5234,-1.541,-1.5664,-1.5791,-1.5791,-1.6055,-1.6182,-1.6182,-1.6367,-1.6592,-1.6855,-1.7227,-1.7519,-1.7764,-1.7939,-1.8008,-1.8008,-1.8008,-1.8008,-1.8018,-1.8281,-1.835,-1.8437,0.0,0.0602,0.0863,0.0934,0.1109,0.1195,0.1057,0.1038,0.0987,0.0,0.078,0.0598,0.0223,-0.0045,-0.024,-0.0362,-0.0395,-0.0365,-0.0296,-0.023,-0.0285,-0.0529,-0.0738,-0.095,-0.1155,-0.135,-0.1354,0.0,-0.1164,-0.1219,-0.1339,-0.1366,-0.1649,-0.2122,-0.2226,-0.2437,-0.2733,-0.3033,0.0,-0.3487,-0.3913,-0.4262,0.0,0.0,-0.543,0.0,-0.5977,-0.61,-0.6176,-0.6385,-0.6314,0.0,0.0,-0.5222,-0.4746,-0.4489,-0.4258,-0.4267,-0.4992,-0.519,-0.5281,0.0,0.0,0.0,0.0,-0.6645,0.0,0.0,0.0,0.0,0.0,0.0,0.0,0.0,0.0,0.0,0.0,0.0,0.0,0.0,0.0,0.0,0.0,0.0,-1.3941,-1.3941,-1.398,-1.4009,-1.4009,-1.4058,-1.4307,-1.4697,-1.4717,-1.4912,-1.5342,-1.5342,-1.5371,-1.541,-1.541,-1.541,-1.542,-1.5811,-1.6076,-1.6164,-1.6894,-1.7275,-1.7373,-1.7725,-1.792,-1.8008,-1.8008,-1.8008,-1.8008,-1.8008,-1.8008,-1.8057,0.0497,0.081,0.1082,0.1211,0.1341,0.1404,0.1254,0.1232,0.1155,0.0913,0.0657,0.0375,0.0067,-0.0112,-0.0201,-0.0241,-0.0329,-0.0348,-0.0223,-0.0154,-0.0114,-0.0114,-0.0357,-0.0649,-0.0944,-0.1048,-0.1107,-0.1113,-0.0955,-0.0888,-0.0923,-0.1198,-0.1408,-0.1566,-0.1897,-0.2086,-0.2152,-0.2221,0.0,-0.2577,-0.3651,0.0,-0.4733,-0.4855,-0.5106,-0.5341,-0.5328,-0.5508,-0.5806,0.0,-0.6239,-0.6085,0.0,0.0,0.0,-0.5246,0.0,-0.5387,-0.5666,-0.5776,-0.5861,-0.6059,0.0,0.0,0.0,-0.6589,0.0,0.0,0.0,0.0,0.0,0.0,0.0,0.0,0.0,0.0,0.0,0.0,0.0,0.0,0.0,0.0,0.0,0.0,-1.3125,-1.3125,-1.3437,-1.3633,-1.3633,-1.3902,-1.4116,-1.4204,-1.4258,-1.4473,-1.4902,-1.4902,-1.5078,-1.541,-1.541,-1.541,-1.541,-1.5498,-1.5732,-1.6135,-1.6311,-1.6558,-1.684,-1.6893,-1.7393,-1.8008,-1.8008,-1.8008,-1.8008,-1.8008,-1.8008,-1.8018,0.0651,0.0976,0.123,0.1296,0.1388,0.141,0.1321,0.1185,0.0983,0.069,0.029,-0.0022,-0.0179,-0.0358,-0.047,-0.0492,-0.0474,-0.0393,-0.0256,-0.0094,0.0036,0.0091,-0.0054,-0.0228,-0.0395,-0.0558,-0.0668,-0.0702,-0.0667,-0.0656,-0.0653,-0.0886,-0.108,-0.1213,-0.1476,-0.1649,-0.175,0.0,-0.201,-0.2224,-0.3035,0.0,-0.4024,-0.4319,-0.4614,-0.4901,-0.4956,-0.5234,-0.566,-0.6047,-0.6212,0.0,0.0,-0.6186,-0.5943,0.0,-0.5814,-0.5902,-0.6375,-0.6471,-0.6481,-0.6587,0.0,0.0,0.0,0.0,0.0,0.0,0.0,0.0,0.0,0.0,0.0,0.0,0.0,0.0,0.0,0.0,0.0,0.0,0.0,0.0,0.0,0.0,-1.2881,-1.2881,-1.3076,-1.3193,-1.3193,-1.3389,-1.3603,-1.3818,-1.3818,-1.4033,-1.4453,-1.4463,-1.4678,-1.5098,-1.5098,-1.5205,-1.541,-1.541,-1.5527,-1.5752,-1.6027,-1.6189,-1.6437,-1.6617,-1.6992,-1.7393,-1.7617,-1.7822,-1.8008,-1.8008,-1.8008,-1.8008,0.0604,0.0916,0.1116,0.1116,0.1185,0.123,0.1139,0.0914,0.0627,0.0205,-0.0231,-0.0538,-0.063,-0.0793,-0.0888,-0.089,-0.0705,-0.0523,-0.0313,0.0,0.0,0.0263,0.0301,0.029,0.0222,-0.0,-0.0144,-0.0208,0.0,-0.0442,-0.0504,-0.0622,-0.0776,-0.0971,-0.1097,0.0,0.0,0.0,0.0,-0.1887,0.0,-0.2734,-0.3281,-0.382,-0.4206,-0.4463,-0.4791,-0.5179,-0.5567,-0.5841,0.0,-0.6417,-0.653,-0.6433,0.0,0.0,0.0,0.0,0.0,0.0,0.0,0.0,0.0,-0.6954,0.0,0.0,0.0,-0.7395,0.0,0.0,0.0,0.0,0.0,0.0,0.0,0.0,0.0,0.0,0.0,0.0,0.0,0.0,0.0,0.0,-1.2627,-1.2627,-1.2705,-1.2754,-1.2754,-1.2832,-1.3037,-1.3379,-1.3389,-1.3584,-1.3951,-1.3961,-1.4228,-1.4658,-1.4746,-1.4961,-1.5293,-1.5371,-1.541,-1.543,-1.5781,-1.5998,-1.5967,-1.6328,-1.648,-1.6617,-1.71,-1.7461,-1.7773,-1.7861,-1.7891,-1.79,0.0112,0.0358,0.0512,0.0512,0.0601,0.0646,0.0512,0.0379,0.0023,-0.0663,-0.1,-0.1256,-0.1442,0.0,0.0,0.0,0.0,0.0,-0.0322,0.0,0.0167,0.0534,0.0883,0.0928,0.0646,0.0601,0.0447,0.0135,0.0,-0.0265,-0.0502,-0.0574,-0.0684,-0.0838,-0.0965,0.0,0.0,0.0,-0.1009,0.0,-0.1393,-0.2275,0.0,-0.3658,-0.3942,-0.4301,-0.4736,-0.5014,-0.5238,0.0,-0.5931,-0.6066,0.0,-0.6197,0.0,0.0,0.0,0.0,0.0,0.0,0.0,0.0,-0.7459,0.0,0.0,0.0,-0.6989,-0.7216,0.0,0.0,0.0,0.0,0.0,0.0,0.0,0.0,0.0,0.0,0.0,0.0,0.0,0.0,0.0,0.0,0.0,-1.1753,-1.208,-1.2305,-1.2305,-1.2666,-1.29,-1.2949,-1.2949,-1.3154,-1.3574,-1.3574,-1.3789,-1.4155,-1.46,-1.4805,-1.4873,-1.5244,-1.541,-1.541,-1.5469,-1.5488,-1.5488,-1.5537,-1.579,-1.6205,-1.6607,-1.6836,-1.6924,-1.7305,-1.7451,-1.751,-0.0291,-0.0067,0.0067,0.0111,0.0089,0.0111,0.02,-0.0022,-0.0444,-0.111,-0.1456,-0.1675,0.0,0.0,0.0,0.0,0.0,-0.0867,0.0,0.0,0.015,0.0577,0.094,0.1094,0.0983,0.0914,0.0772,0.0551,0.0301,0.0089,-0.0101,-0.0233,-0.0321,-0.0357,-0.0589,0.0,-0.0662,0.0,0.0,0.0,0.0,0.0,0.0,-0.332,-0.3838,-0.4408,-0.4684,-0.4849,-0.5014,0.0,-0.5684,0.0,0.0,0.0,0.0,0.0,0.0,0.0,0.0,0.0,0.0,0.0,0.0,0.0,0.0,0.0,-0.7309,0.0,0.0,0.0,0.0,0.0,0.0,0.0,0.0,0.0,0.0,0.0,0.0,0.0,0.0,0.0,0.0,0.0,0.0,0.0,0.0,-1.218,-1.218,-1.2646,-1.2881,-1.2881,-1.2881,-1.2969,-1.3145,-1.3145,-1.335,-1.3769,-1.3955,-1.4321,-1.4808,-1.4988,-1.5186,-1.541,-1.541,-1.541,-1.541,-1.541,-1.5488,-1.5712,-1.5848,-1.6279,-1.6694,-1.6943,-1.7002,-1.707,-0.0781,-0.0579,-0.0468,-0.0401,-0.0423,-0.0379,-0.02,-0.049,-0.0923,-0.1513,0.0,0.0,-0.203,-0.2001,0.0,0.0,0.0,-0.1076,0.0,0.0,-0.0054,0.0389,0.0713,0.0,0.0,0.0,0.0,0.0939,0.0658,0.0442,0.0311,0.0096,0.002,0.0021,0.0,-0.0369,-0.0406,0.0,0.0,-0.0855,-0.1507,-0.2129,-0.2759,-0.3273,-0.3903,-0.4519,-0.4684,-0.4794,-0.4956,-0.5187,-0.5521,0.0,-0.5896,0.0,0.0,0.0,0.0,0.0,-0.8212,0.0,0.0,0.0,0.0,0.0,0.0,0.0,0.0,0.0,0.0,0.0,0.0,0.0,0.0,0.0,0.0,0.0,0.0,0.0,0.0,0.0,0.0,0.0,0.0,0.0,0.0,0.0,0.0,0.0,-1.2031,-1.2461,-1.2754,-1.2881,-1.2881,-1.2881,-1.2881,-1.2881,-1.3037,-1.334,-1.3447,-1.3841,-1.4424,-1.472,-1.4978,-1.5244,-1.5361,-1.541,-1.541,-1.5362,-1.5362,-1.5362,-1.5303,-1.5701,-1.6334,-1.6441,-1.6553,-1.6611,-0.148,-0.1296,0.0,0.0,0.0,-0.0803,-0.087,-0.1094,-0.147,0.0,0.0,0.0,0.0,0.0,0.0,0.0,0.0,-0.147,-0.0914,0.0,-0.0507,0.0,0.0,0.0457,0.0,0.0,0.1477,0.1292,0.0945,0.0718,0.0,0.0388,0.0227,0.009,0.0026,-0.0145,-0.0432,-0.1076,-0.1272,-0.1145,-0.1904,-0.2692,-0.3509,0.0,-0.4181,-0.4519,-0.4791,0.0,0.0,-0.5187,-0.5521,0.0,0.0,0.0,0.0,0.0,0.0,0.0,0.0,0.0,0.0,-0.8028,0.0,0.0,0.0,0.0,-0.7961,0.0,0.0,0.0,0.0,0.0,-0.9384,-0.9038,0.0,0.0,0.0,0.0,0.0,0.0,0.0,0.0,0.0,0.0,0.0,0.0,0.0,0.0,-1.1577,-1.2002,-1.2441,-1.2871,-1.2881,-1.2881,-1.2881,-1.2881,-1.2891,-1.29,-1.3311,-1.3516,-1.3564,-1.4395,-1.4798,-1.4834,-1.5234,-1.541,-1.541,-1.5264,-1.5215,-1.5215,-1.5039,-1.5107,-1.5302,-1.5877,-1.6145,-1.6213,0.0,0.0,0.0,0.0,0.0,-0.1208,-0.123,-0.1804,-0.2295,0.0,0.0,0.0,0.0,0.0,-0.2573,0.0,0.0,-0.1757,-0.1689,-0.1501,0.0,0.0,0.0,-0.0519,0.0,0.0,0.0994,0.1359,0.1163,0.1043,0.0,0.0,0.0,0.0,0.0,-0.0116,0.0,0.0,0.0,0.0,0.0,-0.3289,-0.3851,0.0,0.0,-0.4519,-0.4684,-0.4849,0.0,-0.5187,-0.5521,-0.585,-0.6119,-0.6603,-0.709,-0.7354,-0.7836,0.0,0.0,0.0,-0.8664,-0.8173,0.0,0.0,0.0,0.0,0.0,0.0,0.0,0.0,0.0,0.0,-0.9404,-0.9038,-0.8652,-0.8184,0.0,0.0,0.0,0.0,0.0,0.0,0.0,0.0,0.0,0.0,0.0,0.0,0.0,-1.168,-1.2248,-1.2441,-1.2734,-1.2881,-1.2881,-1.2881,-1.2881,-1.2881,-1.3027,-1.3224,-1.3511,-1.3827,-1.409,-1.435,-1.4812,-1.5,-1.5019,-1.5148,-1.5215,-1.5215,-1.5029,-1.5039,-1.5107,-1.5428,-1.5585,-1.5693,-0.2162,0.0,0.0,0.0,0.0,0.0,0.0,0.0,0.0,0.0,-0.3337,0.0,-0.2957,0.0,-0.3026,0.0,-0.2366,-0.2241,-0.2377,-0.2231,0.0,-0.1995,-0.1957,0.0,0.0,0.0,0.0325,0.1081,0.0,0.1196,0.0,0.0,0.0,0.0,0.0,0.0,0.0,0.0,-0.1709,0.0,0.0,-0.374,0.0,0.0,-0.4411,-0.4519,0.0,-0.4849,-0.5014,-0.5352,-0.5736,-0.6064,-0.649,-0.6977,-0.7408,-0.7783,-0.8156,-0.8474,-0.8633,-0.8745,0.0,-0.8491,-0.8473,0.0,-0.8126,0.0,0.0,0.0,0.0,0.0,0.0,0.0,-0.9604,-0.9102,-0.8779,-0.834,0.0,0.0,0.0,0.0,0.0,0.0,0.0,0.0,-0.8506,-0.842,0.0,0.0,0.0,0.0,-1.2061,-1.218,-1.2656,-1.2881,-1.2881,-1.2881,-1.2881,-1.2881,-1.2881,-1.3066,-1.3282,-1.3422,-1.3629,-1.3896,-1.4346,-1.4625,-1.4805,-1.4869,-1.4954,-1.5098,-1.4921,-1.4793,-1.4843,-1.5029,-1.5137,-1.5244,0.0,0.0,0.0,0.0,-0.1923,0.0,0.0,0.0,-0.2932,0.0,-0.3605,-0.3488,-0.3038,-0.3362,-0.3638,-0.3638,-0.3216,0.0,-0.2976,-0.2962,0.0,0.0,-0.292,-0.2558,-0.1688,0.0,0.0,0.0,0.0,0.0,0.0,0.0,0.0,0.0,0.0341,0.0,-0.0846,-0.1542,-0.208,-0.2544,-0.3513,-0.4015,-0.4249,-0.4463,-0.4519,-0.4574,-0.4791,-0.5011,-0.5179,-0.5681,-0.6114,-0.649,-0.6977,-0.7402,-0.7777,-0.8109,-0.8427,-0.8626,-0.8804,-0.891,-0.9037,-0.9027,0.0,0.0,0.0,0.0,-0.9252,0.0,0.0,0.0,0.0,0.0,0.0,-0.917,-0.9014,-0.8574,0.0,0.0,0.0,0.0,0.0,0.0,0.0,0.0,-0.79,-0.8342,-0.874,0.0,0.0,0.0,0.0,-1.2178,-1.2617,-1.2861,-1.2881,-1.2881,-1.2881,-1.2881,-1.2881,-1.2881,-1.2929,-1.3272,-1.3491,-1.3486,-1.3928,-1.433,-1.4756,-1.4439,-1.4592,-1.497,-1.4625,-1.4497,-1.4529,-1.4852,-1.4843,-1.4712,-0.2993,-0.269,-0.232,0.0,-0.2503,-0.3074,0.0,0.0,0.0,0.0,-0.401,-0.4236,-0.4079,-0.4209,-0.4242,-0.4242,-0.4164,0.0,0.0,0.0,0.0,-0.4032,-0.3995,-0.361,-0.2887,-0.1912,0.0,-0.0176,0.0,0.0,0.1072,0.0,0.0,0.0,0.0,0.0,-0.1051,-0.1732,-0.255,-0.3389,-0.3915,-0.4323,0.0,0.0,-0.4798,-0.4959,-0.4901,-0.512,-0.5513,-0.5941,-0.6485,-0.6977,-0.7402,-0.783,-0.8262,-0.854,-0.8745,-0.8949,-0.9159,-0.9361,-0.9489,-0.9581,-0.9665,-0.9787,0.0,0.0,0.0,0.0,0.0,0.0,0.0,0.0,0.0,-0.9573,-0.9209,-0.8779,0.0,0.0,0.0,0.0,0.0,0.0,0.0,-0.7695,-0.7744,-0.7861,-0.8301,0.0,0.0,0.0,0.0,-1.1709,-1.2168,-1.2559,-1.2881,-1.2881,-1.2881,-1.2881,-1.2881,-1.2881,-1.2881,-1.3008,-1.3057,-1.3066,-1.3478,-1.391,-1.4272,-1.4482,-1.4764,-1.5098,-1.4784,-1.4359,-1.4001,-1.4309,-1.4309,-1.4198,-0.3599,0.0,0.0,-0.2821,0.0,0.0,-0.3748,0.0,0.0,-0.388,-0.4451,0.0,-0.4853,-0.4853,-0.4743,-0.4519,-0.4519,0.0,0.0,0.0,0.0,-0.5229,-0.511,-0.4651,-0.3948,-0.2843,0.0,-0.0829,0.0,0.0,0.0646,0.0,0.0,0.0,0.0,-0.1213,0.0,-0.2473,-0.3197,-0.3936,-0.4291,0.0,0.0,-0.4959,-0.5179,-0.5508,-0.5559,-0.5668,-0.5941,-0.6431,-0.6918,-0.7456,-0.7883,-0.8262,-0.8639,-0.8903,-0.9106,-0.9316,-0.9681,-0.9829,-1.0041,-1.0366,-1.0433,-1.0539,-1.08,-1.094,-1.109,0.0,0.0,0.0,0.0,0.0,0.0,-0.9738,-0.9277,0.0,0.0,0.0,0.0,0.0,0.0,0.0,0.0,-0.7423,-0.7423,-0.7423,-0.7852,0.0,0.0,0.0,0.0,-1.125,-1.1895,-1.2441,-1.2881,-1.2881,-1.2881,-1.2881,-1.2881,-1.2881,-1.2881,-1.2881,-1.2881,-1.2891,-1.3135,-1.3477,-1.3844,-1.4154,-1.4532,-1.4888,-1.4591,-1.4181,-1.364,-1.3588,-1.3467,-1.3338,0.0,0.0,0.0,0.0,0.0,0.0,0.0,-0.3875,0.0,-0.4303,0.0,-0.5517,-0.5517,-0.5462,-0.5242,-0.4739,0.0,-0.4908,-0.5407,-0.6213,-0.6584,-0.6335,-0.6202,-0.5725,-0.4883,-0.3918,0.0,0.0,0.0,-0.029,0.0023,0.0,0.0,0.0,0.0,0.0,0.0,-0.3423,-0.3949,0.0,-0.4667,-0.4959,-0.5234,-0.5391,-0.5723,-0.6164,-0.6436,-0.6431,-0.6426,-0.6972,-0.7456,-0.7883,-0.8315,-0.8639,-0.891,-0.9211,-0.9465,-0.9769,-1.0198,-1.0454,-1.0659,-1.1267,-1.1256,-1.1202,-1.1563,-1.1564,-1.1621,-1.2124,-1.1947,-1.1881,0.0,0.0,0.0,0.0,0.0,0.0,0.0,0.0,0.0,0.0,0.0,0.0,0.0,-0.71,-0.708,-0.7012,0.0,0.0,0.0,0.0,0.0,-1.0889,-1.1709,0.0,-1.2871,0.0,-1.2881,-1.2881,-1.2881,-1.2881,-1.2881,-1.2881,-1.2881,-1.2881,-1.2881,-1.3125,-1.3535,-1.3739,-1.4119,-1.46,-1.4323,-1.3941,-1.345,-1.292,-1.2552,-1.2359,0.0,0.0,0.0,0.0,0.0,-0.4809,-0.522,-0.4187,-0.3606,-0.4242,-0.5748,0.0,-0.6761,-0.6337,-0.6009,-0.59,-0.59,0.0,0.0,0.0,0.0,-0.6951,-0.7253,-0.6848,-0.572,-0.4866,-0.3806,0.0,-0.1967,-0.1433,-0.0953,-0.0982,0.0,0.0,0.0,0.0,-0.3538,-0.402,0.0,-0.4733,-0.5087,-0.5449,-0.5837,-0.5991,-0.6426,-0.6918,-0.7079,-0.7128,-0.7182,-0.7509,-0.7889,-0.8315,-0.8639,-0.8903,-0.9211,-0.9562,-0.988,-1.0198,-1.0769,-1.1116,-1.1418,-1.1877,-1.2021,-1.2113,-1.2415,-1.2464,-1.2522,-1.2696,-1.2705,-1.2559,-1.2239,0.0,0.0,0.0,0.0,0.0,0.0,0.0,0.0,0.0,0.0,0.0,0.0,0.0,-0.6943,0.0,0.0,0.0,0.0,0.0,0.0,0.0,0.0,0.0,0.0,0.0,-1.2881,-1.2881,-1.2881,-1.2881,-1.2881,-1.2881,-1.2881,-1.2881,-1.2881,-1.3125,-1.3516,-1.3533,-1.3975,-1.46,-1.4606,-1.4172,-1.345,-1.2789,-1.2112,-1.1615,0.0,0.0,0.0,0.0,0.0,0.0,0.0,-0.6424,0.0,-0.6149,-0.6954,-0.7521,-0.7521,-0.7252,-0.6982,-0.6712,-0.6657,-0.6766,-0.7041,-0.7359,-0.7681,-0.7949,-0.7955,0.0,-0.6602,-0.5841,-0.4805,-0.3594,-0.3004,-0.2393,-0.1772,-0.1852,-0.1983,-0.2204,0.0,-0.3698,0.0,0.0,0.0,-0.5526,-0.5708,-0.61,-0.6598,-0.6696,-0.7074,-0.7563,-0.7777,-0.799,-0.8203,-0.815,-0.8468,-0.8844,-0.9061,-0.9316,-0.9681,-1.0035,-1.0446,-1.0863,-1.1377,-1.1719,-1.1977,-1.2332,-1.248,-1.2578,-1.2783,-1.2783,-1.2832,-1.2881,-1.2881,-1.2744,-1.2314,-1.1885,0.0,0.0,0.0,0.0,0.0,0.0,0.0,0.0,0.0,0.0,0.0,0.0,0.0,0.0,0.0,0.0,0.0,0.0,0.0,0.0,0.0,0.0,0.0,0.0,0.0,-1.2881,-1.2881,-1.2881,-1.2881,-1.2881,-1.2881,-1.2881,-1.2881,-1.2998,-1.3203,-1.3418,-1.3961,-1.458,-1.4439,-1.4119,-1.358,-1.2911,-1.2182,-1.149,0.0,-0.5478,0.0,0.0,-0.6906,0.0,0.0,-0.8593,-0.8646,-0.8168,-0.8115,-0.8115,-0.8115,-0.8115,-0.7895,-0.7515,-0.7461,-0.7622,-0.8062,-0.8115,-0.8328,-0.8758,-0.8487,-0.8032,-0.7336,-0.6733,-0.5848,0.0,0.0,0.0,-0.2772,-0.28,-0.2977,-0.332,0.0,0.0,0.0,0.0,-0.5795,-0.6386,-0.6445,-0.6804,-0.7354,-0.7557,-0.7871,-0.8196,-0.8521,-0.8844,-0.9166,-0.8995,-0.9099,-0.9361,-0.9569,-0.9836,-1.0205,-1.0557,-1.1015,-1.1528,-1.1927,-1.2175,-1.2431,-1.2676,-1.2735,-1.2774,-1.2881,-1.2881,-1.2881,-1.2881,-1.2881,-1.2773,-1.2432,-1.2248,0.0,0.0,0.0,0.0,0.0,0.0,0.0,0.0,0.0,0.0,0.0,0.0,0.0,0.0,0.0,0.0,0.0,0.0,0.0,0.0,0.0,-1.168,-1.218,0.0,-1.2881,0.0,-1.2881,-1.2881,-1.2881,-1.2881,-1.2881,-1.2881,-1.2881,-1.2881,-1.291,-1.334,-1.3854,-1.4357,-1.4157,-1.3959,-1.3665,-1.3017,-1.2305,-1.1622,0.0,0.0,0.0,0.0,0.0,0.0,0.0,-0.9061,-0.8758,-0.8705,-0.8699,-0.8699,-0.8699,-0.8699,-0.8699,-0.8646,-0.8646,-0.8646,-0.8699,-0.8699,-0.8752,-0.8804,-0.8752,-0.8449,-0.774,-0.754,-0.6984,0.0,0.0,0.0,0.0,-0.3923,-0.4042,-0.4552,0.0,0.0,0.0,-0.6272,-0.6635,-0.6956,-0.7236,-0.7664,-0.8162,-0.8514,-0.883,-0.9106,-0.9256,-0.9577,-0.9947,-1.0043,-0.9932,-0.9821,-1.019,-1.0462,-1.0718,-1.1267,-1.1619,-1.1927,-1.2323,-1.2529,-1.2676,-1.2832,-1.2881,-1.2881,-1.2881,-1.2881,-1.2881,-1.2881,-1.2881,-1.2871,-1.2832,-1.25,-1.2171,0.0,0.0,0.0,0.0,0.0,0.0,0.0,0.0,0.0,0.0,0.0,0.0,0.0,0.0,0.0,0.0,0.0,0.0,-0.9544,0.0,-1.1377,-1.218,-1.2666,0.0,-1.2881,-1.2881,-1.2881,-1.2881,-1.2881,-1.2881,-1.2881,-1.2881,-1.2881,-1.291,-1.334,-1.3555,-1.3649,-1.3987,-1.3853,-1.3366,-1.2987,-1.2367,-1.1802,0.0,0.0,0.0,0.0,0.0,0.0,0.0,-0.9159,-0.8804,-0.8804,-0.8804,-0.8804,-0.8804,-0.8804,-0.8804,-0.8804,-0.8804,-0.8804,-0.8804,-0.8804,-0.8804,-0.8804,-0.8804,-0.8639,-0.83,-0.8082,-0.7603,0.0,0.0,0.0,0.0,-0.495,-0.4981,0.0,0.0,-0.6204,-0.6545,-0.69,-0.7332,-0.7745,-0.8047,-0.8461,-0.8949,-0.9197,-0.9451,-0.9718,-0.9932,-1.0198,-1.0462,-1.0863,-1.0804,-1.06,-1.0863,-1.1167,-1.1477,-1.1769,-1.2076,-1.2323,-1.2529,-1.2725,-1.2832,-1.2881,-1.2881,-1.2881,-1.2881,-1.2881,-1.2881,-1.2881,-1.2881,-1.2881,-1.2881,-1.2744,-1.2617,0.0,0.0,0.0,0.0,0.0,0.0,0.0,0.0,0.0,0.0,0.0,0.0,0.0,0.0,0.0,-0.6377,0.0,0.0,-0.9228,0.0,-1.1475,-1.1826,-1.2529,-1.2881,-1.2881,-1.2881,-1.2881,-1.2881,-1.2881,-1.2881,-1.2881,-1.2881,-1.2881,-1.2891,-1.3066,-1.3281,-1.3494,-1.3508,-1.3507,-1.3433,-1.2957,-1.255,-1.2236,-1.0284,0.0,-1.0769,0.0,-1.082,-1.0565,-0.9932,-0.9271,-0.8804,-0.8804,-0.8804,-0.8804,-0.8804,-0.8804,-0.8804,-0.8804,-0.8804,-0.8804,-0.8804,-0.8804,-0.8804,-0.8804,-0.8804,0.0,-0.8685,-0.8487,-0.8137,-0.7704,-0.7231,0.0,0.0,-0.6008,0.0,0.0,-0.6642,-0.6976,-0.7242,-0.7601,-0.8034,-0.848,-0.8784,-0.9197,-0.9673,-0.9925,-1.0182,-1.0431,-1.0702,-1.0913,-1.1124,-1.1528,-1.1628,-1.1528,-1.1578,-1.1778,-1.2076,-1.2224,-1.2421,-1.2578,-1.2725,-1.2832,-1.2881,-1.2881,-1.2881,-1.2881,-1.2881,-1.2881,-1.2881,-1.2881,-1.2881,-1.2881,-1.2881,-1.2881,-1.2881,-1.2881,0.0,0.0,0.0,0.0,0.0,0.0,0.0,-0.8555,0.0,0.0,0.0,0.0,0.0,0.0,-0.6777,0.0,0.0,0.0,0.0,0.0,0.0,-1.25,-1.2881,-1.2881,-1.2881,-1.2881,-1.2881,-1.2881,-1.2881,-1.2881,-1.2881,-1.2881,-1.2881,-1.2881,-1.3057,-1.3289,-1.3099,-1.3127,-1.3247,-1.274,-1.2563,-1.2575,-1.0829,-1.1267,-1.1477,-1.1977,-1.1628,-1.1124,-1.0565,-0.9532,-0.8804,-0.8804,-0.8804,-0.8804,-0.8804,-0.8804,-0.8804,-0.8804,-0.8804,-0.8804,-0.8804,-0.8804,-0.8804,0.0,0.0,-0.8804,-0.8804,-0.8804,-0.8657,-0.837,0.0,0.0,-0.7486,-0.7141,-0.7082,-0.7289,-0.7582,-0.7779,-0.8024,-0.8397,-0.8732,-0.9008,-0.9413,-0.9829,-1.0249,-1.0863,-1.1175,-1.1326,-1.1578,-1.1769,-1.1927,-1.2026,-1.2283,-1.248,-1.2332,-1.2274,-1.2332,-1.2627,-1.2676,-1.2735,-1.2881,-1.2881,-1.2881,-1.2881,-1.2881,-1.2881,-1.2881,-1.2881,-1.2881,-1.2881,-1.2881,-1.2881,-1.2881,-1.2881,-1.2881,-1.2881,0.0,0.0,0.0,0.0,0.0,0.0,-0.9258,-0.8672,-0.7773,0.0,0.0,0.0,0.0,0.0,0.0,0.0,0.0,-1.0215,-1.0684,0.0,-1.2161,-1.2656,-1.2881,-1.2881,-1.2881,-1.2881,-1.2881,-1.2881,-1.2881,-1.2881,-1.2881,-1.2881,-1.2881,-1.2881,-1.2881,-1.2881,-1.2842,-1.2742,-1.2588,-1.2362,-1.2459,-1.2739,-1.2171,-1.2372,-1.2431,-1.2627,-1.2175,-1.1528,-1.0624,-0.9836,-0.9361,-0.9361,-0.9361,-0.9361,-0.9361,-0.9008,-0.8962,0.0,-0.9361,-0.9361,0.0,-0.9361,-0.9263,-0.9061,-0.9061,-0.9061,-0.9061,-0.8956,-0.8915,-0.882,0.0,0.0,0.0,-0.7682,-0.7756,-0.8048,-0.8134,-0.8383,-0.8716,-0.8908,-0.9204,-0.9562,-0.9984,-1.0446,-1.0964,-1.1368,-1.1628,-1.1877,-1.2026,-1.2126,-1.2224,-1.2421,-1.2578,-1.2627,-1.2676,-1.2735,-1.2735,-1.2832,-1.2832,-1.2832,-1.2881,-1.2881,-1.2881,-1.2881,-1.2881,-1.2881,-1.2881,-1.2881,-1.2881,-1.2881,-1.2881,-1.2881,-1.2881,-1.2881,-1.2881,-1.2881,-1.2627,0.0,0.0,0.0,0.0,0.0,0.0,-0.9174,0.0,-0.8477,0.0,0.0,0.0,0.0,0.0,0.0,0.0,0.0,-1.1279,0.0,-1.218,-1.2666,-1.2881,-1.2881,-1.2881,-1.2881,-1.2881,-1.2881,-1.2881,-1.2881,-1.2881,-1.2881,-1.2881,-1.2881,-1.2881,-1.29,-1.278,-1.2789,-1.2828,-1.2599,-1.2734,-1.3117,-1.2832,-1.2881,-1.2881,-1.2881,-1.248,-1.1828,-1.0922,-1.03,-0.9932,-0.9932,-1.0138,-1.0233,-1.0233,-0.9932,0.0,-0.9932,-1.0138,-1.0233,-1.0233,-1.0035,-0.988,-0.9681,-0.9577,-0.9472,-0.9413,0.0,0.0,-0.9061,-0.8727,-0.8494,-0.8306,-0.8306,-0.85,-0.8786,-0.883,-0.9036,-0.9309,-0.9569,-0.9829,-1.019,-1.0651,-1.1116,-1.1578,-1.1877,-1.2126,-1.2323,-1.248,-1.2529,-1.2529,-1.2725,-1.2783,-1.2783,-1.2881,-1.2881,-1.2881,-1.2881,-1.2881,-1.2881,-1.2881,-1.2881,-1.2881,-1.2881,-1.2881,-1.2881,-1.2881,-1.2881,-1.2881,-1.2881,-1.2881,-1.2881,-1.2881,-1.2881,-1.2832,-1.2666,-1.2412,-1.2012,-1.1406,0.0,0.0,0.0,0.0,0.0,0.0,-0.9092,0.0,0.0,0.0,0.0,0.0,0.0,0.0,-1.0793,-1.1719,0.0,-1.2471,-1.2744,-1.2881,-1.2881,-1.2881,-1.2881,-1.2881,-1.2881,-1.2881,-1.2881,-1.2881,-1.2881,-1.2881,-1.2881,-1.2881,-1.2881,-1.2725,-1.278,-1.2849,-1.2656,-1.2813,-1.3192,-1.2881,-1.2881,0.0,0.0,-1.248,0.0,-1.1427,-1.0922,-1.0616,-1.0616,-1.1124,-1.1469,-1.1469,-1.1469,-1.1267,-1.0718,0.0,0.0,0.0,-1.0871,-1.0565,-1.0573,-1.0257,-1.0043,-0.9873,-0.9614,-0.9361,-0.9211,-0.8956,-0.891,-0.9061,-0.9061,-0.9211,-0.9465,-0.9614,-0.9762,-0.9917,-1.0293,-1.0608,-1.082,-1.1326,-1.1728,-1.1977,-1.2382,-1.2578,-1.2725,-1.2881,-1.2881,-1.2881,-1.2881,-1.2881,-1.2881,-1.2881,-1.2881,-1.2881,-1.2881,-1.2881,-1.2881,-1.2881,-1.2881,-1.2881,-1.2881,-1.2929,-1.2929,-1.2929,-1.292,-1.2929,-1.2929,-1.2929,-1.292,-1.292,-1.2929,-1.2734,-1.2305,-1.2161,-1.184,-1.1025,0.0,0.0,0.0,0.0,0.0,0.0,-0.9395,-0.918,0.0,0.0,0.0,0.0,0.0,-1.0781,-1.1626,-1.2041,-1.2471,-1.2881,-1.2881,-1.2881,-1.2881,-1.2881,-1.2881,-1.2881,-1.2881,-1.2881,-1.2881,-1.2881,-1.2881,-1.2881,-1.2881,-1.2881,-1.2881,-1.2783,-1.2725,-1.2676,-1.2578,-1.2767,-1.3099,0.0,0.0,-1.2881,-1.2881,-1.2774,-1.2529,-1.1977,-1.1778,-1.1728,-1.1728,-1.2501,-1.3084,-1.3084,-1.3084,-1.2842,-1.2372,-1.2076,-1.1927,-1.1927,-1.1769,-1.1528,-1.1124,-1.1217,-1.1015,-1.036,-1.0095,-0.9829,-0.9517,-0.9465,-0.9413,-0.9465,-0.9562,-0.9777,-1.0043,-1.0138,-1.0498,-1.0956,-1.1065,-1.1267,-1.1628,-1.1877,-1.2126,-1.2382,-1.2578,-1.2735,-1.2881,-1.2881,-1.2881,-1.2881,-1.2881,-1.2881,-1.2881,-1.2881,-1.2881,-1.2881,-1.2881,-1.2881,-1.2881,-1.2881,-1.2881,-1.2881,-1.2881,-1.2978,-1.3075,-1.3238,-1.3276,-1.3334,-1.343,-1.3334,-1.3276,-1.3276,-1.3162,-1.2878,-1.2414,-1.2024,-1.1523,-1.0986,-1.0635,0.0,0.0,-1.0469,-1.0605,-1.0605,-1.082,-1.0998,0.0,0.0,0.0,0.0,-1.1582,-1.182,-1.2061,-1.25,-1.2773,-1.2881,-1.2881,-1.2881,-1.2881,-1.2881,-1.2881,-1.2881,-1.2881,-1.2881,-1.2881,-1.2881,-1.2881,-1.2881,-1.2881,-1.2881,-1.2881,-1.2881,-1.2832,-1.2832,-1.2832,-1.289,-1.2977,-1.2881,-1.2881,-1.2881,-1.2881,-1.2881,-1.2783,-1.2529,-1.2666,-1.289,-1.3132,-1.3789,-1.4269,-1.4269,-1.4082,-1.3763,-1.3248,-1.2764,-1.248,-1.248,-1.248,-1.2224,-1.1678,-1.1828,-1.1628,-1.1116,-1.0863,-1.0454,-0.9976,-0.9814,-0.9873,-0.9976,-1.0035,-1.0293,-1.071,-1.0913,-1.1217,-1.1678,-1.19,-1.2098,-1.2344,-1.2598,-1.2803,-1.2949,-1.3055,-1.3104,-1.3152,-1.3152,-1.3065,-1.2978,-1.3007,-1.3017,-1.3027,-1.3113,-1.3104,-1.3055,-1.3104,-1.3017,-1.2881,-1.2881,-1.2881,-1.2929,-1.3007,-1.32,-1.3344,-1.3525,-1.361,-1.3695,-1.3752,-1.3742,-1.3658,-1.361,-1.3267,-1.2842,-1.2333,-1.1804,-1.1271,-1.0835,-1.0577,0.0,-1.0745,-1.0893,-1.1079,-1.1276,-1.1512,-1.1606,-1.1606,0.0,0.0,-1.1855,-1.21,-1.218,-1.218,-1.2656,-1.2881,-1.2881,-1.2881,-1.2881,-1.2881,-1.2881,-1.2881,-1.2881,-1.2881,-1.2881,-1.2881,-1.2881,-1.2881,-1.2881,-1.2881,-1.2881,-1.2881,-1.2881,-1.2881,-1.2881,-1.2881,-1.2881,-1.291,-1.2968,-1.3017,-1.3017,-1.3113,-1.3113,-1.3113,-1.3113,-1.3488,-1.3894,-1.4419,-1.4926,-1.5244,-1.5277,-1.4834,-1.428,-1.3763,-1.321,-1.2881,-1.2881,-1.2881,-1.2676,-1.2224,-1.2224,-1.2126,-1.1959,-1.1569,-1.1116,-1.0608,-1.0387,-1.0379,-1.0651,-1.0651,-1.0964,-1.151,-1.1769,-1.2017,-1.2363,-1.2725,-1.2957,-1.3006,-1.3362,-1.3505,-1.3505,-1.361,-1.361,-1.3505,-1.3467,-1.3344,-1.322,-1.3228,-1.3238,-1.322,-1.343,-1.3409,-1.3362,-1.3409,-1.3238,-1.3027,-1.2929,-1.2929,-1.3017,-1.3218,-1.3515,-1.3752,-1.3905,-1.4082,-1.4165,-1.4212,-1.4201,-1.4118,-1.3999,-1.3485,-1.29,-1.2284,-1.1746,-1.1196,-1.073,0.0,-1.0902,-1.1328,-1.1367,-1.1514,-1.1894,-1.1861,-1.1847,-1.1847,-1.1802,-1.1934,0.0,-1.2334,-1.2334,-1.2334,-1.2686,-1.2881,-1.2881,-1.2881,-1.2881,-1.2881,-1.2881,-1.2881,-1.2881,-1.2881,-1.2881,-1.2881,-1.2881,-1.2881,-1.2881,-1.2881,-1.2881,-1.2881,-1.2881,-1.2881,-1.2881,-1.2881,-1.2881,-1.2881,-1.343,-1.3478,-1.3621,-1.4093,-1.415,-1.415,-1.415,-1.4233,-1.4466,-1.4926,-1.5379,-1.5824,-1.625,-1.5501,-1.4789,-1.4326,-1.344,-1.2881,-1.2881,-1.2881,-1.2881,-1.2783,-1.2783,-1.2783,-1.2725,-1.2126,-1.1719,-1.1519,-1.1469,-1.1519,-1.1669,-1.1769,-1.2058,-1.2423,-1.257,-1.2919,-1.3372,-1.342,-1.36,-1.3826,-1.3873,-1.3931,-1.3931,-1.3931,-1.3931,-1.3884,-1.3763,-1.3726,-1.3678,-1.3573,-1.3621,-1.3678,-1.3716,-1.38,-1.3836,-1.3763,-1.3726,-1.3583,-1.3172,-1.3104,-1.3228,-1.3621,-1.3894,-1.4222,-1.4628,-1.4823,-1.5006,-1.5232,-1.5096,-1.4926,-1.488,-1.4389,-1.3731,-1.284,-1.2394,-1.1851,-1.1068,0.0,-1.1488,-1.1692,-1.2222,-1.2573,-1.2654,-1.2789,-1.2877,-1.2877,-1.2771,-1.2705,-1.2773,-1.2783,-1.2783,-1.2783,-1.2842,-1.2881,-1.2881,-1.2881,-1.2881,-1.2881,-1.2881,-1.2881,-1.2881,-1.2881,-1.2881,-1.2881,-1.2881,-1.2881,-1.2881,-1.2881,-1.2881,-1.2881,-1.2881,-1.2881,-1.2881,-1.2881,-1.2881,-1.2881,-1.3999,-1.4222,-1.4501,-1.4743,-1.4789,-1.4789,-1.4789,-1.4971,-1.5244,-1.5424,-1.5869,-1.6262,-1.6479,-1.568,-1.4926,-1.4419,-1.3488,-1.2881,-1.2881,-1.2881,-1.2881,-1.2881,-1.2881,-1.2968,-1.3045,-1.252,-1.2264,-1.2295,-1.2246,-1.2295,-1.2491,-1.2638,-1.2832,-1.316,-1.3447,-1.3742,-1.4046,-1.4316,-1.4501,-1.4582,-1.4766,-1.4812,-1.4812,-1.4812,-1.472,-1.4582,-1.4501,-1.4326,-1.414,-1.4165,-1.4176,-1.4186,-1.4419,-1.4444,-1.4387,-1.4455,-1.414,-1.3668,-1.344,-1.3488,-1.3716,-1.4046,-1.4419,-1.4777,-1.5142,-1.5367,-1.5513,-1.5659,-1.5558,-1.5468,-1.5367,-1.4834,-1.4227,-1.3669,-1.3126,0.0,0.0,-1.233,-1.2578,-1.288,-1.3075,-1.3257,-1.3428,-1.3318,-1.3248,-1.3248,-1.3142,-1.3045,-1.3045,-1.3017,-1.3036,-1.3036,-1.2929,-1.2881,-1.2881,-1.2881,-1.2881,-1.2881,-1.2881,-1.2881,-1.2881,-1.2881,-1.2881,-1.2881,-1.2881,-1.2881,-1.2881,-1.2881,-1.2881,-1.2881,-1.2881,-1.2881,-1.2881,-1.2881,-1.2881,-1.2929,-1.4697,-1.5017,-1.5289,-1.5424,-1.5412,-1.5412,-1.5412,-1.5736,-1.5957,-1.5957,-1.6262,-1.6522,-1.6522,-1.5768,-1.5017,-1.4466,-1.3583,-1.3065,-1.3065,-1.3162,-1.3162,-1.2929,-1.3027,-1.3152,-1.3266,-1.2949,-1.29,-1.3016,-1.2957,-1.3054,-1.3351,-1.3457,-1.3647,-1.3941,-1.4269,-1.4501,-1.4686,-1.5062,-1.5244,-1.5289,-1.5468,-1.5558,-1.5558,-1.5558,-1.5424,-1.5244,-1.5244,-1.496,-1.4686,-1.4858,-1.4766,-1.4743,-1.5108,-1.5096,-1.4994,-1.5142,-1.4686,-1.3978,-1.3847,-1.3962,-1.4197,-1.4512,-1.4926,-1.5289,-1.5603,-1.5836,-1.5925,-1.5957,-1.5969,-1.5925,-1.5812,-1.5271,-1.4748,-1.4425,0.0,0.0,0.0,-1.3448,-1.362,-1.4057,-1.3917,-1.3902,-1.4118,-1.3858,-1.361,-1.36,-1.3409,-1.3314,-1.3314,-1.32,-1.3113,-1.3027,-1.2929,-1.2881,-1.2881,-1.2881,-1.2881,-1.2881,-1.2881,-1.2881,-1.2881,-1.2881,-1.2881,-1.2881,-1.2881,-1.2881,-1.2881,-1.2881,-1.2881,-1.2881,-1.2881,-1.2881,-1.2881,-1.2881,-1.2929,-1.2978,-1.5603,-1.5703,-1.5881,-1.6306,-1.6392,-1.6392,-1.6392,-1.6436,-1.6436,-1.6436,-1.6479,-1.6522,-1.6522,-1.6044,-1.5379,-1.4466,-1.3905,-1.3573,-1.3573,-1.3999,-1.3858,-1.2929,-1.3344,-1.3573,-1.3573,-1.3668,-1.3716,-1.3716,-1.3836,-1.4025,-1.428,-1.4326,-1.4558,-1.5017,-1.5017,-1.5187,-1.5501,-1.5546,-1.5635,-1.5748,-1.5792,-1.5792,-1.5792,-1.5792,-1.5792,-1.5736,-1.5603,-1.5546,-1.5501,-1.5457,-1.5457,-1.5501,-1.5546,-1.5635,-1.5691,-1.5591,-1.5457,-1.5187,-1.4512,-1.4419,-1.4593,-1.5085,-1.54,-1.568,-1.6057,-1.6275,-1.6349,-1.6436,-1.6392,-1.6349,-1.6349,-1.5876,-1.5377,-1.4922,0.0,0.0,-1.3987,-1.4162,-1.439,-1.4607,-1.4752,-1.4778,-1.4651,-1.4466,-1.428,-1.4129,-1.3905,-1.3716,-1.3563,-1.3314,-1.3094,-1.2929,-1.2929,-1.2881,-1.2881,-1.2881,-1.2881,-1.2881,-1.2881,-1.2881,-1.2881,-1.2881,-1.2881,-1.2881,-1.2881,-1.2881,-1.2881,-1.2881,-1.2881,-1.2881,-1.2881,-1.2881,-1.2881,-1.2881,-1.2978,-1.3075,-1.6219,-1.6219,-1.6306,-1.6479,-1.6522,-1.6522,-1.6522,-1.6522,-1.6522,-1.6522,-1.6522,-1.6522,-1.6522,-1.6088,-1.5525,-1.488,-1.4651,-1.4547,-1.4547,-1.5266,-1.513,-1.3858,-1.3999,-1.4222,-1.4501,-1.428,-1.4326,-1.4605,-1.464,-1.4823,-1.5096,-1.5142,-1.5232,-1.5412,-1.5591,-1.5724,-1.5856,-1.6044,-1.6132,-1.6188,-1.6219,-1.6219,-1.6219,-1.6219,-1.6219,-1.6175,-1.6132,-1.5988,-1.5856,-1.5925,-1.5913,-1.5856,-1.6032,-1.6044,-1.6013,-1.5901,-1.5812,-1.5736,-1.5457,-1.5277,-1.5232,-1.5546,-1.578,-1.6044,-1.6275,-1.6392,-1.6479,-1.6479,-1.6479,-1.6479,-1.6479,-1.6262,-1.6015,-1.5733,0.0,-1.5353,-1.5235,-1.5348,-1.5425,-1.5524,-1.5472,-1.5379,-1.5198,-1.4971,-1.4789,-1.4628,-1.4419,-1.4244,-1.4093,-1.361,-1.319,-1.2929,-1.2978,-1.2978,-1.2881,-1.2881,-1.2881,-1.2881,-1.2881,-1.2881,-1.2881,-1.2881,-1.2881,-1.2881,-1.2881,-1.2881,-1.2881,-1.2881,-1.2881,-1.2881,-1.2881,-1.2881,-1.2929,-1.2978,-1.3065,-1.319,-1.6522,-1.6522,-1.6522,-1.6522,-1.6522,-1.6522,-1.6522,-1.6522,-1.6522,-1.6522,-1.6522,-1.6522,-1.6522,-1.6219,-1.5824,-1.5379,-1.5334,-1.5379,-1.5546,-1.612,-1.5944,-1.4651,-1.4605,-1.4789,-1.5108,-1.488,-1.4915,-1.5232,-1.5289,-1.5424,-1.5647,-1.568,-1.5768,-1.5856,-1.6032,-1.612,-1.6175,-1.6349,-1.6436,-1.6436,-1.6479,-1.6522,-1.6522,-1.6522,-1.6479,-1.6436,-1.6436,-1.6306,-1.6175,-1.6275,-1.6219,-1.6163,-1.6392,-1.6362,-1.6275,-1.6175,-1.6163,-1.6163,-1.6163,-1.6032,-1.5901,-1.5957,-1.6144,-1.6275,-1.6392,-1.6479,-1.6522,-1.6522,-1.6522,-1.6522,-1.6522,-1.6436,-1.6362,-1.6275,-1.6144,-1.6088,-1.6132,-1.6088,-1.6088,-1.6132,-1.6001,-1.5836,-1.568,-1.5513,-1.5334,-1.5187,-1.5017,-1.4697,-1.4373,-1.38,-1.3334,-1.3065,-1.3162,-1.3162,-1.3113,-1.3055,-1.2968,-1.2978,-1.2978,-1.2929,-1.2881,-1.2881,-1.2881,-1.2881,-1.2881,-1.2881,-1.2881,-1.2881,-1.2881,-1.2881,-1.2881,-1.2929,-1.2978,-1.3065,-1.3238,-1.3467,-1.6522,-1.6522,-1.6522,-1.6522,-1.6522,-1.6522,-1.6522,-1.6522,-1.6522,-1.6522,-1.6522,-1.6522,-1.6522,-1.6522,-1.6306,-1.5836,-1.5792,-1.6013,-1.6479,-1.6522,-1.6076,-1.5153,-1.5108,-1.5108,-1.5108,-1.5457,-1.5591,-1.5591,-1.5736,-1.5869,-1.5988,-1.5988,-1.6132,-1.6392,-1.6392,-1.6436,-1.6522,-1.6522,-1.6522,-1.6522,-1.6522,-1.6522,-1.6522,-1.6522,-1.6522,-1.6522,-1.6522,-1.6522,-1.6522,-1.6522,-1.6522,-1.6522,-1.6522,-1.6522,-1.6522,-1.6522,-1.6522,-1.6522,-1.6522,-1.6522,-1.6479,-1.6436,-1.6392,-1.6436,-1.6479,-1.6522,-1.6522,-1.6522,-1.6522,-1.6522,-1.6522,-1.6436,-1.6392,-1.6392,-1.6275,-1.6231,-1.6392,-1.6275,-1.6231,-1.6392,-1.6275,-1.6144,-1.6044,-1.5988,-1.5957,-1.5792,-1.5603,-1.5142,-1.4269,-1.38,-1.3515,-1.3409,-1.342,-1.3467,-1.3621,-1.3314,-1.319,-1.3085,-1.3085,-1.3027,-1.2881,-1.2881,-1.2881,-1.2881,-1.2881,-1.2881,-1.2881,-1.2881,-1.2881,-1.2881,-1.2881,-1.2988,-1.3123,-1.318,-1.3467,-1.3868,-1.6522,-1.6522,-1.6522,-1.6522,-1.6522,-1.6522,-1.6522,-1.6522,-1.6522,-1.6522,-1.6522,-1.6522,-1.6522,-1.6522,-1.6436,-1.6306,-1.6306,-1.6349,-1.6479,-1.6522,-1.6392,-1.6076,-1.6076,-1.6044,-1.5881,-1.6132,-1.6163,-1.6088,-1.6144,-1.6219,-1.6349,-1.6349,-1.6392,-1.6479,-1.6479,-1.6479,-1.6522,-1.6522,-1.6522,-1.6522,-1.6522,-1.6522,-1.6522,-1.6522,-1.6522,-1.6522,-1.6522,-1.6522,-1.6522,-1.6522,-1.6522,-1.6522,-1.6522,-1.6522,-1.6522,-1.6522,-1.6522,-1.6522,-1.6522,-1.6522,-1.6522,-1.6479,-1.6479,-1.6479,-1.6522,-1.6522,-1.6522,-1.6522,-1.6522,-1.6522,-1.6522,-1.6479,-1.6479,-1.6479,-1.6392,-1.6362,-1.6392,-1.6275,-1.6231,-1.6392,-1.6362,-1.6318,-1.6262,-1.6262,-1.6231,-1.61,-1.5736,-1.5232,-1.4571,-1.4316,-1.4035,-1.3836,-1.3988,-1.414,-1.414,-1.3705,-1.3478,-1.344,-1.3344,-1.3286,-1.3238,-1.3113,-1.3036,-1.3036,-1.2929,-1.2929,-1.3036,-1.3036,-1.3113,-1.3238,-1.3238,-1.3334,-1.3488,-1.3668,-1.3952,-1.428,-1.6522,-1.6522,-1.6522,-1.6522,-1.6522,-1.6522,-1.6522,-1.6522,-1.6522,-1.6522,-1.6522,-1.6522,-1.6522,-1.6522,-1.6522,-1.6522,-1.6522,-1.6522,-1.6522,-1.6522,-1.6522,-1.6522,-1.6522,-1.6436,-1.6318,-1.6436,-1.6479,-1.6392,-1.6392,-1.6436,-1.6522,-1.6522,-1.6522,-1.6522,-1.6522,-1.6522,-1.6522,-1.6522,-1.6522,-1.6522,-1.6522,-1.6522,-1.6522,-1.6522,-1.6522,-1.6522,-1.6522,-1.6522,-1.6522,-1.6522,-1.6522,-1.6522,-1.6522,-1.6522,-1.6522,-1.6522,-1.6522,-1.6522,-1.6522,-1.6522,-1.6522,-1.6522,-1.6522,-1.6522,-1.6522,-1.6522,-1.6522,-1.6522,-1.6522,-1.6522,-1.6522,-1.6522,-1.6522,-1.6522,-1.6436,-1.6392,-1.6392,-1.6275,-1.6231,-1.6392,-1.6392,-1.6392,-1.6436,-1.6436,-1.6362,-1.62,-1.578,-1.5322,-1.4903,-1.4605,-1.4373,-1.4222,-1.4373,-1.4477,-1.4581,-1.4244,-1.3999,-1.3894,-1.38,-1.361,-1.3467,-1.3238,-1.3113,-1.3085,-1.3027,-1.3027,-1.3162,-1.3258,-1.3392,-1.3563,-1.36,-1.3742,-1.3952,-1.415,-1.4466,-1.4823,-1.6522,-1.6522,-1.6522,-1.6522,-1.6522,-1.6522,-1.6522,-1.6522,-1.6522,-1.6522,-1.6522,-1.6522,-1.6522,-1.6522,-1.6522,-1.6522,-1.6522,-1.6522,-1.6522,-1.6522,-1.6522,-1.6522,-1.6522,-1.6522,-1.6522,-1.6522,-1.6522,-1.6522,-1.6522,-1.6522,-1.6522,-1.6522,-1.6522,-1.6522,-1.6522,-1.6522,-1.6522,-1.6522,-1.6522,-1.6522,-1.6522,-1.6522,-1.6522,-1.6522,-1.6522,-1.6522,-1.6522,-1.6522,-1.6522,-1.6522,-1.6522,-1.6522,-1.6522,-1.6522,-1.6522,-1.6522,-1.6522,-1.6522,-1.6522,-1.6522,-1.6522,-1.6522,-1.6522,-1.6522,-1.6522,-1.6522,-1.6522,-1.6522,-1.6522,-1.6522,-1.6522,-1.6522,-1.6522,-1.6522,-1.6436,-1.6392,-1.6392,-1.6275,-1.6231,-1.6349,-1.6392,-1.6392,-1.6479,-1.6522,-1.6436,-1.6244,-1.5869,-1.5501,-1.5153,-1.48,-1.4627,-1.4627,-1.4627,-1.4673,-1.4822,-1.4822,-1.4719,-1.4419,-1.428,-1.4035,-1.3658,-1.3362,-1.319,-1.3123,-1.3123,-1.3152,-1.3266,-1.3563,-1.3763,-1.3905,-1.4035,-1.4269,-1.4512,-1.4662,-1.4971,-1.5355,-1.6522,-1.6522,-1.6522,-1.6522,-1.6522,-1.6522,-1.6522,-1.6522,-1.6522,-1.6522,-1.6522,-1.6522,-1.6522,-1.6522,-1.6522,-1.6522,-1.6522,-1.6522,-1.6522,-1.6522,-1.6522,-1.6522,-1.6522,-1.6522,-1.6522,-1.6522,-1.6522,-1.6522,-1.6522,-1.6522,-1.6522,-1.6522,-1.6522,-1.6522,-1.6522,-1.6522,-1.6522,-1.6522,-1.6522,-1.6522,-1.6522,-1.6522,-1.6522,-1.6522,-1.6522,-1.6522,-1.6522,-1.6522,-1.6522,-1.6522,-1.6522,-1.6522,-1.6522,-1.6522,-1.6522,-1.6522,-1.6522,-1.6522,-1.6522,-1.6522,-1.6522,-1.6522,-1.6522,-1.6522,-1.6522,-1.6522,-1.6522,-1.6522,-1.6522,-1.6522,-1.6522,-1.6522,-1.6522,-1.6522,-1.6362,-1.6231,-1.6231,-1.6013,-1.5981,-1.6188,-1.6231,-1.6318,-1.6479,-1.6522,-1.6436,-1.6244,-1.6001,-1.5768,-1.5424,-1.5153,-1.4926,-1.4823,-1.4823,-1.4869,-1.4869,-1.4971,-1.4949,-1.473,-1.4477,-1.428,-1.4082,-1.3705,-1.3467,-1.3334,-1.3334,-1.3478,-1.3668,-1.3941,-1.4305,-1.4686,-1.4823,-1.5017,-1.5289,-1.5367,-1.5501,-1.5736,-1.6522,-1.6522,-1.6522,-1.6522,-1.6522,-1.6522,-1.6522,-1.6522,-1.6522,-1.6522,-1.668,-1.6808,-1.6808,-1.665,-1.6607,-1.6808,-1.6735,-1.6693,-1.6735,-1.6693,-1.6693,-1.6735,-1.6735,-1.6735,-1.6735,-1.6735,-1.665,-1.6522,-1.6522,-1.6522,-1.6522,-1.6522,-1.6522,-1.6522,-1.6522,-1.6522,-1.6522,-1.6522,-1.6522,-1.6522,-1.6522,-1.6522,-1.6522,-1.6522,-1.6522,-1.6522,-1.6522,-1.6522,-1.6522,-1.6522,-1.6522,-1.6522,-1.6522,-1.6522,-1.6522,-1.6522,-1.6522,-1.6522,-1.6522,-1.6522,-1.6522,-1.6522,-1.6522,-1.6522,-1.6522,-1.6522,-1.6522,-1.6522,-1.6522,-1.6522,-1.6522,-1.6522,-1.6479,-1.6479,-1.6275,-1.61,-1.6013,-1.5836,-1.5836,-1.61,-1.6144,-1.6275,-1.6436,-1.6436,-1.6349,-1.6132,-1.5957,-1.5736,-1.5435,-1.5153,-1.4915,-1.4686,-1.4593,-1.4536,-1.449,-1.4536,-1.4501,-1.443,-1.4477,-1.4373,-1.4176,-1.38,-1.3563,-1.3515,-1.3563,-1.3763,-1.4093,-1.4455,-1.4869,-1.5187,-1.5379,-1.5558,-1.5724,-1.5768,-1.5913,-1.6132,-1.6522,-1.6522,-1.6522,-1.6522,-1.6522,-1.6522,-1.6522,-1.6565,-1.6607,-1.6607,-1.7031,-1.7365,-1.7406,-1.7144,-1.7047,-1.7323,-1.7157,-1.7086,-1.7086,-1.7002,-1.7002,-1.7086,-1.7073,-1.7073,-1.7086,-1.7086,-1.6905,-1.6522,-1.6522,-1.6522,-1.6522,-1.6522,-1.6565,-1.6565,-1.6565,-1.6565,-1.6522,-1.6522,-1.6522,-1.6522,-1.6522,-1.6522,-1.6522,-1.6522,-1.6522,-1.6522,-1.6522,-1.6522,-1.6522,-1.6522,-1.6522,-1.6522,-1.6522,-1.6522,-1.6522,-1.6522,-1.6522,-1.6522,-1.6522,-1.6522,-1.6522,-1.6522,-1.6522,-1.6522,-1.6522,-1.6522,-1.6522,-1.6522,-1.6522,-1.6522,-1.6522,-1.6479,-1.6479,-1.6392,-1.6132,-1.5901,-1.5792,-1.5659,-1.5703,-1.5913,-1.6088,-1.6275,-1.6392,-1.6392,-1.6306,-1.6032,-1.5913,-1.5703,-1.5345,-1.5051,-1.4731,-1.4419,-1.4233,-1.4082,-1.3931,-1.3931,-1.3931,-1.3931,-1.4233,-1.4291,-1.4129,-1.381,-1.3668,-1.3668,-1.3868,-1.414,-1.4558,-1.5017,-1.5379,-1.5647,-1.5836,-1.5957,-1.6076,-1.6076,-1.6219,-1.6436,-1.6522,-1.6522,-1.6522,-1.6522,-1.6522,-1.6522,-1.6522,-1.685,-1.7115,-1.7115,-1.7502,-1.7963,-1.8268,-1.8567,-1.8553,-1.8029,-1.7814,-1.7598,-1.7352,-1.7365,-1.7365,-1.7352,-1.7393,-1.7393,-1.7352,-1.7352,-1.7115,-1.6675,-1.6675,-1.6675,-1.6675,-1.6675,-1.6705,-1.6833,-1.6833,-1.6791,-1.6675,-1.6675,-1.662,-1.6522,-1.6522,-1.6522,-1.6522,-1.6522,-1.6522,-1.6522,-1.6522,-1.6522,-1.6522,-1.6522,-1.6522,-1.6522,-1.6522,-1.6522,-1.6522,-1.6522,-1.6522,-1.6522,-1.6522,-1.6522,-1.6522,-1.6522,-1.6522,-1.6522,-1.6522,-1.6522,-1.6522,-1.6522,-1.6522,-1.6522,-1.6522,-1.6436,-1.6362,-1.6231,-1.5913,-1.5635,-1.5558,-1.5435,-1.5435,-1.5635,-1.6088,-1.6392,-1.6392,-1.6392,-1.6306,-1.6032,-1.6001,-1.5824,-1.5468,-1.5096,-1.4731,-1.4419,-1.4046,-1.381,-1.3658,-1.3658,-1.3658,-1.3658,-1.361,-1.3658,-1.3858,-1.3821,-1.3821,-1.3962,-1.4337,-1.4708,-1.5017,-1.5367,-1.578,-1.61,-1.6275,-1.6349,-1.6423,-1.6423,-1.6479,-1.6479,-1.6892,-1.6892,-1.6892,-1.6892,-1.6892,-1.6989,-1.724,-1.7461,-1.7666,-1.7909,-1.8293,-1.8721,-1.9139,-1.9228,-1.9026,-1.8489,-1.8358,-1.8161,-1.7868,-1.7868,-1.7895,-1.7988,-1.8028,-1.8028,-1.8028,-1.7948,-1.772,-1.7323,-1.7073,-1.6918,-1.6876,-1.7002,-1.7115,-1.7199,-1.7199,-1.7115,-1.696,-1.6876,-1.6748,-1.662,-1.662,-1.6577,-1.6522,-1.6522,-1.6522,-1.6522,-1.6522,-1.6522,-1.6522,-1.6522,-1.6522,-1.6522,-1.6522,-1.6522,-1.6522,-1.6522,-1.6522,-1.6522,-1.6522,-1.6522,-1.6522,-1.6522,-1.6522,-1.6522,-1.6522,-1.6522,-1.6522,-1.6522,-1.6479,-1.6436,-1.6436,-1.6306,-1.6132,-1.5913,-1.5558,-1.5232,-1.5062,-1.5062,-1.5232,-1.5768,-1.6088,-1.6275,-1.6175,-1.6088,-1.5957,-1.5736,-1.5724,-1.5546,-1.5187,-1.488,-1.4512,-1.3952,-1.3658,-1.3382,-1.32,-1.32,-1.3258,-1.3306,-1.3248,-1.3392,-1.3668,-1.3668,-1.3858,-1.4244,-1.4523,-1.4926,-1.5412,-1.568,-1.6001,-1.6318,-1.6436,-1.6479,-1.6522,-1.6522,-1.6522,-1.6522]},{"header":{"parameterUnit":"m.s-1","parameterCategory":1,"la1":30.6,"la2":28.766,"lo1":-90.7593,"lo2":-88.6598,"dy":0.0162,"dx":0.0183,"nx":116,"ny":114,"refTime":"2024-07-05T00:00:00:Z","depth":0,"parameterNumber":3,"parameterNumberName":"V-component_of_WINDS"},"data":[0.0,0.0,0.0,0.0,0.0,0.0,0.0,0.0,0.0,0.0,0.0,0.0,0.0,0.0,0.0,0.0,0.0,0.0,0.0,0.0,0.0,0.0,0.0,0.0,0.0,0.0,0.0,0.0,0.0,0.0,0.0,0.0,0.0,0.0,0.0,0.0,0.0,0.0,0.0,0.0,0.0,0.0,0.0,0.0,0.0,0.0,0.0,0.0,0.0,0.0,0.0,0.0,0.0,0.0,0.0,0.0,0.0,0.0,0.0,0.0,0.0,0.0,0.0,0.0,0.0,0.0,0.0,0.0,0.0,0.0,0.0,0.0,0.0,0.0,0.0,0.0,0.0,0.0,0.0,0.0,0.0,0.0,0.0,0.0,0.0,0.0,0.0,0.0,0.0,0.0,0.0,0.0,0.0,0.0,0.0,0.0,0.0,0.0,0.0,0.0,0.0,0.0,0.0,0.0,0.0,0.0,0.0,0.0,0.0,0.0,0.0,0.0,0.0,0.0,0.0,0.0,0.0,0.0,0.0,0.0,0.0,0.0,0.0,0.0,0.0,0.0,0.0,0.0,0.0,0.0,0.0,0.0,0.0,0.0,0.0,0.0,0.0,0.0,0.0,0.0,0.0,0.0,0.0,0.0,0.0,0.0,0.0,0.0,0.0,0.0,0.0,0.0,0.0,0.0,0.0,0.0,0.0,0.0,0.0,0.0,0.0,0.0,0.0,0.0,0.0,0.0,0.0,0.0,0.0,0.0,0.0,0.0,0.0,0.0,0.0,0.0,0.0,0.0,0.0,0.0,0.0,0.0,0.0,0.0,0.0,0.0,0.0,0.0,0.0,0.0,0.0,0.0,0.0,0.0,0.0,0.0,0.0,0.0,0.0,0.0,0.0,0.0,0.0,0.0,0.0,0.0,0.0,0.0,0.0,0.0,0.0,0.0,0.0,0.0,0.0,0.0,0.0,0.0,0.0,0.0,0.0,0.0,0.0,0.0,0.0,0.0,0.0,0.0,0.0,0.0,0.0,0.0,0.0,0.0,0.0,0.0,0.0,0.0,0.0,0.0,0.0,0.0,0.0,0.0,0.0,0.0,0.0,0.0,0.0,0.0,0.0,0.0,0.0,0.0,0.0,0.0,0.0,0.0,0.0,0.0,0.0,0.0,0.0,0.0,0.0,0.0,0.0,0.0,0.0,0.0,0.0,0.0,0.0,0.0,0.0,0.0,0.0,0.0,0.0,0.0,0.0,0.0,0.0,0.0,0.0,0.0,0.0,0.0,0.0,0.0,0.0,0.0,0.0,0.0,0.0,0.0,0.0,0.0,0.0,0.0,0.0,0.0,0.0,0.0,0.0,0.0,0.0,0.0,0.0,0.0,0.0,0.0,0.0,0.0,0.0,0.0,0.0,0.0,0.0,0.0,0.0,0.0,0.0,0.0,0.0,0.0,0.0,0.0,0.0,0.0,0.0,0.0,0.0,0.0,0.0,0.0,0.0,0.0,0.0,0.0,0.0,0.0,0.0,0.0,0.0,0.0,0.0,0.0,0.0,0.0,0.0,0.0,0.0,0.0,0.0,0.0,0.0,0.0,0.0,0.0,0.0,0.0,0.0,0.0,0.0,0.0,0.0,0.0,0.0,0.0,0.0,0.0,0.0,0.0,0.0,0.0,0.0,0.0,0.0,0.0,0.0,0.0,0.0,0.0,0.0,0.0,0.0,0.0,0.0,0.0,0.0,0.0,0.0,0.0,0.0,0.0,0.0,0.0,0.0,0.0,0.0,0.0,0.0,0.0,0.0,0.0,0.0,0.0,0.0,0.0,0.0,0.0,0.0,0.0,0.0,0.0,0.0,0.0,0.0,0.0,0.0,0.0,0.0,0.0,0.0,0.0,0.0,0.0,0.0,0.0,0.0,0.0,0.0,0.0,0.0,0.0,0.0,0.0,0.0,0.0,0.0,0.0,0.0,0.0,0.0,0.0,0.0,0.0,0.0,0.0,0.0,0.0,0.0,0.0,0.0,0.0,0.0,0.0,0.0,0.0,0.0,0.0,0.0,0.0,0.0,0.0,0.0,0.0,0.0,0.0,0.0,0.0,0.0,0.0,0.0,0.0,0.0,0.0,0.0,0.0,0.0,0.0,0.0,0.0,0.0,0.0,0.0,0.0,0.0,0.0,0.0,0.0,0.0,0.0,0.0,0.0,0.0,0.0,0.0,0.0,0.0,0.0,0.0,0.0,0.0,0.0,0.0,0.0,0.0,0.0,0.0,0.0,0.0,0.0,0.0,0.0,0.0,0.0,0.0,0.0,0.0,0.0,0.0,0.0,0.0,0.0,0.0,0.0,0.0,0.0,0.0,0.0,0.0,0.0,0.0,0.0,0.0,0.0,0.0,0.0,0.0,0.0,0.0,0.0,0.0,0.0,0.0,0.0,0.0,0.0,0.0,0.0,0.0,0.0,0.0,0.0,0.0,0.0,0.0,0.0,0.0,0.0,0.0,0.0,0.0,0.0,0.0,0.0,0.0,0.0,0.0,0.0,0.0,0.0,0.0,0.0,0.0,0.0,0.0,0.0,0.0,0.0,0.0,0.0,0.0,0.0,0.0,0.0,0.0,0.0,0.0,0.0,0.0,0.0,0.0,0.0,0.0,0.0,0.0,0.0,0.0,0.0,0.0,0.0,0.0,0.0,0.0,0.0,0.0,0.0,0.0,0.0,0.0,0.0,0.0,0.0,0.0,0.0,0.0,0.0,0.0,0.0,0.0,0.0,0.0,0.0,0.0,0.0,0.0,0.0,0.0,0.0,0.0,0.0,0.0,0.0,0.0,0.0,0.0,0.0,0.0,0.0,0.0,0.0,0.0,0.0,0.0,0.0,0.0,0.0,0.0,0.0,0.0,0.0,0.0,0.0,0.0,0.0,0.0,0.0,0.0,0.0,0.0,0.0,0.0,0.0,0.0,0.0,0.0,0.0,0.0,0.0,0.0,0.0,0.0,0.0,0.0,0.0,0.0,0.0,0.0,0.0,0.0,0.0,0.0,0.0,0.0,0.0,0.0,0.0,0.0,0.0,0.0,0.0,0.0,0.0,0.0,0.0,0.0,0.0,0.0,0.0,0.0,0.0,0.0,0.0,0.0,0.0,0.0,0.0,0.0,0.0,0.0,0.0,0.0,0.0,0.0,0.0,0.0,0.0,0.0,0.0,0.0,0.0,0.0,0.0,0.0,0.0,0.0,0.0,0.0,0.0,0.0,0.0,0.0,0.0,0.0,0.0,0.0,0.0,0.0,0.0,0.0,0.0,0.0,0.0,0.0,0.0,0.0,0.0,0.0,0.0,0.0,0.0,0.0,0.0,0.0,0.0,0.0,0.0,0.0,0.0,0.0,0.0,0.0,0.0,0.0,0.0,0.0,0.0,0.0,0.0,0.0,0.0,0.0,0.0,0.0,0.0,0.0,0.0,0.0,0.0,0.0,0.0,0.0,0.0,0.0,0.0,0.0,0.0,0.0,0.0,0.0,0.0,0.0,0.0,0.0,0.0,0.0,0.0,0.0,0.0,0.0,0.0,0.0,0.0,0.0,0.0,0.0,0.0,0.0,0.0,0.0,0.0,0.0,0.0,0.0,0.0,0.0,0.0,0.0,0.0,0.0,0.0,0.0,0.0,0.0,0.0,0.0,0.0,0.0,0.0,0.0,0.0,0.0,0.0,0.0,0.0,0.0,0.0,0.0,0.0,0.0,0.0,0.0,0.0,0.0,0.0,0.0,0.0,0.0,0.0,0.0,0.0,0.0,0.0,0.0,0.0,0.0,0.0,0.0,0.0,0.0,0.0,0.0,0.0,0.0,0.0,0.0,0.0,0.0,0.0,0.0,0.0,0.0,0.0,0.0,0.0,0.0,0.0,0.0,0.0,0.0,0.0,0.0,0.0,0.0,0.0,0.0,0.0,0.0,0.0,0.0,0.0,0.0,0.0,0.0,0.0,0.0,0.0,0.0,0.0,0.0,0.0,0.0,0.0,0.0,0.0,0.0,0.0,0.0,0.0,0.0,0.0,0.0,0.0,0.0,0.0,0.0,0.0,0.0,0.0,0.0,0.0,0.0,0.0,0.0,0.0,0.0,0.0,0.0,0.0,0.0,0.0,0.0,0.0,0.0,0.0,0.0,0.0,0.0,0.0,0.0,0.0,0.0,0.0,0.0,0.0,0.0,0.0,0.0,0.0,0.0,0.0,0.0,0.0,0.0,0.0,0.0,0.0,0.0,0.0,0.0,0.0,0.0,0.0,0.0,0.0,0.0,0.0,0.0,0.0,0.0,0.0,0.0,0.0,0.0,0.0,0.0,0.0,0.0,0.0,0.0,0.0,0.0,0.0,0.0,0.0,0.0,0.0,0.0,0.0,0.0,0.0,0.0,0.0,0.0,0.0,0.0,0.0,0.0,0.0,0.0,0.0,0.0,0.0,0.0,0.0,0.0,0.0,0.0,0.0,0.0,0.0,0.0,0.0,0.0,0.0,0.0,0.0,0.0,0.0,0.0,0.0,0.0,0.0,0.0,0.0,0.0,0.0,0.0,0.0,0.0,0.0,0.0,0.0,0.0,0.0,0.0,0.0,0.0,0.0,0.0,0.0,0.0,0.0,0.0,0.0,0.0,0.0,0.0,0.0,0.0,0.0,0.0,0.0,0.0,0.0,0.0,0.0,0.0,0.0,0.0,0.0,0.0,0.0,0.0,0.0,0.0,0.0,0.0,0.0,0.0,0.0,0.0,0.0,0.0,0.0,0.0,0.0,0.0,0.0,0.0,0.0,0.0,0.0,0.0,0.0,0.0,0.0,0.0,0.0,0.0,0.0,0.0,0.0,0.0,0.0,0.0,0.0,0.0,0.0,0.0,0.0,0.0,0.0,0.0,0.0,0.0,0.0,0.0,0.0,0.0,0.0,0.0,0.0,0.0,0.0,0.0,0.0,0.0,0.0,0.0,0.0,0.0,0.0,0.0,0.0,0.0,0.0,0.0,0.0,0.0,0.0,0.0,0.0,0.0,0.0,0.0,0.0,0.0,0.0,0.0,0.0,0.0,0.0,0.0,0.0,0.0,0.0,0.0,0.0,0.0,0.0,0.0,0.0,0.0,0.0,0.0,0.0,0.0,0.0,0.0,0.0,0.0,0.0,0.0,0.0,0.0,0.0,0.0,0.0,0.0,0.0,0.0,0.0,0.0,0.0,0.0,0.0,0.0,0.0,0.0,0.0,0.0,0.0,0.0,0.0,0.0,0.0,0.0,0.0,0.0,0.0,0.0,0.0,0.0,0.0,0.0,0.0,0.0,0.0,0.0,0.0,0.0,0.0,0.0,0.0,0.0,0.0,0.0,0.0,0.0,0.0,0.0,0.0,0.0,0.0,0.0,0.0,0.0,0.0,0.0,0.0,0.0,0.0,0.0,0.0,0.0,0.0,0.0,0.0,0.0,0.0,0.0,0.0,0.0,0.0,0.0,0.0,0.0,0.0,0.0,0.0,0.0,0.0,0.0,0.0,0.0,0.0,0.0,0.0,0.0,0.0,0.0,0.0,0.0,0.0,0.0,0.0,0.0,0.0,0.0,0.0,0.0,0.0,0.0,0.0,0.0,0.0,0.0,0.0,0.0,0.0,0.0,0.0,0.0,0.0,0.0,0.0,0.0,0.0,0.0,0.0,0.0,0.0,0.0,0.0,0.0,0.0,0.0,0.0,0.0,0.0,0.0,0.0,0.0,0.0,0.0,0.0,0.0,0.0,0.0,0.0,0.0,0.0,0.0,0.0,0.0,0.0,0.0,0.0,0.0,0.0,0.0,0.0,0.0,0.0,0.0,0.0,0.0,0.0,0.0,0.0,0.0,0.0,0.0,0.0,0.0,0.0,0.0,0.0,0.0,0.0,0.0,0.0,0.0,0.0,0.0,0.0,0.0,0.0,0.0,0.0,0.0,0.0,0.0,0.0,0.0,0.0,0.0,0.0,0.0,0.0,0.0,0.0,0.0,0.0,0.0,0.0,0.0,0.0,0.0,0.0,0.0,0.0,0.0,0.0,0.0,0.0,0.0,0.0,0.0,0.0,0.0,0.0,0.0,0.0,0.0,0.0,-1.3902,0.0,0.0,0.0,0.0,0.0,0.0,0.0,0.0,0.0,0.0,0.0,0.0,0.0,0.0,0.0,0.0,0.0,0.0,0.0,0.0,0.0,0.0,0.0,0.0,-0.5207,-0.5474,-0.5951,-0.5993,-0.6195,-0.6635,0.0,0.0,0.0,0.0,0.0,-0.7598,-0.7624,-0.7637,-0.7597,-0.8399,-0.9176,-0.9901,-0.9896,-0.8899,-0.7088,0.0,0.0,0.0,0.0,0.0,0.0,0.0,0.0,0.0,0.0,0.0,0.0,0.0,0.0,0.0,0.0,0.0,0.0,0.0,0.0,0.0,0.0,0.0,0.0,0.0,0.0,0.0,0.0,0.0,0.0,0.0,0.0,0.0,0.0,0.0,0.0,0.0,0.0,0.0,0.0,0.0,0.0,0.0,0.0,0.0,0.0,0.0,0.0,0.0,0.0,0.0,0.0,0.0,0.0,0.0,0.0,0.0,0.0,0.0,0.0,0.0,0.0,0.0,0.0,0.0,0.0,0.0,0.0,0.0,0.0,0.0,-1.6594,0.0,0.0,0.0,0.0,0.0,0.0,0.0,0.0,0.0,0.0,0.0,0.0,0.0,0.0,0.0,0.0,0.0,0.0,0.0,0.0,0.0,-0.5124,-0.5877,-0.614,-0.657,-0.7359,-0.7437,-0.7505,-0.7658,-0.7715,0.0,0.0,0.0,-0.8077,-0.8153,-0.8144,-0.8197,-0.8277,-0.9805,-1.1296,-1.2743,-1.2743,-1.1356,-0.8822,-0.8513,0.0,0.0,0.0,0.0,0.0,0.0,0.0,0.0,0.0,0.0,0.0,0.0,0.0,0.0,0.0,0.0,0.0,0.0,0.0,0.0,0.0,0.0,0.0,0.0,0.0,0.0,0.0,0.0,0.0,0.0,0.0,0.0,0.0,0.0,0.0,0.0,0.0,0.0,0.0,0.0,0.0,0.0,0.0,0.0,0.0,0.0,0.0,0.0,0.0,0.0,0.0,0.0,0.0,0.0,0.0,0.0,0.0,0.0,0.0,0.0,0.0,0.0,0.0,0.0,-2.6175,-2.5618,-2.5058,-2.4843,-2.4803,-2.2214,-2.0853,-2.0336,0.0,0.0,0.0,0.0,0.0,0.0,0.0,0.0,0.0,0.0,0.0,0.0,0.0,0.0,0.0,0.0,0.0,0.0,0.0,0.0,-0.59,-0.6132,-0.6849,-0.7367,-0.756,-0.7575,-0.7895,-0.8662,-0.8712,0.0,0.0,-0.9848,-0.988,-0.9948,-0.9961,-1.0302,-1.0984,-1.1903,-1.2815,-1.3717,-1.3717,-1.3873,-1.4121,-1.2532,-1.1844,-1.1798,0.0,0.0,0.0,0.0,0.0,0.0,0.0,0.0,0.0,0.0,0.0,0.0,0.0,0.0,0.0,0.0,0.0,0.0,0.0,0.0,0.0,0.0,0.0,0.0,0.0,0.0,0.0,0.0,0.0,0.0,0.0,0.0,0.0,0.0,0.0,0.0,0.0,0.0,0.0,0.0,0.0,-0.9529,-1.1093,0.0,0.0,0.0,0.0,0.0,0.0,0.0,0.0,0.0,0.0,0.0,0.0,0.0,0.0,-2.3831,-2.4501,-2.6058,-2.8476,-2.946,-2.8779,-2.6633,-2.7273,-2.7974,-2.8622,-2.7479,0.0,-2.3367,-2.2391,0.0,0.0,0.0,0.0,0.0,0.0,0.0,0.0,0.0,0.0,0.0,0.0,0.0,0.0,0.0,0.0,0.0,0.0,0.0,0.0,0.0,-0.8037,-0.8495,-0.9012,-0.9071,-0.9223,-0.9601,-0.9625,-0.9826,-1.0243,-1.0256,-1.0272,-1.0308,-1.0742,-1.1856,-1.3649,-1.3953,-1.4792,-1.6094,-1.6091,-1.63,-1.6638,-1.5862,-1.4723,-1.3311,-1.2977,0.0,0.0,0.0,0.0,0.0,0.0,0.0,0.0,0.0,0.0,0.0,0.0,0.0,0.0,0.0,0.0,0.0,0.0,0.0,0.0,0.0,0.0,0.0,0.0,0.0,0.0,0.0,0.0,0.0,0.0,0.0,0.0,0.0,0.0,0.0,0.0,0.0,0.0,0.0,-1.0676,-1.2686,-1.3365,-1.3877,-1.4166,0.0,0.0,0.0,0.0,0.0,0.0,0.0,0.0,0.0,-1.7547,-1.9225,-2.2805,-2.8346,-2.8473,-2.933,-3.0925,-3.1622,-3.1389,-3.0353,-3.0742,-3.113,-3.1464,-3.1118,-3.001,-2.8254,-2.5947,-2.4729,-2.4083,0.0,0.0,0.0,0.0,0.0,-2.2724,0.0,0.0,0.0,0.0,0.0,0.0,0.0,0.0,0.0,0.0,0.0,0.0,-0.8689,-0.9266,-0.984,-1.0507,-1.0744,-1.0777,0.0,-1.0565,-1.0474,-1.0308,-1.0292,-1.0398,-1.0622,-1.1855,-1.3423,-1.5326,-1.5702,-1.6662,-1.8168,-1.8166,-1.829,-1.8485,-1.8547,-1.7229,-1.4966,-1.4535,-1.3633,0.0,0.0,0.0,0.0,0.0,0.0,0.0,0.0,0.0,0.0,0.0,0.0,0.0,0.0,0.0,0.0,0.0,0.0,0.0,0.0,0.0,0.0,0.0,0.0,0.0,0.0,0.0,0.0,0.0,0.0,0.0,0.0,0.0,0.0,0.0,0.0,0.0,0.0,-1.3149,-1.5131,-1.5803,-1.6512,-1.6997,0.0,0.0,0.0,0.0,0.0,0.0,-2.2051,-2.3326,-2.3172,-2.1397,-2.3127,-2.6247,-3.0739,-3.1584,-3.2593,-3.3738,-3.3373,-3.3161,-3.3072,-3.3051,-3.3167,-3.3371,-3.3219,-3.2926,-3.2317,-2.935,-2.7975,-2.754,-2.563,-2.5259,-2.5644,-2.444,-2.5344,-2.7301,0.0,0.0,0.0,0.0,0.0,0.0,0.0,0.0,0.0,0.0,0.0,-0.8735,-0.888,-1.0374,-1.1414,-1.1518,-1.2233,-1.2334,0.0,0.0,-1.1169,-1.0347,-1.0308,-1.0683,-1.1528,-1.3944,-1.5273,-1.5406,-1.6988,-1.8237,-1.9134,-1.9134,-1.9564,-2.0365,-2.0363,-1.9383,-1.7605,-1.6002,-1.5281,-1.4987,0.0,0.0,0.0,0.0,0.0,0.0,0.0,0.0,0.0,0.0,0.0,0.0,0.0,0.0,0.0,0.0,0.0,0.0,0.0,0.0,0.0,0.0,0.0,0.0,0.0,0.0,0.0,0.0,0.0,0.0,0.0,0.0,0.0,0.0,0.0,0.0,0.0,0.0,0.0,-1.8486,-1.8882,0.0,0.0,0.0,0.0,-2.2398,-2.2537,-2.3281,-2.4996,-2.6774,-2.6969,-2.5278,-2.6911,-2.875,-3.0685,-3.3735,-3.5329,-3.5469,-3.4315,-3.3493,-3.301,-3.2935,-3.3359,-3.4108,-3.3342,-3.3487,-3.4139,-3.244,-3.1255,-3.0488,-3.035,-3.0328,-3.0368,-3.0272,-3.0898,-3.1777,0.0,0.0,0.0,-0.4808,-0.4799,-0.4797,-0.4797,-0.5534,-0.6334,-0.6955,-0.8106,-0.9292,0.0,-1.1123,-1.1752,-1.2371,-1.2667,-1.2682,-1.239,-1.2364,-1.2221,-1.1922,-1.1915,-1.2572,-1.4001,-1.4931,-1.648,-1.8671,-1.9277,-2.0312,-2.1717,-2.1716,-2.1872,-2.2165,-2.2165,-2.1835,-2.1093,-1.8861,-1.7254,-1.6101,-1.4639,-1.3611,0.0,0.0,0.0,0.0,0.0,0.0,0.0,0.0,0.0,0.0,0.0,0.0,0.0,0.0,0.0,0.0,0.0,0.0,0.0,0.0,0.0,0.0,0.0,0.0,0.0,0.0,0.0,0.0,0.0,0.0,0.0,0.0,0.0,0.0,0.0,0.0,0.0,-2.0554,-2.1757,0.0,0.0,-2.3332,-2.4122,-2.5299,-2.5369,-2.6356,-2.858,-2.932,-2.9932,-3.0496,-3.1084,-3.2154,-3.3763,-3.4931,-3.552,-3.5528,-3.5097,-3.4795,-3.4635,-3.5122,-3.5507,-3.5809,-3.61,-3.6428,-3.674,-3.6212,-3.4561,-3.2374,-3.2361,-3.238,-3.2373,-3.2368,-3.2949,-3.3799,-0.4763,-0.4764,0.0,-0.476,-0.4769,-0.4772,-0.4804,-0.5787,-0.6767,-0.744,-0.8832,-1.0196,-1.1366,-1.2023,-1.2626,-1.3256,-1.3526,-1.3556,-1.3257,-1.3248,-1.3101,-1.2772,-1.3325,-1.418,-1.5343,-1.652,-1.8228,-2.0462,-2.1023,-2.1896,-2.3023,-2.3036,-2.3036,-2.304,-2.3062,-2.3065,-2.2954,-2.1253,-1.9566,-1.7871,-1.6738,-1.5469,-1.4042,0.0,0.0,0.0,0.0,0.0,0.0,0.0,0.0,0.0,0.0,0.0,0.0,0.0,0.0,0.0,0.0,0.0,0.0,0.0,0.0,0.0,0.0,0.0,0.0,0.0,0.0,0.0,0.0,0.0,0.0,0.0,0.0,0.0,0.0,0.0,-2.1708,-2.2845,-2.4255,-2.5361,-2.5894,-2.6407,-2.7181,-2.8333,-2.8429,-2.9295,-3.1297,-3.1693,-3.2348,-3.3465,-3.4177,-3.5121,-3.6334,-3.6526,-3.6603,-3.6603,-3.643,-3.6353,-3.6372,-3.6911,-3.7142,-3.718,-3.7747,-3.8026,-3.8073,-3.8112,-3.6859,-3.4913,-3.4929,-3.4951,-3.4954,-3.4956,-3.532,-3.5892,-0.4715,-0.4706,-0.4702,-0.4693,-0.4693,-0.4728,-0.4781,-0.6283,-0.7452,-0.7573,-0.9816,-1.1447,-1.1529,-1.3073,-1.4116,-1.4137,-1.4912,-1.5036,-1.4197,-1.4145,-1.3733,-1.2854,-1.443,-1.5373,-1.5458,-1.8779,-2.0493,-2.0512,-2.2131,-2.294,-2.2959,-2.2959,-2.2972,-2.2966,-2.304,-2.3062,-2.3062,-2.3062,-2.2126,-2.0474,-1.8781,-1.7084,-1.5363,0.0,0.0,0.0,0.0,0.0,0.0,0.0,0.0,0.0,0.0,0.0,0.0,0.0,0.0,0.0,0.0,0.0,0.0,0.0,0.0,0.0,0.0,0.0,0.0,0.0,0.0,0.0,0.0,0.0,0.0,0.0,0.0,0.0,-1.9348,-2.1463,-2.373,-2.5379,-2.6377,-2.7518,-2.9087,-2.9225,-2.9875,-3.1506,-3.1621,-3.2042,-3.2971,-3.3855,-3.4241,-3.4013,-3.608,-3.7467,-3.8027,-3.8527,-3.8777,-3.8757,-3.8238,-3.8007,-3.8007,-3.8027,-3.8046,-3.8046,-3.8065,-3.808,-3.807,-3.807,-3.8111,-3.8177,-3.8194,-3.8209,-3.821,-3.8199,-3.8208,-3.8257,-0.4715,-0.4693,-0.4697,-0.471,-0.4697,-0.4724,-0.48,-0.6286,-0.7459,-0.7576,-0.981,-1.1667,-1.2365,-1.343,-1.4342,-1.4986,-1.5262,-1.5302,-1.5067,-1.5004,-1.5119,-1.5447,-1.5906,-1.7068,-1.8966,-1.9895,-2.1243,-2.3074,-2.3501,-2.4,-2.4581,-2.4581,-2.4562,-2.4571,-2.4636,-2.4673,-2.467,-2.4664,-2.407,-2.2976,-2.1399,-2.0121,-1.8838,0.0,0.0,0.0,0.0,0.0,0.0,0.0,0.0,0.0,0.0,0.0,0.0,0.0,0.0,0.0,0.0,0.0,0.0,0.0,0.0,0.0,0.0,0.0,0.0,0.0,0.0,0.0,0.0,0.0,0.0,0.0,0.0,-2.2165,-2.1957,-2.4139,-2.6142,-2.7195,-2.852,-2.9496,-2.9879,-3.0904,-3.1785,-3.2292,-3.2383,-3.2809,-3.3755,-3.4614,-3.5468,-3.6265,-3.6881,-3.7637,-3.8565,-3.8719,-3.8604,-3.8219,-3.8065,-3.8007,-3.8027,-3.8642,-3.8931,-3.8969,-3.9546,-3.9811,-3.9811,-3.9811,-3.9826,-3.974,-3.8582,-3.816,-3.8202,-3.8191,-3.8597,-3.9247,-0.4719,-0.4706,-0.4683,-0.467,-0.4679,-0.4832,-0.5242,-0.6505,-0.7559,-0.8008,-0.999,-1.1578,-1.2142,-1.332,-1.425,-1.4762,-1.5148,-1.5357,-1.5315,-1.5594,-1.5978,-1.6439,-1.7484,-1.8782,-2.032,-2.1347,-2.2566,-2.4023,-2.4312,-2.4666,-2.5065,-2.5068,-2.5091,-2.5122,-2.5192,-2.5212,-2.522,-2.5215,-2.4957,-2.4499,-2.3655,-2.2785,-2.1698,-1.8718,-1.7582,-1.7569,-1.7504,-1.7486,-1.7476,-1.7399,0.0,0.0,0.0,0.0,0.0,0.0,0.0,0.0,0.0,0.0,0.0,0.0,0.0,0.0,0.0,0.0,0.0,0.0,0.0,0.0,0.0,0.0,0.0,0.0,-2.3689,-2.5226,-2.5925,-2.7019,-2.8054,-2.883,-2.9987,-3.0929,-3.1489,-3.2327,-3.2995,-3.341,-3.3843,-3.4367,-3.4996,-3.5898,-3.6746,-3.7478,-3.7877,-3.8373,-3.8988,-3.9335,-3.9354,-3.9046,-3.9046,-3.9046,-3.9065,-3.9565,-3.9796,0.0,-4.0296,-4.0489,-4.0489,-4.0489,-4.0489,0.0,0.0,0.0,0.0,0.0,-3.9482,-3.9998,-0.4719,-0.4706,-0.4679,-0.4606,-0.4647,-0.4998,-0.5872,-0.6799,-0.7707,-0.8589,-1.0216,-1.1301,-1.1374,-1.2843,-1.3826,-1.3822,-1.4639,-1.5159,-1.5187,-1.5942,-1.6465,-1.6654,-1.8934,-2.035,-2.0699,-2.2862,-2.4005,-2.4011,-2.473,-2.5003,-2.4874,-2.4865,-2.4922,-2.4956,-2.5037,-2.5075,-2.5057,-2.5075,-2.5107,-2.5184,-2.5321,-2.482,-2.3816,-2.1891,-2.106,-2.0902,-2.1035,-2.0823,-2.0497,-2.0423,0.0,0.0,0.0,0.0,0.0,0.0,0.0,0.0,0.0,0.0,0.0,0.0,0.0,0.0,0.0,0.0,0.0,0.0,0.0,0.0,0.0,0.0,0.0,0.0,-2.6676,-2.8713,-3.0235,-2.9886,-2.9698,-3.0362,-3.1081,-3.2007,-3.3278,-3.3475,-3.3864,-3.4636,-3.5571,-3.6211,-3.6425,0.0,0.0,0.0,0.0,-3.9431,-3.9431,-4.0142,-4.0489,-4.0489,-4.0489,-4.0489,-4.0489,-4.0585,-4.0642,-4.0642,-4.0739,-4.0777,-4.0777,-4.0777,-4.0777,-4.0758,-4.0566,-4.0489,-4.0489,-4.0489,-4.0489,-4.0504,-0.471,-0.4706,-0.4679,-0.4606,-0.4647,-0.4998,-0.5872,-0.6747,-0.7645,-0.8575,-1.0176,-1.1247,-1.1312,-1.2199,-1.279,-1.2786,-1.3599,-1.4378,0.0,0.0,-1.6917,-1.8283,-1.9477,-2.1082,-2.3149,-2.3665,-2.4205,-2.4784,-2.4892,-2.4847,-2.467,-2.4723,-2.4723,-2.4685,-2.4804,-2.4865,-2.4851,-2.487,-2.4926,-2.5051,-2.519,-2.4808,-2.4205,-2.4577,-2.3845,-2.2798,-2.4186,-2.2886,-2.0497,-2.0423,-1.9954,-1.8819,-1.5396,0.0,0.0,0.0,0.0,0.0,0.0,0.0,0.0,0.0,0.0,0.0,0.0,0.0,0.0,0.0,0.0,0.0,0.0,0.0,0.0,-2.7486,-2.9106,-3.0362,-3.1848,-3.1792,-3.1684,-3.1853,-3.2487,-3.3008,-3.3219,-3.4298,-3.5112,-3.5381,-3.6283,-3.6933,-3.7242,-3.8213,0.0,-3.893,-3.9819,-4.0258,-4.0258,-4.0412,-4.0489,-4.0489,0.0,0.0,-4.0508,-4.1239,-4.1546,-4.1585,-4.2297,-4.2604,-4.2604,-4.2604,-4.2604,-4.245,-4.1046,-4.0489,-4.0489,-4.0489,-4.0489,-4.0504,-0.4715,-0.4697,-0.4683,-0.4664,-0.5012,-0.5586,-0.6473,-0.7333,-0.821,-0.9089,-0.9926,-1.0464,-1.0501,-1.1219,-1.1698,-1.1699,-1.2854,0.0,0.0,-1.6319,-1.7546,-1.9237,-2.0547,-2.2052,-2.3747,-2.4231,-2.4607,-2.4955,-2.4879,-2.4753,-2.4543,-2.458,-2.4547,-2.4462,-2.4596,-2.4596,-2.4495,-2.4578,-2.4738,-2.4964,-2.5099,-2.4985,-2.4806,-2.5369,-2.5085,-2.4464,-2.5342,-2.4519,-2.2998,-2.2965,-2.181,-2.0115,-1.8435,-1.6335,-1.3995,0.0,0.0,0.0,0.0,0.0,0.0,0.0,0.0,0.0,0.0,0.0,0.0,0.0,0.0,-2.107,0.0,0.0,-2.6804,-2.9301,-3.072,-3.1866,-3.2895,-3.2845,-3.2708,-3.2748,-3.2978,-3.344,-3.4117,-3.4851,-3.5473,-3.5959,-3.6926,-3.7638,-3.7885,-3.8955,-3.9603,-3.9763,-4.023,-4.07,-4.1143,-4.1143,-4.1373,-4.1797,-4.1797,-4.1797,-4.1816,-4.2258,-4.245,-4.247,-4.2912,-4.3104,-4.3104,-4.3104,-4.3104,-4.3008,-4.2143,-4.1797,-4.1797,-4.1797,-4.1797,-4.1813,-0.4723,-0.472,-0.47,-0.4696,-0.5371,-0.619,-0.7057,-0.7934,-0.877,-0.9584,-0.9688,-0.9669,-0.9658,-1.0223,-1.0676,0.0,0.0,0.0,0.0,-1.6649,-1.807,-1.9919,-2.1517,-2.283,-2.3865,-2.4593,-2.4921,-2.4861,-2.4813,-2.4676,-2.4478,-2.4464,-2.4393,-2.4284,-2.4375,-2.4358,-2.4209,-2.4373,-2.4623,-2.4917,-2.505,-2.5168,-2.5292,-2.541,-2.5506,-2.5554,-2.5557,-2.5503,-2.5468,-2.5468,-2.3202,-2.0429,-2.0487,-1.9577,-1.7835,-1.4587,-1.3473,0.0,0.0,0.0,0.0,0.0,0.0,0.0,0.0,0.0,-2.176,-2.2359,-2.3842,-2.5562,-2.724,-2.8714,-2.9963,-3.086,-3.2096,-3.3137,-3.3734,-3.3592,-3.3421,-3.3377,-3.3255,-3.3704,-3.508,-3.5331,-3.5745,-3.6564,-3.7617,-3.8327,-3.8507,-3.9518,-4.0158,-4.0307,-4.0598,-4.1085,-4.1797,-4.197,-4.2412,-4.3104,-4.3104,-4.3104,-4.3104,-4.3258,-4.3335,-4.3335,-4.3508,-4.3585,-4.3585,-4.3585,-4.3585,-4.3585,-4.3585,-4.3585,-4.3547,-4.322,-4.3104,-4.3085,-0.4781,-0.4741,-0.4693,-0.4706,-0.5376,-0.6199,-0.7068,-0.7891,-0.8725,-0.9581,-0.9646,-0.9591,-0.953,-0.9563,-0.9861,-1.0563,0.0,0.0,-1.454,-1.6146,-1.8129,-2.0579,-2.1682,-2.2955,-2.455,-2.4741,-2.4779,-2.4719,-2.4723,-2.4613,-2.4412,-2.4358,-2.4284,-2.4209,-2.4228,-2.4209,-2.4209,-2.453,-2.4764,-2.4902,-2.5057,-2.5141,-2.5209,-2.5284,-2.535,-2.5412,-2.534,-2.5332,-2.5322,-2.5322,-2.3161,-2.0488,-2.0496,-1.902,-1.7193,-1.6758,0.0,-1.5345,-1.6786,-1.8266,-1.9613,-2.0527,-2.1404,-2.206,0.0,0.0,-2.5909,-2.5943,-2.7282,-2.8945,-3.0633,-3.1167,-3.1826,-3.3349,-3.3681,-3.3965,-3.4489,-3.4392,-3.4186,-3.3926,-3.3843,-3.4179,-3.511,-3.579,-3.6544,-3.7393,-3.8396,-3.9088,-3.9352,-3.9778,-4.0101,-4.0288,-4.1193,-4.17,-4.1797,-4.2566,-4.3008,-4.3104,-4.3104,-4.3104,-4.3124,-4.3835,-4.4162,-4.4201,-4.497,-4.5316,-4.5316,-4.5316,-4.5316,-4.5316,-4.5316,-4.5316,-4.5143,-4.3643,-4.3104,-4.3085,-0.4789,-0.4785,-0.489,-0.533,-0.6057,-0.6881,-0.7717,-0.8523,-0.9177,-0.953,-0.9527,-0.9439,-0.934,-0.9228,-0.9474,-1.0254,-1.1118,-1.2365,-1.4098,-1.5809,-1.7906,-2.0455,-2.1432,-2.2733,-2.4495,-2.4561,-2.4575,-2.4578,-2.4543,-2.4478,-2.4394,-2.4339,-2.4266,-2.419,-2.419,-2.4266,-2.4375,-2.4689,-2.4902,-2.5012,-2.5087,-2.5157,-2.5203,-2.4726,-2.487,-2.5341,-2.5313,-2.4053,0.0,0.0,-2.1517,-2.0452,-2.0487,-1.9858,-1.8979,-1.8469,-1.8317,0.0,-1.9799,-2.136,0.0,0.0,-2.4877,-2.5972,-2.642,-2.8095,-2.9555,-2.9478,-3.0433,-3.1475,-3.2124,-3.2689,-3.3259,0.0,-3.4334,-3.4617,-3.4696,-3.4524,-3.4316,-3.4099,-3.3972,-3.4402,-3.5717,-3.6158,-3.6904,-3.8203,-3.8888,-3.9298,-3.9502,-4.0331,-4.0883,-4.1053,-4.2038,-4.2777,-4.3258,-4.3624,-4.4047,-4.4547,-4.4547,-4.4547,-4.4566,-4.4893,-4.5047,-4.5066,-4.5432,-4.5586,-4.5586,-4.5586,-4.5586,-4.5586,-4.5586,-4.5586,-4.5509,-4.4797,-4.4547,-4.4547,-0.4802,-0.4979,-0.536,-0.6095,-0.6886,-0.7601,-0.821,-0.8978,-0.9457,-0.9448,-0.9367,-0.9273,-0.9126,-0.9011,-0.9157,-0.9684,-1.0571,-1.1829,-1.3506,-1.5261,-1.7349,-1.9878,-2.0825,-2.2136,-2.3953,-2.4024,-2.4168,-2.4444,-2.4444,-2.4428,-2.4394,-2.4358,-2.4303,-2.4228,-2.4303,-2.4411,-2.4566,-2.4823,-2.4994,-2.5138,-2.5115,-2.5179,-2.5186,-2.4303,-2.4236,-2.4601,-2.4591,-2.2754,0.0,0.0,-2.0015,-1.9664,-1.9713,-1.9895,-1.9954,-1.9333,-2.009,-2.1366,-2.2423,0.0,0.0,-2.655,-2.7788,-2.8946,-2.9974,-3.1164,-3.2018,-3.1969,-3.2455,-3.2883,-3.2818,-3.3517,0.0,-3.3991,-3.462,-3.5018,-3.4733,-3.452,-3.4316,-3.4124,-3.3972,-3.4439,-3.5854,-3.6241,-3.6969,-3.8379,-3.8998,-3.9469,-3.9865,-4.0848,-4.1571,-4.1915,-4.2904,-4.3686,-4.4245,-4.4475,-4.4935,-4.5551,-4.5568,-4.5568,-4.5568,-4.5586,-4.5586,-4.5586,-4.5586,-4.5586,-4.5586,-4.5586,-4.5586,-4.5586,-4.5586,-4.5586,-4.5586,-4.5586,-4.5586,-4.5586,-0.4804,-0.5425,-0.62,-0.6938,-0.7672,-0.8198,-0.8288,-0.8938,-0.9385,-0.9312,-0.9179,-0.9054,-0.8914,-0.8851,-0.8809,-0.8838,-0.9629,-1.0848,-1.2544,-1.4276,-1.6344,-1.8839,-1.9846,-2.1152,-2.2895,-2.307,-2.3526,-2.4321,-2.4429,-2.4465,-2.4394,-2.4465,-2.4411,-2.4303,-2.458,-2.4692,-2.4707,-2.4922,-2.5057,-2.5182,-2.5138,-2.5149,-2.5116,-2.4232,-2.3438,-2.2786,-2.2852,0.0,0.0,-2.0312,-1.9181,-1.7783,-1.779,-1.8364,0.0,-1.9014,-2.0762,0.0,0.0,0.0,-2.7229,-2.9717,-3.0342,-3.0752,-3.2422,-3.2833,-3.2859,-3.2872,-3.2878,-3.2883,-3.2804,-3.3503,-3.4064,-3.391,-3.4568,-3.5,-3.4749,-3.4517,-3.4316,-3.4124,-3.3972,-3.4244,0.0,-3.5938,-3.6777,-3.7663,-3.871,-3.9757,-4.0804,-4.1193,-4.1819,-4.2737,-4.3732,-4.421,-4.4116,-4.494,-4.5381,-4.5418,-4.5477,-4.5495,-4.5513,-4.5568,-4.5586,-4.5586,-4.5586,-4.5586,-4.5586,-4.5586,-4.5586,-4.5586,-4.5586,-4.5586,-4.5586,-4.5586,-4.5586,-4.5586,-0.4807,-0.5406,-0.6167,-0.6898,-0.7604,-0.8242,-0.8751,-0.9068,-0.9224,-0.9126,-0.8985,0.0,0.0,0.0,0.0,0.0,-0.9472,-1.022,-1.083,-1.2907,-1.4816,-1.6315,-1.8234,-1.9849,-2.1152,-2.1735,-2.2484,-2.3437,-2.3491,-2.3821,-2.4412,-2.4566,-2.4613,-2.458,-2.4802,-2.4945,-2.5038,-2.5107,-2.4511,-2.3582,-2.3894,-2.4088,-2.4024,-2.291,-2.3304,-2.413,0.0,0.0,-1.6769,-1.6769,-1.6364,-1.6037,-1.7149,0.0,0.0,-2.0913,0.0,-2.463,0.0,0.0,-2.9291,-3.0151,-3.1578,-3.2941,-3.3563,-3.3698,-3.3711,-3.3763,-3.3301,-3.2885,-3.2864,-3.3114,-3.3432,-3.3837,-3.4485,-3.5078,-3.5399,-3.5741,-3.5951,-3.5825,-3.5713,0.0,0.0,0.0,0.0,-3.7701,-3.8831,-3.9957,-4.0976,-4.1869,-4.2756,-4.3617,-4.4479,-4.4879,-4.4836,-4.5082,-4.5216,-4.5275,-4.5379,-4.5438,-4.5438,-4.5514,-4.5531,-4.555,-4.5586,-4.5586,-4.5586,-4.5586,-4.5586,-4.5586,-4.5586,-4.5586,-4.5586,-4.5586,-4.5568,-4.5531,-0.5173,-0.5818,-0.6556,-0.7305,-0.7995,0.0,0.0,0.0,0.0,0.0,0.0,0.0,0.0,0.0,0.0,0.0,0.0,-0.9614,-0.9942,-1.173,-1.3307,-1.4544,-1.6412,-1.8038,-1.9339,-1.9919,-2.0825,-2.2116,-2.2131,-2.2622,-2.3557,-2.3939,-2.4362,-2.4779,-2.5006,-2.5149,-2.5248,-2.5248,-2.4617,-2.3544,-2.2661,-2.268,-2.315,-2.2361,-2.3386,0.0,0.0,0.0,-1.4766,-1.4895,-1.5273,-1.5976,0.0,0.0,0.0,0.0,-2.4143,-2.5406,0.0,-2.8872,-3.0376,-3.1312,-3.2775,-3.3976,-3.4021,-3.4055,-3.3834,-3.2941,-3.2327,-3.1751,-3.1149,-3.1519,-3.212,-3.2787,-3.3979,-3.5034,-3.5627,-3.6366,-3.6763,-3.6738,-3.6626,0.0,0.0,0.0,0.0,-3.7865,-3.9258,-4.0505,-4.1567,-4.2616,-4.3576,-4.4416,-4.4889,-4.5087,-4.501,-4.4967,-4.4991,-4.5084,-4.517,-4.5275,-4.5338,-4.538,-4.54,-4.5419,-4.5477,-4.5495,-4.5495,-4.5495,-4.5515,-4.5533,-4.5533,-4.5532,-4.5513,-4.5513,-4.5495,-4.5458,-0.5868,-0.6627,-0.7385,0.0,0.0,0.0,0.0,0.0,0.0,0.0,0.0,0.0,0.0,0.0,0.0,0.0,0.0,0.0,-0.979,-1.0719,0.0,-1.3458,-1.4457,-1.5744,-1.7421,-1.7659,-1.8626,-2.0323,-2.042,-2.0973,-2.1897,-2.2593,-2.3578,-2.4782,-2.5045,-2.5101,-2.5024,-2.5024,-2.5024,-2.4745,-2.1426,-2.1053,-2.2458,-2.2395,0.0,0.0,0.0,0.0,0.0,0.0,0.0,0.0,0.0,0.0,0.0,0.0,0.0,-2.5665,-2.8971,-2.9967,-3.0646,-3.314,-3.3836,-3.387,-3.3887,-3.384,-3.3108,-3.0696,-3.0122,-2.9568,0.0,0.0,-3.0217,-3.0968,-3.3034,-3.4795,-3.5544,-3.6329,-3.6882,0.0,0.0,0.0,0.0,0.0,0.0,-3.8296,0.0,-4.1402,-4.2503,-4.3393,-4.4274,-4.5065,-4.5014,-4.4846,-4.4578,-4.4659,-4.4719,-4.487,-4.487,-4.4967,-4.517,-4.517,-4.5213,-4.5275,-4.5297,-4.5297,-4.5297,-4.5297,-4.5317,-4.5379,-4.5379,-4.538,-4.5381,-4.5381,-4.538,-4.5378,0.0,0.0,0.0,0.0,0.0,0.0,0.0,0.0,0.0,0.0,0.0,0.0,0.0,0.0,0.0,0.0,0.0,0.0,-0.9074,-0.987,0.0,0.0,0.0,-1.3529,-1.4121,-1.5368,-1.6624,0.0,-1.8478,-1.9265,-2.0144,-2.0415,-2.1411,-2.2967,-2.3179,-2.2569,-2.1344,-2.1344,-2.1344,-2.1268,0.0,-2.0316,-2.0738,0.0,0.0,0.0,0.0,0.0,0.0,0.0,0.0,0.0,0.0,0.0,-2.3739,0.0,0.0,-2.8408,-2.9288,-3.0879,-3.2477,-3.3238,-3.3428,-3.3525,-3.3712,-3.2302,-3.0779,-3.0247,-2.9117,-2.8093,-2.758,0.0,0.0,-3.0565,-3.1856,0.0,-3.5973,-3.7023,0.0,0.0,0.0,-3.8838,-3.9631,-3.9874,0.0,0.0,-4.1041,-4.169,-4.338,-4.365,-4.4121,-4.4924,-4.4745,-4.4513,-4.4298,-4.4269,-4.4269,-4.4298,-4.4448,-4.4538,-4.4617,-4.4852,-4.4986,-4.501,-4.5103,-4.5148,-4.5148,-4.5148,-4.517,-4.517,-4.517,-4.5192,-4.5173,-4.5173,-4.5151,-4.5103,0.0,0.0,0.0,0.0,0.0,0.0,0.0,0.0,0.0,0.0,0.0,0.0,0.0,0.0,0.0,0.0,0.0,0.0,0.0,0.0,0.0,0.0,0.0,-1.1773,-1.2269,-1.326,-1.4247,0.0,0.0,0.0,-1.7355,-1.7975,-1.8901,-2.0107,-2.1043,-2.0039,-1.7673,-1.7673,0.0,0.0,0.0,0.0,0.0,0.0,0.0,0.0,0.0,0.0,0.0,0.0,0.0,-2.3786,-2.3124,-2.4026,-2.5595,-2.6797,0.0,-2.9505,-3.0646,-3.1953,-3.3041,-3.3153,-3.3197,-3.2962,-3.2033,-3.0734,-2.9336,-2.7967,-2.6942,0.0,-2.5729,0.0,0.0,0.0,0.0,0.0,-3.5629,-3.7062,-3.8136,0.0,-3.9527,0.0,-4.0715,-4.1098,-4.1713,0.0,-4.2378,-4.2626,-4.3715,-4.4028,-4.4354,-4.47,-4.4458,-4.4229,-4.4036,-4.3923,-4.3923,-4.3986,-4.4121,-4.4221,-4.426,-4.4467,-4.4549,-4.4602,0.0,-4.4707,-4.4707,-4.4707,-4.4758,-4.4789,-4.4789,-4.4852,-4.4919,-4.4919,-4.487,-4.4796,0.0,0.0,0.0,0.0,0.0,0.0,0.0,0.0,0.0,0.0,0.0,0.0,0.0,0.0,0.0,0.0,0.0,0.0,0.0,0.0,0.0,0.0,-1.0014,-1.0407,-1.1176,0.0,0.0,0.0,0.0,0.0,0.0,0.0,0.0,0.0,0.0,0.0,0.0,0.0,0.0,0.0,0.0,0.0,0.0,0.0,0.0,0.0,0.0,0.0,0.0,0.0,-2.3639,-2.5897,-2.485,-2.5474,-2.6924,-2.8607,-2.9255,-2.9904,-3.2083,-3.2871,-3.3,-3.298,-3.2846,-3.2147,-2.9897,-2.908,-2.8017,-2.5176,0.0,-2.4054,-2.3347,0.0,-2.5074,-2.7378,0.0,-3.207,-3.4589,-3.6398,-3.7858,-3.8904,-3.9962,-4.0739,-4.1029,-4.1832,-4.2687,-4.3605,-4.3731,-4.378,-4.3824,-4.4392,-4.464,-4.4421,-4.417,-4.3942,-4.3771,-4.3634,-4.3649,-4.3832,-4.3865,-4.391,-4.403,-4.4079,-4.4109,-4.4151,0.0,0.0,-4.4162,-4.4162,-4.425,-4.4346,-4.4346,-4.4448,-4.4613,-4.4613,-4.456,-4.4524,0.0,0.0,0.0,0.0,0.0,0.0,0.0,0.0,0.0,0.0,0.0,0.0,0.0,0.0,0.0,0.0,0.0,0.0,0.0,0.0,0.0,0.0,-0.9284,-0.9383,0.0,0.0,0.0,0.0,0.0,0.0,0.0,0.0,0.0,0.0,0.0,0.0,0.0,0.0,0.0,0.0,0.0,0.0,0.0,0.0,0.0,0.0,0.0,0.0,0.0,0.0,-2.2042,-2.3621,-2.5566,-2.6392,-2.6924,-2.8539,-2.9976,-3.1097,-3.1544,-3.2629,-3.35,-3.2889,-3.1776,-3.0549,-2.9548,-2.7231,0.0,0.0,0.0,-2.2415,-2.2272,-2.2887,0.0,-2.5668,0.0,0.0,0.0,0.0,-3.6332,0.0,0.0,0.0,0.0,0.0,0.0,0.0,0.0,0.0,-4.4452,-4.4476,-4.4296,-4.3947,-4.3749,-4.3649,-4.3566,-4.3532,-4.3513,-4.3566,-4.3634,-4.3649,-4.3682,-4.3846,-4.3961,-4.3961,0.0,0.0,-4.4017,-4.4017,-4.4048,-4.4079,-4.4079,-4.4079,-4.4109,-4.4109,-4.4109,-4.4097,0.0,0.0,0.0,0.0,0.0,0.0,0.0,0.0,0.0,0.0,0.0,0.0,0.0,0.0,0.0,0.0,0.0,0.0,0.0,0.0,0.0,0.0,0.0,0.0,0.0,0.0,0.0,0.0,0.0,0.0,0.0,0.0,0.0,0.0,0.0,0.0,0.0,0.0,0.0,0.0,0.0,0.0,0.0,0.0,0.0,0.0,0.0,0.0,0.0,0.0,-2.0427,-2.1473,-2.4887,-2.6578,-2.7518,-2.8713,-3.0226,-3.1593,-3.1967,-3.2941,-3.3566,-3.2334,-3.1121,-2.9729,-2.7714,0.0,0.0,0.0,0.0,-2.0591,-2.0594,0.0,0.0,0.0,0.0,0.0,0.0,0.0,0.0,0.0,0.0,0.0,0.0,0.0,0.0,0.0,0.0,0.0,-4.4496,-4.4237,-4.3979,-4.3701,-4.36,-4.3513,-4.3497,-4.3497,-4.3497,-4.3497,-4.3513,-4.3566,-4.3548,-4.3667,-4.3701,-4.3701,-4.3716,0.0,-4.3749,-4.3749,-4.3749,-4.3781,-4.3781,-4.3814,-4.3915,-4.3915,-4.3915,-4.3897,0.0,0.0,0.0,0.0,0.0,0.0,0.0,0.0,0.0,0.0,0.0,0.0,0.0,0.0,0.0,0.0,0.0,0.0,0.0,0.0,0.0,0.0,0.0,0.0,0.0,0.0,0.0,0.0,0.0,0.0,0.0,0.0,0.0,0.0,0.0,0.0,0.0,0.0,0.0,0.0,0.0,0.0,0.0,0.0,0.0,0.0,0.0,0.0,0.0,0.0,-1.8999,-1.9895,-2.3272,-2.5625,-2.734,-2.8522,-2.9931,-3.1283,-3.2256,-3.2969,-3.311,-3.1789,-3.0588,-2.8966,-2.6084,-2.4393,0.0,0.0,-1.9047,-1.8864,-1.8996,0.0,0.0,0.0,0.0,0.0,0.0,0.0,0.0,0.0,0.0,0.0,0.0,0.0,0.0,0.0,0.0,0.0,0.0,-4.3929,-4.3719,-4.3582,-4.3532,-4.3497,-4.3497,-4.3497,-4.3497,-4.3497,-4.3497,-4.3497,-4.3497,-4.3497,-4.3497,-4.3497,-4.3497,0.0,0.0,-4.3497,-4.3513,-4.3582,-4.3582,-4.3634,-4.3738,-4.3738,-4.3738,-4.3738,0.0,0.0,0.0,0.0,0.0,0.0,0.0,0.0,0.0,0.0,0.0,0.0,0.0,0.0,0.0,0.0,0.0,0.0,0.0,0.0,0.0,0.0,0.0,0.0,0.0,0.0,0.0,0.0,0.0,0.0,0.0,0.0,0.0,0.0,0.0,0.0,0.0,0.0,0.0,0.0,0.0,0.0,0.0,0.0,0.0,0.0,0.0,0.0,0.0,0.0,0.0,-1.9499,-2.0598,-2.2611,-2.5002,-2.7385,0.0,0.0,-3.1422,-3.1899,-3.1866,-3.1705,-2.9921,-2.7735,-2.5908,0.0,0.0,-1.9626,-1.8227,-1.7422,-1.8078,-1.8867,0.0,0.0,0.0,0.0,0.0,0.0,0.0,0.0,0.0,0.0,0.0,0.0,0.0,0.0,0.0,0.0,0.0,-4.3734,-4.3582,-4.3532,-4.3479,-4.3497,-4.3497,-4.3497,-4.3497,-4.3497,-4.3497,-4.3497,-4.3497,-4.3497,-4.3497,-4.3497,0.0,0.0,0.0,-4.3497,-4.3479,-4.3532,-4.3532,-4.3532,-4.3532,-4.3532,-4.3532,-4.3532,0.0,0.0,0.0,0.0,0.0,0.0,0.0,0.0,0.0,0.0,0.0,0.0,0.0,0.0,0.0,0.0,0.0,0.0,0.0,0.0,0.0,0.0,0.0,0.0,0.0,0.0,0.0,0.0,0.0,0.0,0.0,0.0,0.0,0.0,0.0,0.0,0.0,0.0,0.0,0.0,0.0,0.0,0.0,0.0,0.0,0.0,0.0,0.0,0.0,0.0,0.0,0.0,-1.8639,-2.0129,0.0,0.0,-2.7509,-2.9522,-3.0232,-3.1126,-3.1741,-3.1173,-2.9572,-2.7526,-2.5338,0.0,-2.0244,-1.8389,-1.7475,-1.708,-1.7385,-1.846,-1.9856,-2.1527,-2.3144,-2.5034,0.0,0.0,0.0,0.0,0.0,0.0,0.0,0.0,0.0,0.0,0.0,0.0,0.0,-4.36,-4.3532,-4.3497,-4.3497,-4.3497,-4.3497,-4.3497,-4.3497,-4.3497,-4.3497,-4.3497,-4.3497,-4.3497,-4.3497,-4.3497,0.0,0.0,0.0,-4.3497,-4.3497,-4.3497,-4.3497,-4.3497,-4.3497,-4.3497,-4.3497,-4.3497,0.0,0.0,0.0,0.0,0.0,0.0,0.0,0.0,0.0,0.0,0.0,0.0,0.0,0.0,0.0,0.0,0.0,0.0,0.0,0.0,0.0,0.0,0.0,0.0,0.0,0.0,0.0,0.0,0.0,0.0,0.0,0.0,0.0,0.0,0.0,0.0,0.0,0.0,0.0,0.0,0.0,0.0,0.0,0.0,0.0,0.0,0.0,0.0,0.0,0.0,0.0,0.0,0.0,0.0,0.0,0.0,-2.5985,-2.8241,-2.8989,-2.9907,-3.0507,-3.0111,-2.8783,-2.6951,0.0,0.0,-1.9857,-1.7591,-1.6873,-1.6719,-1.697,-1.807,-1.9565,-2.149,-2.274,-2.441,-2.7071,0.0,0.0,0.0,0.0,0.0,0.0,0.0,0.0,0.0,0.0,0.0,0.0,-4.3497,-4.3463,-4.3497,-4.3497,-4.3497,-4.3497,-4.3497,-4.3497,-4.3497,-4.3497,-4.3497,-4.3497,-4.3497,-4.3497,-4.3497,0.0,0.0,0.0,-4.3497,-4.3497,-4.3497,-4.3497,-4.3497,-4.3497,-4.3497,-4.3497,-4.3497,0.0,0.0,0.0,0.0,0.0,0.0,0.0,0.0,0.0,0.0,0.0,0.0,0.0,0.0,0.0,0.0,0.0,0.0,0.0,0.0,0.0,0.0,0.0,0.0,0.0,0.0,0.0,0.0,0.0,0.0,0.0,0.0,0.0,0.0,0.0,0.0,0.0,0.0,0.0,0.0,0.0,0.0,0.0,0.0,0.0,0.0,0.0,0.0,0.0,0.0,0.0,0.0,0.0,-1.6821,-1.8878,0.0,-2.3985,-2.5295,-2.7834,-2.7943,-2.7547,-2.8426,-2.7315,-2.5571,0.0,-2.1599,-1.9319,-1.7569,-1.6451,-1.6053,-1.6841,-1.761,-1.8922,-2.1399,-2.1821,-2.2942,-2.6172,0.0,0.0,0.0,0.0,0.0,0.0,0.0,0.0,0.0,0.0,0.0,0.0,0.0,-4.3446,-4.3497,-4.3497,-4.3497,-4.3497,-4.3497,-4.3497,-4.3497,-4.3497,-4.3497,-4.3497,-4.3497,-4.3497,0.0,0.0,0.0,0.0,-4.3497,-4.3497,-4.3497,-4.3497,-4.3497,-4.3497,-4.3497,-4.3497,-4.3497,0.0,0.0,0.0,0.0,0.0,0.0,0.0,0.0,0.0,0.0,0.0,0.0,0.0,0.0,0.0,0.0,0.0,0.0,0.0,0.0,0.0,0.0,0.0,0.0,0.0,0.0,0.0,0.0,0.0,0.0,0.0,0.0,0.0,0.0,0.0,0.0,0.0,0.0,0.0,0.0,0.0,0.0,0.0,0.0,0.0,0.0,0.0,0.0,0.0,0.0,0.0,0.0,0.0,0.0,0.0,-1.8581,-2.0928,-2.3311,-2.4768,-2.5427,-2.5802,-2.6062,-2.53,-2.42,-2.3076,-2.0864,-1.8704,-1.7517,-1.6955,-1.6744,-1.6958,-1.8047,-1.9546,-2.149,-2.1803,0.0,0.0,0.0,0.0,0.0,0.0,0.0,0.0,0.0,0.0,0.0,0.0,0.0,0.0,0.0,-4.3376,-4.3322,-4.3358,-4.3446,-4.3446,-4.3463,-4.3497,-4.3497,-4.3497,-4.3497,-4.3497,-4.3497,0.0,0.0,0.0,0.0,0.0,-4.3497,-4.3497,-4.3497,-4.3497,-4.3497,-4.3497,-4.3497,-4.3497,-4.3497,0.0,0.0,0.0,0.0,0.0,0.0,0.0,0.0,0.0,0.0,0.0,0.0,0.0,0.0,0.0,0.0,0.0,0.0,0.0,0.0,0.0,0.0,0.0,0.0,0.0,0.0,-1.0201,-1.1187,-1.1723,0.0,0.0,0.0,0.0,0.0,0.0,0.0,0.0,0.0,0.0,0.0,0.0,0.0,-1.0155,0.0,0.0,0.0,0.0,0.0,0.0,0.0,0.0,0.0,0.0,0.0,0.0,0.0,-1.818,-2.0195,-2.177,-2.2653,-2.3195,-2.3555,-2.3008,-2.2258,-2.1722,-1.9844,-1.7935,-1.6993,-1.6937,-1.7046,-1.7014,-1.8511,-2.0189,-2.1582,-2.2317,0.0,0.0,0.0,0.0,0.0,0.0,0.0,0.0,0.0,0.0,0.0,0.0,0.0,0.0,0.0,-4.2356,-4.2196,-4.294,-4.334,-4.334,-4.3358,-4.3393,-4.3393,-4.3393,-4.3393,-4.3393,-4.3358,0.0,0.0,0.0,0.0,0.0,-4.3463,-4.3463,-4.3497,-4.3497,-4.3497,-4.3497,-4.3497,-4.3497,-4.3497,0.0,0.0,0.0,0.0,0.0,0.0,0.0,0.0,0.0,0.0,0.0,0.0,0.0,0.0,0.0,0.0,0.0,0.0,0.0,0.0,0.0,0.0,0.0,0.0,0.0,-0.9743,-1.0228,-1.1102,-1.2402,-1.311,-1.3251,-1.424,0.0,0.0,0.0,0.0,0.0,0.0,0.0,0.0,0.0,-0.9319,0.0,0.0,0.0,0.0,0.0,0.0,0.0,0.0,0.0,0.0,0.0,0.0,0.0,0.0,0.0,0.0,0.0,-1.969,-2.0133,-2.1005,-2.0623,-2.0012,-2.0003,-1.8612,0.0,-1.6184,-1.6537,-1.699,-1.7006,-1.8919,-2.0794,-2.1674,0.0,0.0,0.0,0.0,0.0,0.0,0.0,0.0,0.0,0.0,0.0,0.0,0.0,0.0,0.0,0.0,0.0,-4.051,-4.2141,-4.3032,-4.3087,-4.3142,-4.316,-4.316,-4.316,-4.316,-4.316,-4.3086,0.0,0.0,0.0,0.0,0.0,-4.3359,-4.3411,-4.3463,-4.3463,-4.3444,-4.3463,-4.3463,-4.3497,-4.3497,0.0,0.0,0.0,0.0,0.0,0.0,0.0,0.0,0.0,0.0,0.0,0.0,0.0,0.0,0.0,0.0,0.0,0.0,0.0,0.0,0.0,0.0,0.0,0.0,0.0,-0.981,-1.0593,-1.2064,-1.2403,-1.3217,-1.4472,-1.4682,-1.3653,-1.1572,0.0,0.0,0.0,0.0,0.0,0.0,-0.9421,-0.9448,0.0,0.0,0.0,0.0,-0.9769,-1.0275,0.0,0.0,0.0,0.0,0.0,0.0,0.0,0.0,-1.3623,-1.4304,-1.4974,0.0,-1.9154,-1.9419,-1.9331,-1.9177,0.0,-1.7773,-1.6413,-1.6129,-1.656,-1.699,-1.7006,-1.8919,-2.0794,0.0,0.0,0.0,0.0,0.0,0.0,0.0,0.0,0.0,0.0,0.0,0.0,0.0,0.0,0.0,0.0,0.0,0.0,-4.0652,-4.0926,-4.1379,-4.2032,-4.2667,-4.2975,-4.2975,-4.2975,-4.292,-4.2826,-4.2806,0.0,0.0,0.0,0.0,-4.2882,-4.2975,-4.305,-4.3032,-4.3032,-4.3087,-4.3196,-4.3196,-4.3269,-4.3411,0.0,0.0,0.0,0.0,0.0,0.0,0.0,0.0,0.0,0.0,0.0,0.0,0.0,0.0,0.0,0.0,0.0,0.0,0.0,0.0,0.0,0.0,0.0,0.0,0.0,-0.9857,-1.0747,-1.2442,-1.2451,-1.3292,-1.4933,-1.4885,-1.4353,-1.3325,-1.0727,0.0,0.0,0.0,0.0,0.0,-0.9475,0.0,0.0,0.0,0.0,0.0,-0.9687,-1.0006,0.0,-1.049,-1.1042,-1.1746,0.0,0.0,0.0,0.0,-1.3014,-1.3796,-1.4216,-1.5956,-1.7773,-1.822,-1.8332,-1.8297,-1.83,-1.7499,-1.6611,0.0,0.0,0.0,0.0,0.0,0.0,0.0,0.0,0.0,0.0,0.0,0.0,0.0,0.0,0.0,0.0,0.0,0.0,0.0,0.0,0.0,0.0,0.0,0.0,0.0,-3.959,-4.0218,-4.1463,-4.18,-4.2157,-4.2534,-4.2476,-4.2436,-4.2396,-4.2274,0.0,0.0,0.0,0.0,-4.2498,-4.2537,-4.2634,-4.2747,-4.2747,-4.2804,-4.286,-4.2918,-4.2994,-4.3087,0.0,0.0,0.0,0.0,0.0,0.0,0.0,0.0,0.0,0.0,0.0,0.0,0.0,0.0,0.0,0.0,0.0,0.0,0.0,0.0,0.0,0.0,0.0,0.0,-0.9819,-0.9874,-1.077,-1.2528,-1.2528,-1.3366,-1.5015,-1.4952,-1.4773,-1.4373,-1.1013,0.0,0.0,0.0,0.0,0.0,0.0,0.0,0.0,0.0,0.0,0.0,0.0,0.0,0.0,-0.9982,-1.0459,-1.1027,-1.1027,0.0,0.0,0.0,0.0,0.0,-1.4526,-1.5589,-1.6781,-1.7823,-1.7949,-1.7822,-1.7941,0.0,0.0,0.0,0.0,0.0,0.0,0.0,0.0,0.0,0.0,0.0,0.0,0.0,0.0,0.0,0.0,0.0,0.0,0.0,0.0,0.0,0.0,0.0,0.0,0.0,0.0,0.0,-3.8385,-3.9218,-4.0681,-4.077,-4.1168,-4.186,-4.1846,-4.1856,-4.1977,-4.1631,-4.1587,0.0,0.0,0.0,-4.2032,-4.2032,-4.2192,-4.2391,-4.2391,-4.2391,-4.2432,-4.2516,-4.2577,-4.2634,0.0,0.0,0.0,0.0,0.0,0.0,0.0,0.0,0.0,0.0,0.0,0.0,0.0,0.0,0.0,0.0,0.0,0.0,0.0,0.0,0.0,0.0,0.0,-0.9825,-0.988,-0.9955,-1.0834,-1.2578,-1.2578,-1.3437,-1.5085,-1.5019,-1.4367,-1.317,-1.0691,-0.9543,0.0,0.0,0.0,0.0,0.0,0.0,0.0,0.0,0.0,0.0,0.0,0.0,0.0,-0.9995,-1.012,-1.0278,-1.0278,0.0,0.0,0.0,0.0,0.0,-1.2952,-1.5197,-1.7857,-1.943,-1.9243,-1.8847,-1.9488,-1.8429,0.0,0.0,0.0,0.0,0.0,0.0,0.0,0.0,0.0,0.0,0.0,0.0,0.0,0.0,0.0,0.0,0.0,0.0,0.0,0.0,0.0,0.0,0.0,0.0,0.0,0.0,0.0,-3.7942,-3.8409,-3.9863,-4.0602,-4.0742,-4.1227,-4.1418,-4.1346,-4.1163,-4.1088,0.0,0.0,-4.1117,-4.1192,-4.1328,-4.1373,-4.1418,-4.1418,-4.1569,-4.1762,-4.1762,-4.1984,-4.2297,0.0,0.0,0.0,0.0,0.0,0.0,0.0,0.0,0.0,0.0,0.0,0.0,0.0,0.0,0.0,0.0,0.0,0.0,0.0,0.0,0.0,0.0,-0.9906,-0.9929,-0.996,-1.0448,-1.1302,-1.2553,-1.2864,-1.3717,-1.5042,-1.4936,-1.4053,-1.2502,-1.1095,-1.0086,-0.9439,0.0,0.0,0.0,0.0,0.0,0.0,0.0,0.0,0.0,0.0,0.0,0.0,0.0,-1.0072,-1.0108,-1.0108,0.0,0.0,0.0,0.0,0.0,-1.3185,-1.5452,-1.8206,-2.0324,-2.0518,-2.0279,-2.0579,-2.0255,0.0,0.0,0.0,0.0,0.0,0.0,0.0,0.0,0.0,0.0,0.0,0.0,0.0,0.0,0.0,0.0,0.0,0.0,0.0,0.0,0.0,0.0,0.0,0.0,0.0,0.0,0.0,-3.7154,-3.7154,-3.8157,-3.8893,-3.9381,-3.961,-3.9721,-3.9703,-3.9903,-4.0079,-4.0113,0.0,-4.071,-4.0871,-4.0901,-4.0948,-4.1041,-4.1041,-4.1088,-4.1244,-4.1272,-4.1418,-4.1666,0.0,0.0,0.0,0.0,0.0,0.0,0.0,0.0,0.0,0.0,0.0,0.0,0.0,0.0,0.0,0.0,0.0,0.0,0.0,0.0,-0.9771,-0.9869,-0.9943,-1.0071,-1.0285,-1.0943,-1.1767,-1.2789,-1.3176,-1.393,-1.4995,-1.4785,-1.3531,-1.148,-1.0967,-1.024,-0.9412,-0.9466,-0.951,-0.9501,0.0,0.0,0.0,0.0,0.0,0.0,0.0,0.0,0.0,0.0,0.0,0.0,0.0,0.0,0.0,-1.0094,-1.1194,-1.2565,-1.3401,-1.5478,-1.7994,-2.047,-2.1196,-2.1431,-2.1914,-2.2214,-2.2454,0.0,0.0,0.0,0.0,0.0,0.0,0.0,0.0,0.0,0.0,0.0,0.0,0.0,0.0,0.0,0.0,0.0,0.0,0.0,0.0,0.0,0.0,0.0,0.0,0.0,0.0,-3.6736,-3.6419,-3.6688,-3.7222,-3.8094,-3.8208,-3.8294,-3.8322,-3.8704,-3.8945,-3.9058,-3.954,-3.9827,-4.0038,-4.0209,-4.0374,-4.0487,-4.0659,-4.0728,-4.0776,-4.0901,-4.0977,-4.1071,0.0,0.0,0.0,0.0,0.0,0.0,0.0,0.0,0.0,0.0,0.0,0.0,0.0,0.0,0.0,0.0,0.0,0.0,0.0,0.0,-0.9803,-0.9806,-0.9863,-1.0294,-1.1105,-1.1187,-1.1996,-1.3611,-1.3403,-1.3891,-1.499,-1.453,-1.2584,-0.9423,-0.9369,-0.9364,0.0,-0.9484,-0.9501,-0.9508,-0.9565,0.0,0.0,0.0,0.0,0.0,0.0,0.0,0.0,0.0,0.0,0.0,0.0,0.0,-1.0094,-1.0094,-1.0752,-1.168,-1.2546,-1.4607,-1.709,-1.9571,-2.0747,-2.1844,-2.3964,-2.3798,0.0,-2.4949,0.0,0.0,0.0,0.0,0.0,0.0,0.0,0.0,0.0,0.0,0.0,0.0,0.0,0.0,0.0,0.0,0.0,0.0,0.0,0.0,0.0,0.0,0.0,0.0,0.0,-3.6632,-3.6225,-3.6,-3.6321,-3.7205,-3.7831,-3.8125,-3.8125,-3.8051,-3.799,-3.799,-3.8041,-3.8058,-3.8156,-3.8851,-3.9122,-3.9189,-3.9917,-4.0238,-4.0355,-4.0648,-4.0745,-4.0745,0.0,0.0,0.0,0.0,0.0,0.0,0.0,0.0,0.0,0.0,0.0,0.0,0.0,0.0,0.0,0.0,0.0,0.0,0.0,0.0,-0.9732,-0.9747,-0.9764,-1.0156,-1.1009,-1.1595,-1.2162,-1.2777,-1.3699,-1.4354,-1.4639,-1.2245,-1.0415,-0.9143,-0.9226,0.0,0.0,0.0,-0.9491,-0.9508,-0.9573,-0.9635,0.0,0.0,0.0,0.0,0.0,0.0,0.0,0.0,-1.009,-1.0094,-1.0094,-1.0094,-1.0094,-1.0094,-1.1098,-1.2276,-1.2603,-1.4914,-1.7658,-1.9554,-2.1026,0.0,0.0,-2.5459,-2.5912,-2.7419,-2.7684,0.0,0.0,0.0,0.0,0.0,0.0,0.0,0.0,0.0,0.0,0.0,0.0,0.0,0.0,0.0,0.0,0.0,0.0,0.0,0.0,0.0,0.0,0.0,0.0,-3.6301,-3.5949,-3.5773,-3.5847,-3.618,-3.6424,-3.6576,-3.653,-3.7022,-3.7212,-3.7229,-3.7702,-3.7905,-3.7922,-3.821,-3.8328,-3.8396,-3.9123,-3.946,-3.9561,-4.0118,-4.0337,-4.0337,0.0,0.0,0.0,0.0,0.0,0.0,0.0,0.0,0.0,0.0,0.0,0.0,0.0,0.0,0.0,0.0,0.0,0.0,0.0,0.0,-0.9649,-0.9633,-0.9638,-0.9895,-1.0446,-1.1329,-1.1925,-1.2167,-1.3151,-1.3377,-1.2876,-1.0414,-0.9234,-0.9171,-0.9282,0.0,0.0,0.0,-0.9517,-0.9534,-0.9607,-0.9661,0.0,0.0,0.0,0.0,0.0,0.0,0.0,0.0,-1.0097,-1.0097,-1.0097,-1.0097,-1.0155,-1.04,-1.133,-1.243,-1.3237,-1.5517,-1.8098,-1.9915,0.0,0.0,-2.5749,-2.673,-2.7611,-2.9126,-2.9609,0.0,0.0,0.0,0.0,0.0,0.0,0.0,0.0,0.0,0.0,0.0,0.0,0.0,0.0,0.0,0.0,0.0,0.0,0.0,0.0,0.0,0.0,0.0,0.0,0.0,-3.5817,-3.5667,-3.5622,-3.5622,-3.5622,-3.5622,-3.5639,-3.618,-3.6417,-3.6451,-3.6958,-3.7178,-3.7195,-3.7449,-3.7702,-3.7956,-3.8464,-3.8785,-3.9056,-3.9546,-3.9884,-4.007,0.0,0.0,0.0,0.0,0.0,0.0,0.0,0.0,0.0,0.0,0.0,0.0,0.0,0.0,0.0,0.0,0.0,0.0,0.0,-0.9601,-0.9559,-0.9508,-0.9507,-0.9489,-0.95,-1.0277,-1.1149,-1.2087,-1.1553,-1.0676,-0.9501,-0.943,-0.9366,-0.931,-0.9375,0.0,0.0,-0.9474,-0.9534,-0.9609,-0.9683,-0.9747,-0.9798,0.0,0.0,0.0,0.0,0.0,0.0,0.0,-1.0096,-1.0096,-1.0096,-1.0096,-1.0268,-1.1061,-1.132,-1.1885,-1.4405,-1.6327,-1.8211,0.0,0.0,0.0,-2.6544,-2.7468,-2.8439,-2.9921,0.0,-3.1403,0.0,0.0,0.0,0.0,0.0,0.0,0.0,0.0,0.0,0.0,0.0,0.0,0.0,0.0,0.0,0.0,0.0,0.0,0.0,0.0,0.0,0.0,0.0,0.0,-3.5817,-3.5667,-3.5622,-3.5622,-3.5622,-3.5622,-3.5622,-3.5622,-3.5622,-3.5622,-3.5622,-3.5622,-3.5673,-3.6451,-3.7212,-3.7889,-3.7889,-3.8345,-3.8971,-3.8988,-3.9445,-4.0054,0.0,0.0,0.0,0.0,0.0,0.0,0.0,0.0,0.0,0.0,0.0,0.0,0.0,0.0,0.0,0.0,0.0,0.0,0.0,-0.955,-0.95,-0.9439,-0.934,-0.9293,-0.9292,-0.9521,-1.0107,-1.1045,-1.1081,-1.0547,-0.9491,-0.943,-0.9385,-0.9375,-0.943,-0.9475,-0.9466,-0.955,-0.9607,-0.9665,-0.9692,-0.9739,-0.9798,0.0,0.0,0.0,0.0,0.0,0.0,0.0,0.0,0.0,-1.0025,-1.0025,-1.0197,-1.0981,-1.2052,-1.3297,-1.4661,-1.711,0.0,-2.0757,0.0,0.0,0.0,-2.8273,0.0,0.0,0.0,0.0,0.0,0.0,0.0,0.0,0.0,0.0,0.0,0.0,0.0,0.0,0.0,0.0,0.0,0.0,0.0,0.0,0.0,0.0,0.0,0.0,0.0,0.0,0.0,0.0,-3.5667,-3.5622,-3.5622,-3.5622,-3.5622,-3.5622,-3.5622,-3.5622,-3.5622,-3.5622,-3.5622,-3.5622,-3.5639,-3.5876,-3.6096,-3.6349,-3.6907,-3.7246,-3.7499,-3.8024,-3.8362,-3.8548,0.0,0.0,0.0,0.0,0.0,0.0,0.0,0.0,0.0,0.0,0.0,-0.5746,0.0,0.0,0.0,0.0,0.0,0.0,0.0,0.0,-0.9457,-0.9366,-0.9263,-0.9194,-0.9171,-0.9164,-0.9452,-1.0032,-1.0252,-1.0049,-0.9447,-0.9439,-0.9448,-0.9448,-0.9519,-0.9536,0.0,0.0,-0.9672,-0.9695,-0.9732,-0.9761,-0.9801,0.0,0.0,0.0,0.0,0.0,0.0,0.0,0.0,0.0,-0.9927,-0.9922,-1.0148,-1.1301,-1.2605,-1.3982,-1.5505,-1.8115,0.0,0.0,0.0,0.0,-2.7738,0.0,0.0,0.0,0.0,0.0,0.0,0.0,0.0,0.0,0.0,0.0,0.0,0.0,0.0,0.0,0.0,0.0,0.0,0.0,0.0,0.0,0.0,0.0,0.0,0.0,0.0,0.0,0.0,0.0,-3.4742,-3.503,-3.5165,-3.5182,-3.547,-3.5622,-3.5622,-3.5622,-3.5622,-3.5622,-3.5622,-3.5622,-3.5622,-3.5622,-3.5622,-3.5673,-3.6129,-3.6502,-3.6823,-3.7297,-3.7652,-3.7905,0.0,0.0,-0.481,-0.4815,0.0,0.0,0.0,0.0,0.0,-0.4904,-0.4902,-0.5182,0.0,0.0,0.0,-0.7125,0.0,0.0,0.0,0.0,-0.9376,-0.9301,-0.9224,-0.9171,-0.9099,-0.9095,-0.9126,-0.9201,-0.9338,-0.9394,-0.9403,-0.9474,-0.9508,-0.9517,-0.9587,-0.9613,0.0,0.0,-0.9703,-0.9725,-0.9772,-0.9808,-0.9805,-0.9799,0.0,0.0,0.0,0.0,0.0,0.0,0.0,0.0,-0.9806,-0.9799,-1.011,-1.1807,-1.2961,-1.4241,-1.6718,0.0,0.0,0.0,0.0,0.0,0.0,0.0,0.0,0.0,0.0,0.0,0.0,0.0,0.0,0.0,0.0,0.0,0.0,0.0,0.0,0.0,0.0,0.0,0.0,0.0,0.0,0.0,0.0,0.0,0.0,0.0,0.0,0.0,0.0,0.0,-3.3406,-3.4066,-3.4387,0.0,-3.5098,-3.5419,-3.5419,-3.5554,-3.5622,-3.5622,-3.5622,-3.5622,-3.5622,-3.5622,-3.5622,-3.5622,-3.5622,-3.6045,-3.6671,-3.6671,-3.711,-3.7702,0.0,0.0,-0.4824,-0.4867,0.0,0.0,0.0,0.0,-0.4906,-0.4906,-0.4909,-0.4965,-0.5148,-0.5721,0.0,-0.6348,-0.7088,0.0,0.0,0.0,-0.88,-0.9359,-0.9216,-0.9085,-0.9024,-0.9064,-0.9126,-0.9201,-0.9292,-0.9376,-0.9475,-0.9491,-0.9525,-0.9585,-0.9659,-0.9675,0.0,0.0,-0.9787,-0.9794,-0.9849,-0.9875,-0.9881,-0.9869,-0.9894,0.0,0.0,0.0,0.0,0.0,0.0,0.0,-0.9731,-0.9731,-1.0046,-1.1741,-1.3281,-1.5003,0.0,-1.9913,0.0,0.0,0.0,0.0,0.0,0.0,0.0,0.0,0.0,0.0,0.0,0.0,0.0,0.0,0.0,0.0,0.0,0.0,0.0,0.0,0.0,0.0,0.0,0.0,0.0,0.0,0.0,0.0,0.0,0.0,0.0,0.0,0.0,-3.2797,-3.3406,-3.3558,-3.3643,0.0,-3.3812,-3.388,-3.3914,-3.5081,-3.5622,-3.5622,-3.5622,-3.5622,-3.5622,-3.5622,-3.5622,-3.5622,-3.5622,-3.5723,-3.5876,-3.5876,-3.5977,-3.6113,0.0,0.0,0.0,0.0,0.0,0.0,0.0,0.0,-0.4944,-0.4912,-0.4894,-0.4894,-0.4894,-0.5264,0.0,0.0,-0.626,-0.6877,0.0,0.0,0.0,0.0,0.0,0.0,0.0,-0.9123,-0.9177,0.0,0.0,0.0,0.0,0.0,-0.9583,-0.9641,-0.968,-0.9703,-0.9699,-0.9775,-0.981,-0.9855,-0.9882,-0.99,-0.99,-0.9894,-0.9907,-0.9888,-0.9817,0.0,0.0,0.0,0.0,0.0,0.0,0.0,-0.9897,-1.1166,-1.2742,-1.4529,0.0,0.0,0.0,0.0,0.0,0.0,0.0,0.0,0.0,0.0,0.0,0.0,0.0,0.0,0.0,0.0,0.0,0.0,0.0,0.0,0.0,0.0,0.0,0.0,0.0,0.0,0.0,0.0,0.0,0.0,0.0,0.0,0.0,0.0,-3.1749,-3.1952,-3.2341,-3.2696,-3.2865,-3.2882,-3.3237,-3.3406,-3.344,-3.4573,-3.5284,-3.5622,-3.5622,-3.5622,-3.5622,-3.5622,-3.5622,-3.5622,-3.5622,-3.5622,-3.5622,-3.5622,-3.5622,-3.5622,0.0,0.0,0.0,0.0,0.0,0.0,0.0,0.0,0.0,-0.49,-0.4894,-0.4894,-0.4894,-0.4899,-0.4897,0.0,0.0,0.0,-0.5991,0.0,0.0,0.0,0.0,0.0,0.0,0.0,0.0,0.0,0.0,0.0,0.0,0.0,0.0,-1.011,-0.9986,-0.9917,-0.9928,-0.9847,-0.985,-0.9907,-0.99,-0.9893,-0.9906,-0.9882,-0.9882,-0.9881,-0.9803,-0.9775,-0.978,-0.9713,0.0,0.0,0.0,0.0,-0.9761,-1.0556,-1.1939,-1.3561,0.0,0.0,0.0,0.0,0.0,0.0,0.0,0.0,0.0,0.0,0.0,0.0,0.0,0.0,0.0,0.0,0.0,0.0,0.0,0.0,0.0,0.0,0.0,0.0,0.0,0.0,0.0,0.0,0.0,0.0,0.0,0.0,-3.119,-3.119,-3.119,-3.119,-3.119,-3.1799,-3.2087,-3.2104,-3.273,-3.3085,-3.3237,-3.3829,-3.459,-3.5419,-3.5419,-3.5504,-3.5622,-3.5622,-3.5622,-3.5622,-3.5622,-3.5622,-3.5622,-3.5622,-3.5622,-3.5622,0.0,0.0,0.0,0.0,0.0,0.0,0.0,0.0,0.0,0.0,-0.4903,-0.4894,-0.4894,-0.489,-0.4892,-0.4894,-0.4938,-0.5276,0.0,0.0,0.0,0.0,0.0,0.0,0.0,0.0,0.0,0.0,0.0,0.0,0.0,0.0,0.0,-1.1737,0.0,0.0,-1.0789,-1.0143,-0.9894,-0.99,-0.9906,-0.99,-0.9888,-0.9825,-0.9818,-0.9798,-0.9731,-0.9721,-0.9692,-0.9641,-0.9617,0.0,0.0,0.0,0.0,0.0,-1.1507,-1.2784,0.0,0.0,0.0,0.0,0.0,0.0,0.0,0.0,0.0,0.0,0.0,0.0,0.0,0.0,0.0,0.0,0.0,0.0,0.0,0.0,0.0,0.0,0.0,0.0,0.0,0.0,0.0,0.0,0.0,0.0,0.0,-3.119,-3.119,-3.119,-3.119,-3.119,-3.119,-3.1292,-3.1343,-3.1343,-3.1444,-3.1816,-3.2442,-3.2527,-3.3322,-3.4641,-3.4641,-3.5013,-3.5622,-3.5622,-3.5622,-3.5622,-3.5622,-3.5622,-3.5622,-3.5622,-3.5622,-3.5622,0.0,0.0,0.0,0.0,0.0,0.0,0.0,0.0,0.0,0.0,0.0,-0.495,-0.491,-0.49,-0.4906,-0.4907,-0.4875,0.0,0.0,0.0,0.0,0.0,0.0,0.0,0.0,0.0,0.0,0.0,0.0,0.0,0.0,-1.1516,-1.1737,0.0,0.0,0.0,-1.0982,-1.0693,-1.0314,-0.9944,-1.0389,-1.0558,-1.0555,-1.0986,-1.1142,-1.1074,-1.0563,-1.0373,-1.0284,-0.9769,-0.9607,-0.9599,-0.9559,0.0,0.0,0.0,0.0,0.0,-1.4921,0.0,0.0,0.0,0.0,0.0,0.0,0.0,0.0,0.0,0.0,0.0,0.0,0.0,0.0,0.0,0.0,0.0,0.0,0.0,0.0,0.0,0.0,0.0,0.0,0.0,0.0,0.0,0.0,0.0,-3.0581,-3.097,-3.119,-3.119,-3.119,-3.119,-3.119,-3.119,-3.119,-3.119,-3.119,-3.136,-3.1664,-3.1664,-3.2476,-3.388,-3.388,-3.4303,-3.4979,-3.4979,-3.5233,-3.5622,-3.5622,-3.5622,-3.5622,-3.5622,-3.5622,-3.5622,0.0,0.0,0.0,0.0,0.0,0.0,0.0,0.0,0.0,0.0,0.0,-0.4981,-0.4937,0.0,0.0,0.0,-0.4899,0.0,0.0,0.0,0.0,0.0,0.0,0.0,0.0,0.0,0.0,0.0,0.0,0.0,-1.1998,-1.2076,-1.2325,0.0,-1.2567,-1.2168,0.0,0.0,-1.0876,-1.0538,-1.092,-1.1296,-1.1663,-1.227,-1.2613,-1.2668,-1.182,-1.1507,0.0,0.0,0.0,0.0,0.0,0.0,0.0,0.0,0.0,0.0,0.0,0.0,0.0,0.0,0.0,0.0,0.0,0.0,0.0,0.0,0.0,0.0,0.0,0.0,0.0,0.0,0.0,0.0,0.0,0.0,0.0,0.0,0.0,0.0,0.0,0.0,0.0,0.0,0.0,0.0,-2.982,-3.0345,-3.0632,-3.0632,-3.0818,-3.092,-3.092,-3.1106,-3.119,-3.119,-3.119,-3.119,-3.119,-3.119,-3.1799,-3.2848,-3.3034,-3.3541,-3.4218,-3.4218,-3.4658,-3.5334,-3.5334,-3.5453,-3.5622,-3.5622,-3.5622,-3.5622,0.0,0.0,0.0,0.0,0.0,0.0,0.0,0.0,0.0,0.0,0.0,-0.5008,-0.4995,-0.4998,-0.4972,-0.4916,-0.4894,0.0,0.0,0.0,0.0,0.0,0.0,0.0,0.0,0.0,0.0,0.0,0.0,0.0,-1.1998,-1.2076,-1.2913,-1.4338,-1.3657,-1.3346,-1.3262,0.0,-1.1521,-1.2114,-1.1314,-1.1917,-1.3269,-1.3256,-1.3713,-1.4265,-1.3474,0.0,0.0,0.0,0.0,0.0,0.0,0.0,0.0,0.0,0.0,0.0,0.0,0.0,0.0,0.0,0.0,0.0,0.0,0.0,0.0,0.0,0.0,0.0,0.0,0.0,0.0,0.0,0.0,0.0,0.0,0.0,0.0,0.0,0.0,0.0,0.0,0.0,0.0,0.0,0.0,0.0,-2.9042,-2.9076,-2.9093,-2.9093,-2.9786,-3.0176,-3.0176,-3.0852,-3.119,-3.119,-3.119,-3.119,-3.119,-3.119,-3.1241,-3.1343,-3.2036,-3.2763,-3.3457,-3.3457,-3.3897,-3.4556,-3.4556,-3.4979,-3.5622,-3.5622,-3.5622,-3.5622,0.0,0.0,0.0,0.0,0.0,0.0,0.0,0.0,0.0,0.0,0.0,0.0,0.0,-0.5024,-0.4991,-0.4962,-0.496,0.0,0.0,0.0,0.0,0.0,0.0,0.0,0.0,0.0,0.0,0.0,0.0,-0.9106,-1.0465,-1.1058,-1.1939,-1.3055,-1.3842,-1.391,-1.3402,-1.2816,0.0,-1.2307,-1.303,-1.3639,-1.4268,-1.5846,-1.6619,-1.6772,0.0,0.0,0.0,0.0,0.0,0.0,-1.0916,-1.0526,-1.0423,-0.9906,-1.0308,0.0,0.0,0.0,0.0,0.0,0.0,0.0,0.0,0.0,0.0,0.0,0.0,0.0,0.0,0.0,0.0,0.0,0.0,0.0,0.0,0.0,0.0,0.0,0.0,0.0,0.0,0.0,0.0,0.0,0.0,0.0,-2.823,-2.8704,-2.9011,-2.9011,-2.9245,-2.9381,-2.9381,-3.0125,-3.0497,-3.0497,-3.097,-3.119,-3.119,-3.119,-3.119,-3.1207,-3.1461,-3.2002,-3.2679,-3.2679,-3.3119,-3.3795,-3.3795,-3.3964,-3.4269,-3.4726,-3.4895,-3.4962,0.0,0.0,0.0,-0.5105,0.0,-0.5095,-0.511,-0.5109,-0.5206,-0.5496,0.0,0.0,0.0,0.0,-0.5776,-0.5469,-0.543,-0.5318,-0.5046,0.0,0.0,0.0,0.0,0.0,0.0,0.0,0.0,0.0,0.0,0.0,0.0,-1.0255,-1.1127,-1.2253,-1.3306,-1.3501,0.0,0.0,0.0,-1.2724,0.0,-1.4933,-1.56,0.0,-1.8828,0.0,0.0,0.0,0.0,0.0,0.0,0.0,0.0,-1.1428,-1.0851,-1.0046,-1.0154,0.0,-1.1148,0.0,0.0,0.0,0.0,0.0,0.0,0.0,0.0,0.0,0.0,0.0,0.0,0.0,0.0,0.0,0.0,0.0,0.0,0.0,0.0,0.0,0.0,0.0,0.0,0.0,0.0,0.0,0.0,0.0,-2.7452,-2.7943,-2.8332,-2.8586,-2.8602,-2.8721,-2.9011,-2.9482,-2.9736,-2.9736,-3.0226,-3.0446,-3.0463,-3.0717,-3.0835,-3.0835,-3.1089,-3.1461,-3.1918,-3.1918,-3.2357,-3.3034,-3.3034,-3.3186,-3.3457,-3.3947,-3.4134,-3.4235,-0.5148,-0.515,-0.5183,-0.5167,-0.5171,-0.5173,-0.5173,-0.5173,-0.5485,-0.6326,0.0,0.0,0.0,0.0,0.0,-0.6418,-0.6311,-0.5973,-0.5194,-0.5116,0.0,0.0,0.0,0.0,0.0,0.0,0.0,0.0,0.0,0.0,0.0,0.0,-1.0595,-1.2095,-1.2132,-1.2132,-1.2132,0.0,-1.2687,-1.3473,0.0,-1.5715,-1.7312,0.0,0.0,0.0,-2.0885,-2.0881,0.0,0.0,0.0,0.0,0.0,-1.2325,-1.0882,-1.0105,-0.9875,-1.0194,0.0,0.0,0.0,0.0,0.0,0.0,0.0,0.0,0.0,0.0,0.0,0.0,0.0,0.0,0.0,0.0,0.0,0.0,0.0,0.0,0.0,0.0,0.0,0.0,0.0,0.0,0.0,0.0,0.0,-2.664,-2.6657,-2.6674,-2.7029,-2.7722,-2.7755,-2.8146,-2.8907,-2.8941,-2.8941,-2.8941,-2.9011,-2.9011,-2.9008,-2.9736,-3.0091,-3.0142,-3.0852,-3.1173,-3.119,-3.119,-3.1613,-3.2297,-3.2297,-3.2696,-3.3339,-3.3355,-3.3355,-3.3474,-0.6039,-0.6541,-0.6972,-0.6972,-0.6988,-0.6986,-0.6988,-0.6988,-0.7067,0.0,0.0,0.0,-0.7676,-0.7693,-0.759,-0.7327,-0.6733,-0.6282,-0.6052,-0.544,-0.5096,-0.5077,-0.5027,-0.5266,0.0,0.0,0.0,0.0,0.0,0.0,0.0,0.0,-0.9165,-0.9612,-1.0194,-1.0465,-1.0577,-1.2327,0.0,0.0,-1.5611,-1.7076,0.0,0.0,0.0,0.0,0.0,-2.2759,-2.2449,0.0,-1.9351,-1.8136,0.0,0.0,-1.1832,-1.1663,-1.1564,-1.1623,-1.2059,0.0,0.0,0.0,0.0,0.0,0.0,0.0,0.0,0.0,0.0,0.0,0.0,0.0,0.0,0.0,0.0,0.0,0.0,0.0,0.0,0.0,0.0,0.0,0.0,0.0,0.0,0.0,-2.5133,-2.5338,-2.5879,-2.6404,-2.6793,-2.6996,-2.6996,-2.7114,-2.7317,-2.7875,-2.8146,-2.8146,-2.8704,-2.9011,-2.9028,-2.9194,-2.96,-3.0125,-3.0328,-3.0717,-3.119,-3.119,-3.1309,-3.1495,-3.1495,-3.163,-3.1816,-3.183,-3.2174,-3.2696,-0.6933,-0.7321,-0.7661,-0.7657,-0.7665,-0.7658,-0.7666,-0.7667,-0.7808,0.0,0.0,0.0,-0.8747,-0.8789,-0.8629,-0.8273,-0.778,-0.7175,-0.6454,-0.5926,-0.5646,-0.5646,-0.5581,-0.5929,-0.6772,0.0,0.0,0.0,0.0,0.0,0.0,-0.7196,-0.799,-0.8666,-0.9132,-0.9526,-0.9981,-1.2087,0.0,0.0,-1.5691,0.0,0.0,-2.1368,-2.2814,0.0,0.0,0.0,-2.387,-2.2491,-2.0977,0.0,0.0,-1.4592,-1.3179,-1.2891,-1.2547,-1.2382,-1.3019,-1.3516,0.0,0.0,0.0,0.0,0.0,0.0,0.0,0.0,0.0,0.0,0.0,0.0,0.0,0.0,0.0,0.0,0.0,0.0,0.0,0.0,0.0,0.0,0.0,0.0,0.0,0.0,-2.4506,-2.4678,-2.5118,-2.5541,-2.5913,-2.6234,-2.6234,-2.6387,-2.6691,-2.7131,-2.7351,-2.7351,-2.7807,-2.8027,-2.8027,-2.8349,-2.8738,-2.9194,-2.9837,-3.0345,-3.0768,-3.1072,-3.119,-3.119,-3.119,-3.119,-3.1207,-3.119,-3.1466,-3.1935,0.0,-0.7868,-0.7883,-0.7894,-0.7891,-0.7879,-0.7898,-0.7881,-0.8183,0.0,-0.9146,-0.9434,-1.0212,-1.0293,-0.9997,-0.9212,-0.9054,-0.8351,-0.679,-0.6598,-0.6537,-0.6541,-0.6481,-0.6868,-0.7727,-0.7655,-0.7218,0.0,-0.6359,-0.6269,-0.6165,-0.6359,-0.7216,-0.8589,-0.8765,-0.9255,-1.0025,-1.1623,0.0,-1.2572,-1.5268,-1.7416,0.0,0.0,-2.3061,0.0,-2.4657,-2.4929,-2.4769,-2.3827,-2.184,0.0,0.0,-1.6313,-1.4825,-1.4128,-1.3402,-1.3133,-1.4497,-1.4862,-1.5016,0.0,0.0,0.0,0.0,-1.6042,0.0,0.0,0.0,0.0,0.0,0.0,0.0,0.0,0.0,0.0,0.0,0.0,0.0,0.0,0.0,0.0,0.0,0.0,-2.4269,-2.4269,-2.4337,-2.4388,-2.4388,-2.4472,-2.478,-2.5456,-2.549,-2.5828,-2.6573,-2.6573,-2.6623,-2.6691,-2.6691,-2.6691,-2.6708,-2.7385,-2.7705,-2.7857,-2.9262,-2.9922,-3.0091,-3.07,-3.1038,-3.119,-3.119,-3.119,-3.119,-3.119,-3.119,-3.1275,-0.8755,-0.9261,-0.9686,-0.969,-0.9693,-0.9684,-0.9685,-0.9688,-0.9756,-0.9939,-1.0018,-1.011,-1.0273,-1.0292,-1.0232,-1.0056,-0.9408,-0.886,-0.8513,-0.7831,-0.7441,-0.7441,-0.7433,-0.7805,-0.862,-0.7959,-0.7517,-0.7338,-0.669,-0.6029,-0.537,-0.671,-0.7506,-0.7873,-0.9221,-0.992,-1.0125,-1.1168,0.0,-1.281,-1.5975,0.0,-2.0916,-2.213,-2.3515,-2.4862,-2.5065,-2.5106,-2.4898,0.0,-2.2308,-2.0543,0.0,0.0,0.0,-1.6511,0.0,-1.6218,-1.6454,-1.654,-1.6551,-1.6646,0.0,0.0,0.0,-1.6107,0.0,0.0,0.0,0.0,0.0,0.0,0.0,0.0,0.0,0.0,0.0,0.0,0.0,0.0,0.0,0.0,0.0,0.0,-2.2733,-2.2733,-2.3274,-2.3613,-2.3613,-2.4201,-2.4574,-2.4726,-2.4695,-2.5067,-2.5812,-2.5812,-2.6116,-2.6691,-2.6691,-2.6691,-2.6691,-2.6843,-2.7249,-2.7806,-2.811,-2.8825,-2.9765,-2.9556,-3.0125,-3.119,-3.119,-3.119,-3.119,-3.119,-3.119,-3.1207,-0.9607,-0.9913,-1.02,-1.0191,-1.0199,-1.0196,-1.0208,-1.0205,-1.0207,-1.0191,-1.023,-1.0254,-1.0252,-1.0248,-1.0243,-1.0242,-0.9871,-0.9464,-0.902,-0.8593,-0.834,-0.8339,-0.832,-0.8688,-0.9523,-0.9124,-0.8489,-0.7644,-0.7255,-0.6373,-0.5134,-0.6404,-0.7224,-0.7658,-0.8941,-0.9724,-1.0183,0.0,-1.2515,-1.347,-1.5984,0.0,-2.0945,-2.2221,-2.3735,-2.5212,-2.5201,-2.5164,-2.5012,-2.4479,-2.3388,0.0,0.0,-2.0391,-1.8994,0.0,-1.8441,-1.79,-1.8647,-1.8531,-1.8176,-1.8096,0.0,0.0,0.0,0.0,0.0,0.0,0.0,0.0,0.0,0.0,0.0,0.0,0.0,0.0,0.0,0.0,0.0,0.0,0.0,0.0,0.0,0.0,-2.231,-2.231,-2.2649,-2.2852,-2.2852,-2.319,-2.3562,-2.3934,-2.3934,-2.4306,-2.5033,-2.505,-2.5423,-2.615,-2.615,-2.6336,-2.6691,-2.6691,-2.6894,-2.7283,-2.762,-2.8181,-2.8759,-2.8926,-2.9431,-3.0125,-3.0514,-3.0869,-3.119,-3.119,-3.119,-3.119,-1.0236,-1.0213,-1.0193,-1.0193,-1.0205,-1.02,-1.019,-1.0193,-1.0254,-1.0428,-1.0603,-1.0709,-1.0685,-1.0674,-1.0686,-1.0705,-1.0758,-1.0417,-0.9565,0.0,0.0,-0.9254,-0.9194,-0.9488,-1.0173,-1.0195,-0.9452,-0.7946,0.0,-0.6978,-0.5622,-0.6317,-0.7087,-0.7909,-0.8937,0.0,0.0,0.0,0.0,-1.4093,0.0,-1.8293,-2.0718,-2.2233,-2.3851,-2.5313,-2.5233,-2.5176,-2.5113,-2.5051,0.0,-2.3535,-2.3545,-2.2436,0.0,0.0,0.0,0.0,0.0,0.0,0.0,0.0,0.0,-1.9106,0.0,0.0,0.0,-1.7421,0.0,0.0,0.0,0.0,0.0,0.0,0.0,0.0,0.0,0.0,0.0,0.0,0.0,0.0,0.0,0.0,-2.187,-2.187,-2.2006,-2.209,-2.209,-2.2226,-2.2581,-2.3173,-2.319,-2.3528,-2.4286,-2.4303,-2.4644,-2.5389,-2.5541,-2.5913,-2.6488,-2.6623,-2.6691,-2.6725,-2.7334,-2.757,-2.7655,-2.8281,-2.8689,-2.8926,-2.9617,-3.0243,-3.0784,-3.0937,-3.0987,-3.1004,-1.0273,-1.0248,-1.0202,-1.0202,-1.0197,-1.0194,-1.0202,-1.0208,-1.0488,-1.125,-1.2029,-1.2476,-1.2417,0.0,0.0,0.0,0.0,0.0,-1.1363,0.0,-1.0956,-1.0181,-1.0098,-1.0094,-1.0194,-1.0197,-0.9755,-0.8847,0.0,-0.7593,-0.7405,-0.7498,-0.8018,-0.8906,-1.0503,0.0,0.0,0.0,-1.3987,0.0,-1.6759,-1.9221,0.0,-2.2458,-2.3876,-2.5361,-2.5243,-2.5209,-2.5184,0.0,-2.4467,-2.3669,0.0,-2.2927,0.0,0.0,0.0,0.0,0.0,0.0,0.0,0.0,-2.0356,0.0,0.0,0.0,-1.763,-1.6797,0.0,0.0,0.0,0.0,0.0,0.0,0.0,0.0,0.0,0.0,0.0,0.0,0.0,0.0,0.0,0.0,0.0,-2.0255,-2.0923,-2.1312,-2.1312,-2.1938,-2.2344,-2.2429,-2.2429,-2.2784,-2.3511,-2.3511,-2.3883,-2.4642,-2.5287,-2.5642,-2.5761,-2.6404,-2.6691,-2.6691,-2.6793,-2.6826,-2.6826,-2.6911,-2.7487,-2.8352,-2.8909,-2.9161,-2.9313,-2.9973,-3.0226,-3.0328,-1.025,-1.0215,-1.0195,-1.0195,-1.0195,-1.0195,-1.0193,-1.0195,-1.0694,-1.2078,-1.2533,-1.2722,0.0,0.0,0.0,0.0,0.0,-1.3233,0.0,0.0,-1.1425,-1.1001,-1.0485,-1.0195,-1.0207,-1.0193,-0.9813,-0.9007,-0.8628,-0.8203,-0.7714,-0.8219,-0.8646,-0.9075,-1.0785,0.0,-1.1661,0.0,0.0,0.0,0.0,0.0,0.0,-2.255,-2.3893,-2.5322,-2.5273,-2.5241,-2.5209,0.0,-2.4866,0.0,0.0,0.0,0.0,0.0,0.0,0.0,0.0,0.0,0.0,0.0,0.0,0.0,0.0,0.0,-1.8554,0.0,0.0,0.0,0.0,0.0,0.0,0.0,0.0,0.0,0.0,0.0,0.0,0.0,0.0,0.0,0.0,0.0,0.0,0.0,0.0,-2.1204,-2.1204,-2.1904,-2.231,-2.231,-2.231,-2.2462,-2.2767,-2.2767,-2.3122,-2.3849,-2.4171,-2.4681,-2.5392,-2.583,-2.6302,-2.6691,-2.6691,-2.6691,-2.6691,-2.6691,-2.6962,-2.7351,-2.7588,-2.8197,-2.9062,-2.9347,-2.9448,-2.9567,-1.0205,-1.0198,-1.0204,-1.0207,-1.0206,-1.0208,-1.0193,-1.0203,-1.082,-1.2546,0.0,0.0,-1.3382,-1.3386,0.0,0.0,0.0,-1.4922,0.0,0.0,-1.2402,-1.1888,-1.1247,0.0,0.0,0.0,0.0,-0.9328,-0.9117,-0.8797,-0.8393,-0.8808,-0.9121,-0.9434,0.0,-1.2084,-1.2396,0.0,0.0,-1.6306,-1.863,-2.0691,-2.2468,-2.3287,-2.4298,-2.5303,-2.5273,-2.5252,-2.5201,-2.5214,-2.5163,0.0,-2.5038,0.0,0.0,0.0,0.0,0.0,-2.4191,0.0,0.0,0.0,0.0,0.0,0.0,0.0,0.0,0.0,0.0,0.0,0.0,0.0,0.0,0.0,0.0,0.0,0.0,0.0,0.0,0.0,0.0,0.0,0.0,0.0,0.0,0.0,0.0,0.0,-2.0839,-2.1583,-2.209,-2.231,-2.231,-2.231,-2.231,-2.231,-2.2581,-2.3105,-2.3291,-2.3853,-2.4734,-2.524,-2.5813,-2.6404,-2.6607,-2.6691,-2.6691,-2.6742,-2.6742,-2.6742,-2.6775,-2.747,-2.8435,-2.8621,-2.867,-2.8772,-1.0206,-1.0191,0.0,0.0,0.0,-1.0203,-1.0197,-1.0195,-1.0799,0.0,0.0,0.0,0.0,0.0,0.0,0.0,0.0,-1.7693,-1.55,0.0,-1.4522,0.0,0.0,-1.2316,0.0,0.0,-1.1034,-1.0153,-0.9386,-0.9387,0.0,-0.9347,-0.945,-1.0332,-1.207,-1.328,-1.4134,-1.5882,-1.7121,-1.8069,-1.9772,-2.1925,-2.42,0.0,-2.5321,-2.5303,-2.5233,0.0,0.0,-2.5214,-2.5163,0.0,0.0,0.0,0.0,0.0,0.0,0.0,0.0,0.0,0.0,-2.2207,0.0,0.0,0.0,0.0,-1.8984,0.0,0.0,0.0,0.0,0.0,-1.6503,-1.5733,0.0,0.0,0.0,0.0,0.0,0.0,0.0,0.0,0.0,0.0,0.0,0.0,0.0,0.0,-1.9951,-2.0788,-2.1549,-2.2293,-2.231,-2.231,-2.231,-2.231,-2.2327,-2.2344,-2.3054,-2.341,-2.3494,-2.4683,-2.5375,-2.5693,-2.6387,-2.6691,-2.6691,-2.6842,-2.6893,-2.6893,-2.6992,-2.6976,-2.7046,-2.7639,-2.7823,-2.7941,0.0,0.0,0.0,0.0,0.0,-1.0202,-1.02,-1.2073,-1.3716,0.0,0.0,0.0,0.0,0.0,-1.8908,0.0,0.0,-1.9589,-1.8831,-1.7161,0.0,0.0,0.0,-1.3212,0.0,0.0,-1.1363,-1.1069,-1.0207,-0.9926,0.0,0.0,0.0,0.0,0.0,-1.33,0.0,0.0,0.0,0.0,0.0,-2.3777,-2.5018,0.0,0.0,-2.5303,-2.5273,-2.5241,0.0,-2.5214,-2.5163,-2.5089,-2.5004,-2.4861,-2.4726,-2.4629,-2.4479,0.0,0.0,0.0,-2.3804,-2.2154,0.0,0.0,0.0,0.0,0.0,0.0,0.0,0.0,0.0,0.0,-1.6537,-1.5733,-1.4986,-1.4174,0.0,0.0,0.0,0.0,0.0,0.0,0.0,0.0,0.0,0.0,0.0,0.0,0.0,-2.023,-2.1322,-2.1549,-2.2057,-2.231,-2.231,-2.231,-2.231,-2.231,-2.2564,-2.2676,-2.271,-2.359,-2.416,-2.4483,-2.5526,-2.5981,-2.6015,-2.6639,-2.6893,-2.6893,-2.6975,-2.6992,-2.6976,-2.7131,-2.7131,-2.7182,-1.0063,0.0,0.0,0.0,0.0,0.0,0.0,0.0,0.0,0.0,-1.8927,0.0,-2.0392,0.0,-2.2236,0.0,-2.1177,-2.0464,-2.0468,-1.8853,0.0,-1.6245,-1.5659,0.0,0.0,0.0,-1.2418,-1.1492,0.0,-1.0498,0.0,0.0,0.0,0.0,0.0,0.0,0.0,0.0,-1.8594,0.0,0.0,-2.4659,0.0,0.0,-2.5341,-2.5303,0.0,-2.5241,-2.5209,-2.518,-2.5095,-2.5018,-2.487,-2.4738,-2.4613,-2.4497,-2.4375,-2.4266,-2.421,-2.419,0.0,-2.241,-2.1789,0.0,-1.974,0.0,0.0,0.0,0.0,0.0,0.0,0.0,-1.6804,-1.5764,-1.5206,-1.4445,0.0,0.0,0.0,0.0,0.0,0.0,0.0,0.0,-1.4733,-1.4511,0.0,0.0,0.0,0.0,-2.0889,-2.1204,-2.1921,-2.231,-2.231,-2.231,-2.231,-2.231,-2.231,-2.2293,-2.2324,-2.2786,-2.3253,-2.3708,-2.4599,-2.5205,-2.5642,-2.6281,-2.6703,-2.6959,-2.7057,-2.7105,-2.7055,-2.6975,-2.6892,-2.6944,0.0,0.0,0.0,0.0,-1.0251,0.0,0.0,0.0,-1.642,0.0,-2.0446,-2.0566,-2.0637,-2.355,-2.5484,-2.5484,-2.2525,0.0,-2.0527,-2.0431,0.0,0.0,-1.7928,-1.7115,-1.5416,0.0,0.0,0.0,0.0,0.0,0.0,0.0,0.0,0.0,-1.2026,0.0,-1.5504,-1.7197,-1.9381,-2.1903,-2.3508,-2.4656,-2.5389,-2.5313,-2.5303,-2.5293,-2.5233,-2.519,-2.5176,-2.5107,-2.4985,-2.487,-2.4738,-2.4594,-2.4478,-2.4411,-2.4303,-2.4192,-2.419,-2.4151,-2.3853,-2.2915,0.0,0.0,0.0,0.0,-1.8761,0.0,0.0,0.0,0.0,0.0,0.0,-1.5883,-1.5612,-1.4851,0.0,0.0,0.0,0.0,0.0,0.0,0.0,0.0,-1.3684,-1.4376,-1.5138,0.0,0.0,0.0,0.0,-2.1092,-2.1854,-2.2276,-2.231,-2.231,-2.231,-2.231,-2.231,-2.231,-2.2282,-2.2308,-2.2677,-2.3359,-2.3644,-2.445,-2.5558,-2.5783,-2.6324,-2.7007,-2.7218,-2.7264,-2.7181,-2.7072,-2.7055,-2.7238,-1.0703,-1.04,-1.0048,0.0,-1.2167,-1.4941,0.0,0.0,0.0,0.0,-2.2457,-2.4024,-2.4051,-2.4821,-2.5351,-2.5351,-2.4552,0.0,0.0,0.0,0.0,-2.0506,-1.9856,-1.9016,-1.7973,-1.6157,0.0,-1.3436,0.0,0.0,-1.0198,0.0,0.0,0.0,0.0,0.0,-1.5511,-1.7198,-1.9699,-2.2678,-2.4375,-2.5159,0.0,0.0,-2.5271,-2.522,-2.5212,-2.5168,-2.5125,-2.4987,-2.4851,-2.4738,-2.4594,-2.4461,-2.4339,-2.4284,-2.419,-2.4095,-2.4016,-2.3917,-2.3635,-2.271,-2.2228,-2.1726,0.0,0.0,0.0,0.0,0.0,0.0,0.0,0.0,0.0,-1.6665,-1.595,-1.5206,0.0,0.0,0.0,0.0,0.0,0.0,0.0,-1.3396,-1.3481,-1.3684,-1.4377,0.0,0.0,0.0,0.0,-2.0281,-2.1075,-2.1752,-2.231,-2.231,-2.231,-2.231,-2.231,-2.231,-2.231,-2.2304,-2.2389,-2.2632,-2.3228,-2.3971,-2.4845,-2.5467,-2.6228,-2.6959,-2.7087,-2.7293,-2.7478,-2.7341,-2.7341,-2.7421,-1.1501,0.0,0.0,-1.2097,0.0,0.0,-1.7633,0.0,0.0,-1.9958,-2.317,0.0,-2.5261,-2.5261,-2.5282,-2.5303,-2.5303,0.0,0.0,0.0,0.0,-2.2205,-2.1491,-2.0555,-1.9407,-1.7703,0.0,-1.4058,0.0,0.0,-1.0194,0.0,0.0,0.0,0.0,-1.352,0.0,-1.8172,-2.0771,-2.2906,-2.4649,0.0,0.0,-2.522,-2.5176,-2.5106,-2.5075,-2.505,-2.4987,-2.4865,-2.4734,-2.4578,-2.4444,-2.4339,-2.4228,-2.4133,-2.4036,-2.3955,-2.381,-2.3728,-2.3512,-2.2878,-2.2374,-2.1849,-2.1196,-2.0683,-2.0426,0.0,0.0,0.0,0.0,0.0,0.0,-1.6953,-1.6069,0.0,0.0,0.0,0.0,0.0,0.0,0.0,0.0,-1.2922,-1.2922,-1.2922,-1.3599,0.0,0.0,0.0,0.0,-1.9486,-2.0602,-2.1549,-2.231,-2.231,-2.231,-2.231,-2.231,-2.231,-2.231,-2.231,-2.231,-2.2327,-2.275,-2.3342,-2.41,-2.489,-2.5686,-2.6449,-2.7014,-2.7386,-2.7659,-2.7707,-2.7766,-2.7806,0.0,0.0,0.0,0.0,0.0,0.0,0.0,-1.7846,0.0,-2.0031,0.0,-2.5144,-2.5144,-2.5156,-2.5203,-2.5262,0.0,-2.525,-2.5168,-2.4921,-2.436,-2.3436,-2.2946,-2.1941,-2.034,-1.9473,0.0,0.0,0.0,-1.2067,-1.0352,0.0,0.0,0.0,0.0,0.0,0.0,-1.9665,-2.2111,0.0,-2.458,-2.522,-2.5164,-2.5091,-2.5038,-2.4953,-2.4884,-2.4865,-2.4847,-2.4719,-2.4578,-2.4444,-2.4321,-2.4228,-2.4151,-2.3996,-2.3876,-2.3732,-2.3594,-2.3481,-2.3389,-2.3102,-2.2454,-2.1868,-2.1746,-2.1079,-2.0645,-2.1213,-2.0797,-2.0475,0.0,0.0,0.0,0.0,0.0,0.0,0.0,0.0,0.0,0.0,0.0,0.0,0.0,-1.2297,-1.2263,-1.2145,0.0,0.0,0.0,0.0,0.0,-1.886,-2.0281,0.0,-2.2293,0.0,-2.231,-2.231,-2.231,-2.231,-2.231,-2.231,-2.231,-2.231,-2.231,-2.2733,-2.3444,-2.416,-2.4955,-2.5805,-2.6937,-2.7509,-2.773,-2.8025,-2.8191,-2.8255,0.0,0.0,0.0,0.0,0.0,-1.9111,-1.8983,-1.7273,-1.6965,-1.9745,-2.2842,0.0,-2.4798,-2.495,-2.5031,-2.5057,-2.5057,0.0,0.0,0.0,0.0,-2.4441,-2.4292,-2.3495,-2.1922,-2.0465,-1.8499,0.0,-1.4457,-1.283,-1.117,-1.0442,0.0,0.0,0.0,0.0,-1.7198,-2.0926,0.0,-2.2755,-2.4457,-2.5099,-2.5032,-2.4955,-2.4847,-2.4734,-2.4689,-2.4654,-2.4639,-2.4561,-2.4462,-2.4321,-2.4228,-2.4133,-2.3996,-2.3816,-2.3707,-2.3594,-2.336,-2.3175,-2.3028,-2.2816,-2.2608,-2.2426,-2.2283,-2.2143,-2.2021,-2.2101,-2.2006,-2.1752,-2.1305,0.0,0.0,0.0,0.0,0.0,0.0,0.0,0.0,0.0,0.0,0.0,0.0,0.0,-1.2026,0.0,0.0,0.0,0.0,0.0,0.0,0.0,0.0,0.0,0.0,0.0,-2.231,-2.231,-2.231,-2.231,-2.231,-2.231,-2.231,-2.231,-2.231,-2.2733,-2.341,-2.3558,-2.4452,-2.5805,-2.6762,-2.7369,-2.773,-2.8063,-2.8362,-2.8569,0.0,0.0,0.0,0.0,0.0,0.0,0.0,-2.0849,0.0,-2.2171,-2.3667,-2.4599,-2.4599,-2.4679,-2.4757,-2.4832,-2.4846,-2.4817,-2.476,-2.4647,-2.4549,-2.4464,-2.4482,0.0,-2.2834,-2.1243,-1.9273,-1.6907,-1.5274,-1.3401,-1.1347,-1.0918,-1.0697,-1.0713,0.0,-1.5402,0.0,0.0,0.0,-2.3239,-2.448,-2.4929,-2.4842,-2.4775,-2.467,-2.4545,-2.4478,-2.4409,-2.4338,-2.4356,-2.4248,-2.4134,-2.4074,-2.3955,-2.381,-2.3642,-2.3463,-2.3295,-2.307,-2.2876,-2.2764,-2.2596,-2.2515,-2.246,-2.2366,-2.2366,-2.2338,-2.231,-2.231,-2.2073,-2.1329,-2.0585,0.0,0.0,0.0,0.0,0.0,0.0,0.0,0.0,0.0,0.0,0.0,0.0,0.0,0.0,0.0,0.0,0.0,0.0,0.0,0.0,0.0,0.0,0.0,0.0,0.0,-2.231,-2.231,-2.231,-2.231,-2.231,-2.231,-2.231,-2.231,-2.2513,-2.2868,-2.3241,-2.4303,-2.5771,-2.6319,-2.6978,-2.7689,-2.8007,-2.8353,-2.8619,0.0,-1.505,0.0,0.0,-2.0055,0.0,0.0,-2.4266,-2.4247,-2.4412,-2.443,-2.443,-2.443,-2.443,-2.4481,-2.458,-2.4596,-2.4547,-2.4447,-2.443,-2.4358,-2.4227,-2.4303,-2.4004,-2.3265,-2.2021,-2.0226,0.0,0.0,0.0,-1.2008,-1.1661,-1.1617,-1.197,0.0,0.0,0.0,0.0,-2.2407,-2.3625,-2.4478,-2.4746,-2.4629,-2.4526,-2.4407,-2.432,-2.4229,-2.4134,-2.4034,-2.4057,-2.4018,-2.3917,-2.3834,-2.3747,-2.3611,-2.3435,-2.3223,-2.2995,-2.279,-2.2659,-2.2542,-2.2405,-2.2394,-2.2349,-2.231,-2.231,-2.231,-2.231,-2.231,-2.2124,-2.1532,-2.1322,0.0,0.0,0.0,0.0,0.0,0.0,0.0,0.0,0.0,0.0,0.0,0.0,0.0,0.0,0.0,0.0,0.0,0.0,0.0,0.0,0.0,-2.023,-2.1204,0.0,-2.231,0.0,-2.231,-2.231,-2.231,-2.231,-2.231,-2.231,-2.231,-2.231,-2.2361,-2.3105,-2.4117,-2.5246,-2.5805,-2.6532,-2.7407,-2.7915,-2.83,-2.8587,0.0,0.0,0.0,0.0,0.0,0.0,0.0,-2.4074,-2.4227,-2.4246,-2.4228,-2.4228,-2.4228,-2.4228,-2.4228,-2.4247,-2.4247,-2.4247,-2.4228,-2.4228,-2.4209,-2.419,-2.4209,-2.3861,-2.3134,-2.3036,-2.1819,0.0,0.0,0.0,0.0,-1.2832,-1.2918,-1.4436,0.0,0.0,0.0,-2.2238,-2.3333,-2.3484,-2.4236,-2.4493,-2.4393,-2.4211,-2.4097,-2.4036,-2.3958,-2.3852,-2.3721,-2.366,-2.3685,-2.371,-2.3576,-2.3499,-2.3383,-2.3102,-2.2927,-2.279,-2.2579,-2.2487,-2.2405,-2.2338,-2.231,-2.231,-2.231,-2.231,-2.231,-2.231,-2.231,-2.2293,-2.2226,-2.1651,-2.1187,0.0,0.0,0.0,0.0,0.0,0.0,0.0,0.0,0.0,0.0,0.0,0.0,0.0,0.0,0.0,0.0,0.0,0.0,-1.6614,0.0,-1.9705,-2.1204,-2.1938,0.0,-2.231,-2.231,-2.231,-2.231,-2.231,-2.231,-2.231,-2.231,-2.231,-2.2361,-2.3105,-2.3477,-2.3761,-2.5364,-2.6191,-2.6662,-2.7692,-2.8273,-2.8492,0.0,0.0,0.0,0.0,0.0,0.0,0.0,-2.4016,-2.419,-2.419,-2.419,-2.419,-2.419,-2.419,-2.419,-2.419,-2.419,-2.419,-2.419,-2.419,-2.419,-2.419,-2.419,-2.4062,-2.3768,-2.3306,-2.2397,0.0,0.0,0.0,0.0,-1.4902,-1.4995,0.0,0.0,-1.9526,-2.1241,-2.2746,-2.3614,-2.4016,-2.4226,-2.4229,-2.4095,-2.3959,-2.384,-2.3753,-2.3685,-2.3594,-2.3499,-2.3295,-2.3301,-2.3394,-2.3295,-2.3151,-2.302,-2.285,-2.2712,-2.2579,-2.2487,-2.2377,-2.2338,-2.231,-2.231,-2.231,-2.231,-2.231,-2.231,-2.231,-2.231,-2.231,-2.231,-2.2073,-2.1854,0.0,0.0,0.0,0.0,0.0,0.0,0.0,0.0,0.0,0.0,0.0,0.0,0.0,0.0,0.0,-1.1045,0.0,0.0,-1.5984,0.0,-1.9875,-2.0483,-2.1701,-2.231,-2.231,-2.231,-2.231,-2.231,-2.231,-2.231,-2.231,-2.231,-2.231,-2.2327,-2.2632,-2.3004,-2.349,-2.4245,-2.5269,-2.6365,-2.7014,-2.7699,-2.8309,-2.283,0.0,-2.336,0.0,-2.3336,-2.3453,-2.3685,-2.3994,-2.419,-2.419,-2.419,-2.419,-2.419,-2.419,-2.419,-2.419,-2.419,-2.419,-2.419,-2.419,-2.419,-2.419,-2.419,0.0,-2.4191,-2.364,-2.2977,-2.2218,-2.0852,0.0,0.0,-1.7204,0.0,0.0,-1.9567,-2.1001,-2.2455,-2.3221,-2.3839,-2.4284,-2.4135,-2.3959,-2.3792,-2.3667,-2.3558,-2.3427,-2.3348,-2.3271,-2.3193,-2.2995,-2.2944,-2.2995,-2.297,-2.2868,-2.2712,-2.2632,-2.2525,-2.246,-2.2377,-2.2338,-2.231,-2.231,-2.231,-2.231,-2.231,-2.231,-2.231,-2.231,-2.231,-2.231,-2.231,-2.231,-2.231,-2.231,0.0,0.0,0.0,0.0,0.0,0.0,0.0,-1.4817,0.0,0.0,0.0,0.0,0.0,0.0,-1.1739,0.0,0.0,0.0,0.0,0.0,0.0,-2.1651,-2.231,-2.231,-2.231,-2.231,-2.231,-2.231,-2.231,-2.231,-2.231,-2.231,-2.231,-2.231,-2.2615,-2.3134,-2.3511,-2.4431,-2.5582,-2.6121,-2.6941,-2.7753,-2.2576,-2.3102,-2.302,-2.2764,-2.2944,-2.3193,-2.3453,-2.3891,-2.419,-2.419,-2.419,-2.419,-2.419,-2.419,-2.419,-2.419,-2.419,-2.419,-2.419,-2.419,-2.419,0.0,0.0,-2.419,-2.419,-2.419,-2.3786,-2.2997,0.0,0.0,-2.0429,-1.962,-1.9724,-2.0583,-2.1412,-2.2275,-2.314,-2.3879,-2.4154,-2.4094,-2.3896,-2.3728,-2.3571,-2.3295,-2.3168,-2.3095,-2.297,-2.285,-2.279,-2.2738,-2.2623,-2.2515,-2.2596,-2.2605,-2.2596,-2.2432,-2.2405,-2.2394,-2.231,-2.231,-2.231,-2.231,-2.231,-2.231,-2.231,-2.231,-2.231,-2.231,-2.231,-2.231,-2.231,-2.231,-2.231,-2.231,0.0,0.0,0.0,0.0,0.0,0.0,-1.6035,-1.502,-1.3532,0.0,0.0,0.0,0.0,0.0,0.0,0.0,0.0,-1.7693,-1.8504,0.0,-2.117,-2.1921,-2.231,-2.231,-2.231,-2.231,-2.231,-2.231,-2.231,-2.231,-2.231,-2.231,-2.231,-2.231,-2.231,-2.2423,-2.3408,-2.3839,-2.4053,-2.5067,-2.5975,-2.6707,-2.2417,-2.2552,-2.2542,-2.2432,-2.2659,-2.2995,-2.3448,-2.3747,-2.3917,-2.3917,-2.3917,-2.3917,-2.3917,-2.4094,-2.4132,0.0,-2.3917,-2.3917,0.0,-2.3917,-2.3976,-2.4074,-2.4074,-2.4074,-2.4074,-2.4113,-2.4003,-2.3747,0.0,0.0,0.0,-2.1106,-2.1454,-2.2262,-2.2501,-2.3033,-2.3785,-2.3985,-2.3978,-2.3816,-2.3664,-2.3463,-2.3247,-2.3052,-2.2944,-2.2816,-2.2738,-2.2685,-2.2632,-2.2525,-2.246,-2.2432,-2.2405,-2.2394,-2.2394,-2.2338,-2.2338,-2.2338,-2.231,-2.231,-2.231,-2.231,-2.231,-2.231,-2.231,-2.231,-2.231,-2.231,-2.231,-2.231,-2.231,-2.231,-2.231,-2.231,-2.187,0.0,0.0,0.0,0.0,0.0,0.0,-1.597,0.0,-1.4682,0.0,0.0,0.0,0.0,0.0,0.0,0.0,0.0,-1.9536,0.0,-2.1204,-2.1938,-2.231,-2.231,-2.231,-2.231,-2.231,-2.231,-2.231,-2.231,-2.231,-2.231,-2.231,-2.231,-2.231,-2.2344,-2.2705,-2.3192,-2.3749,-2.4202,-2.4858,-2.5605,-2.2338,-2.231,-2.231,-2.231,-2.2515,-2.2842,-2.3289,-2.3549,-2.3685,-2.3685,-2.3598,-2.3535,-2.3535,-2.3685,0.0,-2.3685,-2.3598,-2.3535,-2.3535,-2.3642,-2.3707,-2.381,-2.3852,-2.3894,-2.3896,0.0,0.0,-2.4074,-2.3656,-2.318,-2.2667,-2.2667,-2.2887,-2.3343,-2.3305,-2.354,-2.3937,-2.3834,-2.3728,-2.3576,-2.3371,-2.3175,-2.297,-2.2816,-2.2685,-2.2579,-2.2515,-2.2487,-2.2487,-2.2377,-2.2366,-2.2366,-2.231,-2.231,-2.231,-2.231,-2.231,-2.231,-2.231,-2.231,-2.231,-2.231,-2.231,-2.231,-2.231,-2.231,-2.231,-2.231,-2.231,-2.231,-2.231,-2.231,-2.2226,-2.1938,-2.1498,-2.0805,-1.9756,0.0,0.0,0.0,0.0,0.0,0.0,-1.5747,0.0,0.0,0.0,0.0,0.0,0.0,0.0,-1.8599,-2.0297,0.0,-2.16,-2.2073,-2.231,-2.231,-2.231,-2.231,-2.231,-2.231,-2.231,-2.231,-2.231,-2.231,-2.231,-2.231,-2.231,-2.231,-2.2377,-2.2705,-2.3181,-2.3309,-2.3846,-2.4551,-2.231,-2.231,0.0,0.0,-2.2515,0.0,-2.3045,-2.3289,-2.343,-2.343,-2.3193,-2.3003,-2.3003,-2.3003,-2.3102,-2.3383,0.0,0.0,0.0,-2.3313,-2.3453,-2.3471,-2.3589,-2.366,-2.3689,-2.3795,-2.3917,-2.3996,-2.4113,-2.4151,-2.4074,-2.4074,-2.3996,-2.3876,-2.3795,-2.3714,-2.3649,-2.3531,-2.3412,-2.3336,-2.3095,-2.2893,-2.2764,-2.2569,-2.246,-2.2377,-2.231,-2.231,-2.231,-2.231,-2.231,-2.231,-2.231,-2.231,-2.231,-2.231,-2.231,-2.231,-2.231,-2.231,-2.231,-2.231,-2.2282,-2.2282,-2.2282,-2.2265,-2.2282,-2.2282,-2.2282,-2.2265,-2.2265,-2.2282,-2.2057,-2.1312,-2.117,-2.0611,-1.9096,0.0,0.0,0.0,0.0,0.0,0.0,-1.6272,-1.59,0.0,0.0,0.0,0.0,0.0,-1.8674,-2.0035,-2.0856,-2.16,-2.231,-2.231,-2.231,-2.231,-2.231,-2.231,-2.231,-2.231,-2.231,-2.231,-2.231,-2.231,-2.231,-2.231,-2.231,-2.231,-2.2366,-2.2377,-2.2405,-2.246,-2.2914,-2.3511,0.0,0.0,-2.231,-2.231,-2.2349,-2.2487,-2.2764,-2.2868,-2.2893,-2.2893,-2.2436,-2.2101,-2.2101,-2.2101,-2.2243,-2.2552,-2.2712,-2.279,-2.279,-2.285,-2.2995,-2.3193,-2.3126,-2.3223,-2.3544,-2.3638,-2.3728,-2.3855,-2.3876,-2.3896,-2.3876,-2.3816,-2.375,-2.366,-2.3598,-2.344,-2.323,-2.3199,-2.3102,-2.2944,-2.2816,-2.2685,-2.2569,-2.246,-2.2394,-2.231,-2.231,-2.231,-2.231,-2.231,-2.231,-2.231,-2.231,-2.231,-2.231,-2.231,-2.231,-2.231,-2.231,-2.231,-2.231,-2.231,-2.2254,-2.2197,-2.2032,-2.1986,-2.1974,-2.1915,-2.1974,-2.1986,-2.1986,-2.2123,-2.1973,-2.1181,-2.0617,-1.9959,-1.9029,-1.842,0.0,0.0,-1.8132,-1.8369,-1.8369,-1.8741,-1.8954,0.0,0.0,0.0,0.0,-2.0061,-2.0577,-2.0889,-2.1651,-2.2124,-2.231,-2.231,-2.231,-2.231,-2.231,-2.231,-2.231,-2.231,-2.231,-2.231,-2.231,-2.231,-2.231,-2.231,-2.231,-2.231,-2.231,-2.2338,-2.2338,-2.2338,-2.244,-2.2705,-2.231,-2.231,-2.231,-2.231,-2.231,-2.2366,-2.2487,-2.2388,-2.2215,-2.2073,-2.1645,-2.1355,-2.1355,-2.1479,-2.1708,-2.2049,-2.2332,-2.2515,-2.2515,-2.2515,-2.2632,-2.2919,-2.2842,-2.2944,-2.3175,-2.3295,-2.3481,-2.3646,-2.3692,-2.3689,-2.3646,-2.3642,-2.3531,-2.3365,-2.3271,-2.3126,-2.2919,-2.2738,-2.2634,-2.25,-2.2381,-2.2287,-2.2203,-2.2163,-2.2135,-2.2106,-2.2106,-2.218,-2.2254,-2.2192,-2.2209,-2.2225,-2.2152,-2.2135,-2.2163,-2.2135,-2.2209,-2.231,-2.231,-2.231,-2.2282,-2.2192,-2.2077,-2.1991,-2.1857,-2.1781,-2.1705,-2.1691,-2.1675,-2.1751,-2.1781,-2.1649,-2.1267,-2.0525,-1.984,-1.9134,-1.8394,-1.7956,0.0,-1.8152,-1.8586,-1.8998,-1.9335,-1.974,-2.0002,-2.0002,0.0,0.0,-2.0534,-2.0957,-2.1204,-2.1204,-2.1921,-2.231,-2.231,-2.231,-2.231,-2.231,-2.231,-2.231,-2.231,-2.231,-2.231,-2.231,-2.231,-2.231,-2.231,-2.231,-2.231,-2.231,-2.231,-2.231,-2.231,-2.231,-2.231,-2.2361,-2.2237,-2.2209,-2.2209,-2.2152,-2.2152,-2.2152,-2.2152,-2.1903,-2.1601,-2.1277,-2.0925,-2.0695,-2.0646,-2.099,-2.1371,-2.1708,-2.2094,-2.231,-2.231,-2.231,-2.2405,-2.2632,-2.2632,-2.2685,-2.273,-2.2952,-2.3175,-2.3412,-2.3468,-2.345,-2.3371,-2.3371,-2.3247,-2.296,-2.285,-2.2721,-2.2535,-2.2265,-2.2108,-2.2079,-2.1911,-2.1823,-2.1823,-2.1781,-2.1781,-2.1823,-2.1869,-2.1991,-2.2111,-2.2015,-2.2032,-2.2111,-2.1915,-2.1882,-2.1911,-2.1882,-2.2032,-2.2225,-2.2282,-2.2282,-2.2209,-2.1998,-2.184,-2.1691,-2.1617,-2.1479,-2.1401,-2.137,-2.1354,-2.1432,-2.1556,-2.1167,-2.0544,-1.9754,-1.9168,-1.8542,-1.7683,0.0,-1.7966,-1.8576,-1.8918,-1.9353,-1.9991,-2.0237,-2.0314,-2.0314,-2.0339,-2.067,0.0,-2.1363,-2.1363,-2.1363,-2.1972,-2.231,-2.231,-2.231,-2.231,-2.231,-2.231,-2.231,-2.231,-2.231,-2.231,-2.231,-2.231,-2.231,-2.231,-2.231,-2.231,-2.231,-2.231,-2.231,-2.231,-2.231,-2.231,-2.231,-2.1915,-2.1886,-2.1797,-2.1495,-2.1481,-2.1481,-2.1481,-2.1402,-2.1246,-2.0925,-2.0595,-2.0254,-1.9889,-2.0478,-2.1023,-2.134,-2.1932,-2.231,-2.231,-2.231,-2.231,-2.2366,-2.2366,-2.2366,-2.2377,-2.2685,-2.2876,-2.2977,-2.3003,-2.2977,-2.2902,-2.285,-2.2677,-2.2412,-2.233,-2.2153,-2.1928,-2.1899,-2.1764,-2.1598,-2.1568,-2.1554,-2.1554,-2.1554,-2.1554,-2.1584,-2.1708,-2.1754,-2.1784,-2.1827,-2.1797,-2.1784,-2.1738,-2.1661,-2.1615,-2.1708,-2.1754,-2.1844,-2.214,-2.2135,-2.2015,-2.1797,-2.1601,-2.1386,-2.1087,-2.0974,-2.0844,-2.0679,-2.0778,-2.0925,-2.0958,-2.1133,-2.0845,-1.9491,-1.9361,-1.8965,-1.7542,0.0,-1.8385,-1.8442,-1.9654,-2.0517,-2.065,-2.139,-2.186,-2.186,-2.19,-2.2006,-2.2124,-2.2141,-2.2141,-2.2141,-2.2243,-2.231,-2.231,-2.231,-2.231,-2.231,-2.231,-2.231,-2.231,-2.231,-2.231,-2.231,-2.231,-2.231,-2.231,-2.231,-2.231,-2.231,-2.231,-2.231,-2.231,-2.231,-2.231,-2.231,-2.1556,-2.1386,-2.1198,-2.1055,-2.1023,-2.1023,-2.1023,-2.0893,-2.0695,-2.0561,-2.022,-1.9904,-1.9726,-2.0342,-2.0925,-2.1277,-2.1903,-2.231,-2.231,-2.231,-2.231,-2.231,-2.231,-2.2237,-2.2147,-2.247,-2.2588,-2.2527,-2.2554,-2.2527,-2.2419,-2.2337,-2.2226,-2.201,-2.1836,-2.1675,-2.1526,-2.1324,-2.1198,-2.1119,-2.0991,-2.0958,-2.0958,-2.0958,-2.1023,-2.1119,-2.1198,-2.134,-2.1464,-2.1401,-2.1417,-2.1433,-2.1277,-2.1214,-2.1229,-2.123,-2.1464,-2.1768,-2.1932,-2.1903,-2.1738,-2.1526,-2.1277,-2.1007,-2.0745,-2.0579,-2.0494,-2.0407,-2.046,-2.0527,-2.0579,-2.0511,-2.0224,-1.9613,-1.937,0.0,0.0,-1.854,-1.8914,-1.9276,-2.0037,-2.071,-2.118,-2.1732,-2.2049,-2.2049,-2.2089,-2.2147,-2.2147,-2.2209,-2.2242,-2.2242,-2.2282,-2.231,-2.231,-2.231,-2.231,-2.231,-2.231,-2.231,-2.231,-2.231,-2.231,-2.231,-2.231,-2.231,-2.231,-2.231,-2.231,-2.231,-2.231,-2.231,-2.231,-2.231,-2.231,-2.2282,-2.1087,-2.086,-2.0662,-2.0561,-2.0545,-2.0545,-2.0545,-2.0323,-2.015,-2.015,-1.9904,-1.969,-1.969,-2.0273,-2.086,-2.1246,-2.1844,-2.218,-2.218,-2.2123,-2.2123,-2.2282,-2.2225,-2.2106,-2.1969,-2.2203,-2.2231,-2.2096,-2.2108,-2.2051,-2.1895,-2.1853,-2.1735,-2.157,-2.1355,-2.1198,-2.1071,-2.0827,-2.0695,-2.0662,-2.0527,-2.046,-2.046,-2.046,-2.0561,-2.0695,-2.0695,-2.0877,-2.1071,-2.0926,-2.0991,-2.1055,-2.0794,-2.0778,-2.0828,-2.0745,-2.1071,-2.1524,-2.1631,-2.1603,-2.145,-2.1214,-2.0925,-2.0662,-2.0426,-2.027,-2.02,-2.015,-2.0166,-2.02,-2.0239,-1.9991,-1.975,-1.9673,0.0,0.0,0.0,-1.9028,-1.9361,-1.989,-2.0249,-2.0708,-2.1432,-2.1648,-2.1781,-2.1764,-2.1882,-2.194,-2.194,-2.2077,-2.2152,-2.2225,-2.2282,-2.231,-2.231,-2.231,-2.231,-2.231,-2.231,-2.231,-2.231,-2.231,-2.231,-2.231,-2.231,-2.231,-2.231,-2.231,-2.231,-2.231,-2.231,-2.231,-2.231,-2.231,-2.2282,-2.2254,-2.0426,-2.0373,-2.0235,-1.9869,-1.9797,-1.9797,-1.9797,-1.9762,-1.9762,-1.9762,-1.9726,-1.969,-1.969,-2.008,-2.0595,-2.1246,-2.1617,-2.1827,-2.1827,-2.1556,-2.1648,-2.2282,-2.1991,-2.1827,-2.1827,-2.1768,-2.1738,-2.1738,-2.1615,-2.1493,-2.1371,-2.134,-2.1183,-2.086,-2.086,-2.0712,-2.0478,-2.0444,-2.0376,-2.0339,-2.0304,-2.0304,-2.0304,-2.0304,-2.0304,-2.0323,-2.0426,-2.0444,-2.0478,-2.0512,-2.0512,-2.0478,-2.0444,-2.0376,-2.0357,-2.041,-2.0512,-2.0712,-2.1214,-2.1277,-2.1135,-2.0763,-2.053,-2.0342,-2.0096,-1.9919,-1.9833,-1.9762,-1.9797,-1.9833,-1.9833,-2.0139,-2.0131,-1.9446,0.0,0.0,-1.8562,-1.9139,-1.9626,-1.9562,-2.0304,-2.091,-2.1119,-2.1246,-2.1371,-2.1448,-2.1617,-2.1738,-2.1811,-2.194,-2.2118,-2.2282,-2.2282,-2.231,-2.231,-2.231,-2.231,-2.231,-2.231,-2.231,-2.231,-2.231,-2.231,-2.231,-2.231,-2.231,-2.231,-2.231,-2.231,-2.231,-2.231,-2.231,-2.231,-2.231,-2.2254,-2.2197,-1.994,-1.994,-1.9869,-1.9726,-1.969,-1.969,-1.969,-1.969,-1.969,-1.969,-1.969,-1.969,-1.969,-2.0045,-2.0509,-2.0958,-2.1119,-2.1166,-2.1166,-2.063,-2.073,-2.1648,-2.1556,-2.1386,-2.1198,-2.1371,-2.134,-2.1151,-2.1103,-2.0974,-2.0778,-2.0745,-2.0679,-2.0545,-2.041,-2.0308,-2.0204,-2.008,-2.001,-1.999,-1.994,-1.994,-1.994,-1.994,-1.994,-1.9975,-2.001,-2.01,-2.0204,-2.02,-2.0185,-2.0204,-2.0065,-2.008,-2.0131,-2.017,-2.0239,-2.0323,-2.0512,-2.0646,-2.0679,-2.0444,-2.0289,-2.008,-1.9919,-1.9797,-1.9726,-1.9726,-1.9726,-1.9726,-1.9726,-1.9904,-1.9954,-1.9779,0.0,-1.9829,-1.95,-1.9734,-1.9922,-1.987,-2.0255,-2.0595,-2.0728,-2.0893,-2.1023,-2.1087,-2.1277,-2.1419,-2.1495,-2.1781,-2.2061,-2.2282,-2.2254,-2.2254,-2.231,-2.231,-2.231,-2.231,-2.231,-2.231,-2.231,-2.231,-2.231,-2.231,-2.231,-2.231,-2.231,-2.231,-2.231,-2.231,-2.231,-2.231,-2.2282,-2.2254,-2.218,-2.2061,-1.969,-1.969,-1.969,-1.969,-1.969,-1.969,-1.969,-1.969,-1.969,-1.969,-1.969,-1.969,-1.969,-1.994,-2.0254,-2.0595,-2.0628,-2.0595,-2.0444,-1.9995,-2.0135,-2.1119,-2.1151,-2.1023,-2.0794,-2.0958,-2.0909,-2.0679,-2.0662,-2.0561,-2.0392,-2.0342,-2.0273,-2.0204,-2.0065,-1.9995,-1.9975,-1.9833,-1.9762,-1.9762,-1.9726,-1.969,-1.969,-1.969,-1.9726,-1.9762,-1.9762,-1.9869,-1.9975,-1.9919,-1.994,-1.996,-1.9797,-1.9848,-1.9919,-1.9975,-1.996,-1.996,-1.996,-2.0065,-2.017,-2.015,-2.0025,-1.9919,-1.9797,-1.9726,-1.969,-1.969,-1.969,-1.969,-1.969,-1.9762,-1.9848,-1.9919,-2.0025,-2.0045,-2.001,-2.0045,-2.0045,-2.001,-2.0115,-2.027,-2.0342,-2.0494,-2.0628,-2.0712,-2.086,-2.1087,-2.1309,-2.1661,-2.1974,-2.218,-2.2123,-2.2123,-2.2152,-2.2163,-2.2237,-2.2254,-2.2254,-2.2282,-2.231,-2.231,-2.231,-2.231,-2.231,-2.231,-2.231,-2.231,-2.231,-2.231,-2.231,-2.2282,-2.2254,-2.218,-2.2032,-2.1869,-1.969,-1.969,-1.969,-1.969,-1.969,-1.969,-1.969,-1.969,-1.969,-1.969,-1.969,-1.969,-1.969,-1.969,-1.9869,-2.027,-2.0304,-2.0131,-1.9726,-1.969,-2.003,-2.0761,-2.0794,-2.0794,-2.0794,-2.0512,-2.041,-2.041,-2.0323,-2.022,-2.01,-2.01,-2.001,-1.9797,-1.9797,-1.9762,-1.969,-1.969,-1.969,-1.969,-1.969,-1.969,-1.969,-1.969,-1.969,-1.969,-1.969,-1.969,-1.969,-1.969,-1.969,-1.969,-1.969,-1.969,-1.969,-1.969,-1.969,-1.969,-1.969,-1.969,-1.9726,-1.9762,-1.9797,-1.9762,-1.9726,-1.969,-1.969,-1.969,-1.969,-1.969,-1.969,-1.9762,-1.9797,-1.9797,-1.9919,-1.9955,-1.9797,-1.9919,-1.9955,-1.9797,-1.9919,-2.0025,-2.008,-2.01,-2.015,-2.0304,-2.0426,-2.0745,-2.1355,-2.1661,-2.184,-2.1882,-2.1899,-2.1869,-2.1797,-2.194,-2.2061,-2.2214,-2.2214,-2.2225,-2.231,-2.231,-2.231,-2.231,-2.231,-2.231,-2.231,-2.231,-2.231,-2.231,-2.231,-2.2271,-2.2168,-2.2044,-2.1869,-2.1664,-1.969,-1.969,-1.969,-1.969,-1.969,-1.969,-1.969,-1.969,-1.969,-1.969,-1.969,-1.969,-1.969,-1.969,-1.9762,-1.9869,-1.9869,-1.9833,-1.9726,-1.969,-1.9797,-2.003,-2.003,-2.008,-2.0235,-2.001,-1.996,-2.0045,-2.0025,-1.994,-1.9833,-1.9833,-1.9797,-1.9726,-1.9726,-1.9726,-1.969,-1.969,-1.969,-1.969,-1.969,-1.969,-1.969,-1.969,-1.969,-1.969,-1.969,-1.969,-1.969,-1.969,-1.969,-1.969,-1.969,-1.969,-1.969,-1.969,-1.969,-1.969,-1.969,-1.969,-1.969,-1.9726,-1.9726,-1.9726,-1.969,-1.969,-1.969,-1.969,-1.969,-1.969,-1.969,-1.9726,-1.9726,-1.9726,-1.9797,-1.9848,-1.9797,-1.9919,-1.9955,-1.9797,-1.9848,-1.9884,-1.9904,-1.9904,-1.9955,-2.0061,-2.0323,-2.0679,-2.1103,-2.1324,-2.1509,-2.1615,-2.154,-2.1464,-2.1464,-2.1721,-2.1886,-2.1932,-2.1991,-2.2003,-2.2032,-2.2152,-2.2242,-2.2242,-2.2282,-2.2282,-2.2242,-2.2242,-2.2152,-2.2032,-2.2032,-2.1974,-2.1903,-2.1768,-2.1587,-2.1371,-1.969,-1.969,-1.969,-1.969,-1.969,-1.969,-1.969,-1.969,-1.969,-1.969,-1.969,-1.969,-1.969,-1.969,-1.969,-1.969,-1.969,-1.969,-1.969,-1.969,-1.969,-1.969,-1.969,-1.9762,-1.9884,-1.9762,-1.9726,-1.9797,-1.9797,-1.9762,-1.969,-1.969,-1.969,-1.969,-1.969,-1.969,-1.969,-1.969,-1.969,-1.969,-1.969,-1.969,-1.969,-1.969,-1.969,-1.969,-1.969,-1.969,-1.969,-1.969,-1.969,-1.969,-1.969,-1.969,-1.969,-1.969,-1.969,-1.969,-1.969,-1.969,-1.969,-1.969,-1.969,-1.969,-1.969,-1.969,-1.969,-1.969,-1.969,-1.969,-1.969,-1.969,-1.969,-1.969,-1.9762,-1.9797,-1.9797,-1.9919,-1.9955,-1.9797,-1.9797,-1.9797,-1.9762,-1.9762,-1.9848,-2.0005,-2.0289,-2.0613,-2.0893,-2.1151,-2.1309,-2.1386,-2.1309,-2.1262,-2.1215,-2.1419,-2.1556,-2.1601,-2.1661,-2.1781,-2.1869,-2.2032,-2.2152,-2.2214,-2.2225,-2.2225,-2.2123,-2.2065,-2.1961,-2.1811,-2.1764,-2.1675,-2.1587,-2.1481,-2.1246,-2.0974,-1.969,-1.969,-1.969,-1.969,-1.969,-1.969,-1.969,-1.969,-1.969,-1.969,-1.969,-1.969,-1.969,-1.969,-1.969,-1.969,-1.969,-1.969,-1.969,-1.969,-1.969,-1.969,-1.969,-1.969,-1.969,-1.969,-1.969,-1.969,-1.969,-1.969,-1.969,-1.969,-1.969,-1.969,-1.969,-1.969,-1.969,-1.969,-1.969,-1.969,-1.969,-1.969,-1.969,-1.969,-1.969,-1.969,-1.969,-1.969,-1.969,-1.969,-1.969,-1.969,-1.969,-1.969,-1.969,-1.969,-1.969,-1.969,-1.969,-1.969,-1.969,-1.969,-1.969,-1.969,-1.969,-1.969,-1.969,-1.969,-1.969,-1.969,-1.969,-1.969,-1.969,-1.969,-1.9762,-1.9797,-1.9797,-1.9919,-1.9955,-1.9833,-1.9797,-1.9797,-1.9726,-1.969,-1.9762,-1.997,-2.022,-2.0478,-2.0761,-2.1038,-2.1183,-2.1183,-2.1183,-2.1151,-2.107,-2.107,-2.1119,-2.1277,-2.1371,-2.1509,-2.1751,-2.1911,-2.2061,-2.2168,-2.2168,-2.2106,-2.1969,-2.1811,-2.1708,-2.1617,-2.1509,-2.1355,-2.1214,-2.1135,-2.0893,-2.0563,-1.969,-1.969,-1.969,-1.969,-1.969,-1.969,-1.969,-1.969,-1.969,-1.969,-1.969,-1.969,-1.969,-1.969,-1.969,-1.969,-1.969,-1.969,-1.969,-1.969,-1.969,-1.969,-1.969,-1.969,-1.969,-1.969,-1.969,-1.969,-1.969,-1.969,-1.969,-1.969,-1.969,-1.969,-1.969,-1.969,-1.969,-1.969,-1.969,-1.969,-1.969,-1.969,-1.969,-1.969,-1.969,-1.969,-1.969,-1.969,-1.969,-1.969,-1.969,-1.969,-1.969,-1.969,-1.969,-1.969,-1.969,-1.969,-1.969,-1.969,-1.969,-1.969,-1.969,-1.969,-1.969,-1.969,-1.969,-1.969,-1.969,-1.969,-1.969,-1.969,-1.969,-1.969,-1.9848,-1.9955,-1.9955,-2.0131,-2.0181,-1.999,-1.9955,-1.9884,-1.9726,-1.969,-1.9762,-1.997,-2.0115,-2.0273,-2.0561,-2.0761,-2.0925,-2.0974,-2.0974,-2.0942,-2.0942,-2.0893,-2.0957,-2.1135,-2.1262,-2.1371,-2.1479,-2.1721,-2.1869,-2.1974,-2.1974,-2.1886,-2.1768,-2.157,-2.1308,-2.1071,-2.0974,-2.086,-2.0662,-2.0579,-2.0478,-2.0323,-1.969,-1.969,-1.969,-1.969,-1.969,-1.969,-1.969,-1.969,-1.969,-1.969,-1.953,-1.942,-1.942,-1.9581,-1.9617,-1.942,-1.9508,-1.9545,-1.9508,-1.9545,-1.9545,-1.9508,-1.9508,-1.9508,-1.9508,-1.9508,-1.9581,-1.969,-1.969,-1.969,-1.969,-1.969,-1.969,-1.969,-1.969,-1.969,-1.969,-1.969,-1.969,-1.969,-1.969,-1.969,-1.969,-1.969,-1.969,-1.969,-1.969,-1.969,-1.969,-1.969,-1.969,-1.969,-1.969,-1.969,-1.969,-1.969,-1.969,-1.969,-1.969,-1.969,-1.969,-1.969,-1.969,-1.969,-1.969,-1.969,-1.969,-1.969,-1.969,-1.969,-1.969,-1.969,-1.9726,-1.9726,-1.9919,-2.0061,-2.0131,-2.027,-2.027,-2.0061,-2.0025,-1.9919,-1.9762,-1.9762,-1.9833,-2.001,-2.015,-2.0323,-2.0577,-2.0761,-2.0909,-2.1071,-2.1135,-2.115,-2.1182,-2.115,-2.1198,-2.1294,-2.1262,-2.1309,-2.1417,-2.1661,-2.1811,-2.184,-2.1811,-2.1708,-2.1495,-2.123,-2.0942,-2.0712,-2.0595,-2.046,-2.0308,-2.0273,-2.0185,-2.001,-1.969,-1.969,-1.969,-1.969,-1.969,-1.969,-1.969,-1.9654,-1.9617,-1.9617,-1.925,-1.895,-1.8912,-1.9124,-1.9184,-1.8988,-1.9139,-1.9228,-1.9228,-1.9302,-1.9302,-1.9228,-1.9213,-1.9213,-1.9228,-1.9228,-1.9362,-1.969,-1.969,-1.969,-1.969,-1.969,-1.9654,-1.9654,-1.9654,-1.9654,-1.969,-1.969,-1.969,-1.969,-1.969,-1.969,-1.969,-1.969,-1.969,-1.969,-1.969,-1.969,-1.969,-1.969,-1.969,-1.969,-1.969,-1.969,-1.969,-1.969,-1.969,-1.969,-1.969,-1.969,-1.969,-1.969,-1.969,-1.969,-1.969,-1.969,-1.969,-1.969,-1.969,-1.969,-1.969,-1.9726,-1.9726,-1.9797,-2.001,-2.017,-2.0304,-2.0407,-2.0373,-2.0185,-2.0045,-1.9919,-1.9797,-1.9797,-1.9869,-2.0065,-2.0185,-2.0373,-2.0644,-2.0811,-2.1039,-2.1277,-2.1402,-2.1479,-2.1554,-2.1554,-2.1554,-2.1554,-2.1402,-2.1388,-2.1448,-2.1678,-2.1768,-2.1768,-2.1664,-2.1464,-2.1183,-2.086,-2.0595,-2.0392,-2.027,-2.015,-2.003,-2.003,-1.994,-1.9762,-1.969,-1.969,-1.969,-1.969,-1.969,-1.969,-1.969,-1.9384,-1.9176,-1.9176,-1.8851,-1.8439,-1.8109,-1.7774,-1.776,-1.8347,-1.8528,-1.8707,-1.8936,-1.895,-1.895,-1.8936,-1.8898,-1.8898,-1.8936,-1.8936,-1.9176,-1.9611,-1.9611,-1.9611,-1.9611,-1.9611,-1.956,-1.945,-1.945,-1.9487,-1.9611,-1.9611,-1.9632,-1.969,-1.969,-1.969,-1.969,-1.969,-1.969,-1.969,-1.969,-1.969,-1.969,-1.969,-1.969,-1.969,-1.969,-1.969,-1.969,-1.969,-1.969,-1.969,-1.969,-1.969,-1.969,-1.969,-1.969,-1.969,-1.969,-1.969,-1.969,-1.969,-1.969,-1.969,-1.969,-1.9762,-1.9848,-1.9955,-2.0185,-2.0376,-2.046,-2.0577,-2.0577,-2.0376,-2.0045,-1.9797,-1.9797,-1.9797,-1.9869,-2.0065,-2.0115,-2.0254,-2.0527,-2.0778,-2.1039,-2.1277,-2.1526,-2.1678,-2.1751,-2.1751,-2.1751,-2.1751,-2.1781,-2.1751,-2.1648,-2.1694,-2.1694,-2.1603,-2.1356,-2.1103,-2.086,-2.0579,-2.0289,-2.0061,-1.9919,-1.9833,-1.9747,-1.9747,-1.9726,-1.9726,-1.9347,-1.9347,-1.9347,-1.9347,-1.9347,-1.9288,-1.9064,-1.8889,-1.8697,-1.8464,-1.8055,-1.7611,-1.7157,-1.7086,-1.7282,-1.7855,-1.7962,-1.8161,-1.8503,-1.8503,-1.845,-1.8305,-1.8266,-1.8266,-1.8266,-1.8344,-1.8592,-1.8988,-1.9213,-1.9376,-1.9413,-1.9302,-1.9176,-1.9101,-1.9101,-1.9176,-1.9339,-1.9413,-1.9523,-1.9632,-1.9632,-1.9669,-1.969,-1.969,-1.969,-1.969,-1.969,-1.969,-1.969,-1.969,-1.969,-1.969,-1.969,-1.969,-1.969,-1.969,-1.969,-1.969,-1.969,-1.969,-1.969,-1.969,-1.969,-1.969,-1.969,-1.969,-1.969,-1.969,-1.9726,-1.9762,-1.9762,-1.9869,-2.001,-2.0185,-2.046,-2.0679,-2.0827,-2.0827,-2.0679,-2.0273,-2.0045,-1.9919,-1.9975,-2.0045,-2.015,-2.0323,-2.0308,-2.0444,-2.0712,-2.0958,-2.1214,-2.1587,-2.1751,-2.1945,-2.2077,-2.2077,-2.2065,-2.2036,-2.2049,-2.1961,-2.1768,-2.1768,-2.1648,-2.1419,-2.123,-2.0925,-2.0545,-2.0342,-2.0115,-1.9884,-1.9762,-1.9726,-1.969,-1.969,-1.969,-1.969]}]]